     2              OBSERVATION DATA    GPS                 RINEX VERSION / TYPE
teqc 1999Jul19 19991123 03:03:58UTC                         PGM / RUN BY / DATE
                                                            COMMENT
Original Marker Name: 0414                                  COMMENT
Campaign Name: HPGN 1991                                    COMMENT
4-Character Station Name: 0414                              COMMENT
6-Character Antenna Code: TRMSST                            COMMENT
Vertical Measurement Point: BPA                             COMMENT
Vertical Offset to Rinex Ref. Point: 0.0000                 COMMENT
Radial Measurement Point: RRP                               COMMENT
Radial Offset to Rinex Ref. Point: 0.0000                   COMMENT
Antenna Height from Field Measurement: 2.2200 m             COMMENT
                                                            COMMENT
Original XYZ: -2701986.8341 -4190717.1714 3963875.3574      COMMENT
New XYZ position is based on association with SCEC monument COMMENT
E1F8S7R9+0011. Position of that monument is believed to be  COMMENT
valid to within 1 m horizontally; vertical accuracy         COMMENT
should be no worse than 3-times this value.                 COMMENT
                                                            COMMENT
Revised Rinex header created by UCSD GPS archive for        COMMENT
GSAC on 10-Mar-2000 (2000:070) 05:08:16 GMT                 COMMENT
For assistance contact dagnew@ucsd.edu or hjohnson@ucsd.edu COMMENT
                                                            COMMENT
HPGN CA 04 14                                               MARKER NAME
0414                                                        MARKER NUMBER
-Unknown- CALIF DEPT TRANSPORTATION                         OBSERVER / AGENCY
290 TRIMBLE 4000 SST NP 4.30 / SP 4.20                      REC # / TYPE / VERS
103 TR 4000SST L1/L2 GEO                                    ANT # / TYPE
 -2701986.9893 -4190714.2300  3963873.8025                  APPROX POSITION XYZ
        2.2200        0.0000        0.0000                  ANTENNA: DELTA H/E/N
     1     1     0                                          WAVELENGTH FACT L1/2
     5    C1    L1    L2    S1    S2                        # / TYPES OF OBSERV
     0                                                      INTERVAL
  1991     7    24     0    38   45.000000                  TIME OF FIRST OBS
  1991     7    24     6    44   60.000000                  TIME OF LAST OBS
                                                            END OF HEADER
 91  7 24  0 38 45.0000000  0  4G 3G16G17G20
  20782209.852          -0.56517        -0.45132        24.500           2.250
  22208705.930          -0.35016        -0.44032        19.750           1.531
  21088789.219          -0.43317        -0.45033        21.250           2.844
  22558323.414          -0.04216        -0.01532        17.000           1.500
 91  7 24  0 39  0.0000000  0  4G 3G16G17G20
  20777162.922      -26526.490 7    -20669.99422        24.500           2.281
  22212709.344       21032.384 7     16388.70322        20.000           1.563
  21082389.063      -33626.421 7    -26202.49123        21.500           3.000
  22565698.086       38765.491 6     30206.83621        16.250           1.438
 91  7 24  0 39 15.0000000  0  4G 3G16G17G20
  20772119.078      -53022.146 7    -41315.94722        23.750           2.219
  22216728.234       42141.571 6     32837.41321        19.500           1.469
  21075999.586      -67206.534 7    -52368.78123        21.750           2.813
  22573082.492       77562.213 6     60438.00221        16.500           1.406
 91  7 24  0 39 30.0000000  0  4G 3G16G17G20
  20767083.063      -79483.735 7    -61935.36322        24.000           2.281
  22220757.117       63330.599 6     49348.33122        19.000           1.500
  21069620.578     -100736.895 7    -78496.30023        22.250           2.781
  22580471.055      116393.517 6     90696.11322        16.500           1.500
 91  7 24  0 39 45.0000000  0  4G 3G16G17G20
  20762058.891     -105900.670 7    -82519.97922        24.250           2.219
  22224807.836       84609.392 6     65929.19222        18.750           1.563
  21063248.055     -134207.169 7   -104577.00623        21.750           2.844
  22587869.930      155269.354 6    120988.91321        16.500           1.406
 91  7 24  0 40  0.0000000  0  5G 3G16G17G20G23
  20757039.453     -132273.296 7   -103070.05822        24.500           2.406
  22228876.016      105977.253 6     82579.46022        19.500           1.531
  21056892.758     -167617.951 7   -130611.35223        21.500           2.906
  22595274.109      194188.732 6    151315.64721        16.750           1.406
  24270587.875      -65977.525 5                         8.250
 91  7 24  0 40 15.0000000  0  5G 3G16G17G20G23
  20752031.367     -158597.185 7   -123582.16722        24.500           2.313
  22232959.195      127438.013 6     99302.13722        19.750           1.563
  21050545.445     -200965.079 7   -156596.09123        21.750           2.844
  22602690.758      233155.645 6    181679.42521        16.500           1.313
  24258031.977     -131945.840 5                         8.000
 91  7 24  0 40 30.0000000  0  5G 3G16G17G20G23
  20747029.180     -184870.231 7   -144054.65122        24.000           2.188
  22237060.734      148993.292 6    116098.45722        19.750           1.500
  21044213.734     -234246.713 7   -182529.78723        22.000           2.781
  22610112.953      272171.653 6    212081.45321        16.500           1.250
  24245478.242     -197903.143 5                         8.500
 91  7 24  0 40 45.0000000  0  5G 3G16G17G20G23
  20742040.141     -211089.421 7   -164485.17722        23.500           2.219
  22241182.305      170645.760 7    132970.49822        20.750           1.594
  21037891.953     -267460.024 7   -208410.26623        22.000           2.813
  22617550.102      311239.214 6    242523.65821        16.750           1.250
  24232929.469     -263846.406 5                         8.750
 91  7 24  0 41  0.0000000  0  5G 3G16G17G20G23
  20737062.070     -237255.593 7   -184874.40122        24.250           2.375
  22245319.406      192393.880 7    149917.06722        21.000           1.500
  21031583.953     -300606.363 7   -234238.56723        21.500           2.844
  22624994.359      350356.592 6    273004.65821        16.750           1.094
  24220386.078     -329776.465 5        -0.02731         8.750           0.219
 91  7 24  0 41 15.0000000  0  5G 3G16G17G20G23
  20732094.242     -263362.801 7   -205217.65822        24.500           2.375
  22249475.820      214243.416 7    166942.67621        20.750           1.469
  21025290.977     -333679.499 7   -260009.80723        21.500           2.875
  22632449.820      389529.525 6    303528.97621        16.750           1.250
  24207845.055     -395687.062 5    -51358.66521         9.250           0.125
 91  7 24  0 41 30.0000000  0  5G 3G16G17G20G23
  20727136.711     -289415.641 7   -225518.55722        24.250           2.375
  22253652.898      236189.246 7    184043.31422        20.500           1.625
  21019008.961     -366684.200 7   -285727.73323        21.750           2.844
  22639912.570      428752.993 6    334092.65621        16.250           1.188
  24195306.289     -461582.728 5   -102705.68221         9.000           0.125
 91  7 24  0 41 45.0000000  0  5G 3G16G17G20G23
  20722187.734     -315409.773 7   -245773.71122        23.750           2.438
  22257850.500      258234.871 7    201221.71522        22.250           1.688
  21012744.828     -399616.450 7   -311389.20323        22.250           2.844
  22647384.922      468030.536 6    364698.47221        15.500           1.156
  24182767.367     -527459.255 5   -154037.79221         9.250           0.219
 91  7 24  0 42  0.0000000  0  5G 3G16G17G20G23
  20717251.828     -341347.581 7   -265984.97322        23.500           2.406
  22262064.453      280377.767 7    218475.91722        21.750           1.750
  21006490.742     -432478.930 7   -336996.29623        22.000           2.750
  22654869.750      507359.223 6    395344.14421        15.750           1.125
  24170236.688     -593318.887 5   -205356.71821         9.500           0.375
 91  7 24  0 42 15.0000000  0  5G 3G16G17G20G23
  20712328.234     -367226.975 7   -286150.71723        24.000           2.531
  22266295.773      302619.520 7    235807.13722        21.500           1.844
  21000249.328     -465269.805 7   -362547.59723        21.750           2.750
  22662364.219      546740.595 6    426030.87621        15.750           1.219
  24157709.336     -659159.256 5   -256660.64221         9.500           0.250
 91  7 24  0 42 30.0000000  0  5G 3G16G17G20G23
  20707415.305     -393045.913 7   -306269.35123        23.500           2.500
  22270545.516      324961.427 7    253216.40122        21.500           1.813
  20994024.063     -497987.009 7   -388041.49823        21.750           2.906
  22669867.734      586176.071 6    456759.75621        15.250           1.125
  24145174.133     -724978.454 5   -307948.09421         9.250           0.250
 91  7 24  0 42 45.0000000  0  5G 3G16G17G20G23
  20702514.383     -418806.470 7   -326342.50022        23.500           2.438
  22274817.281      347400.934 7    270701.72522        22.250           2.031
  20987812.375     -530633.274 7   -413480.12123        21.750           2.813
  22677381.555      625662.904 6    487528.64321        15.000           1.063
  24132656.836     -790778.643 5   -359220.72321         9.500           0.469
 91  7 24  0 43  0.0000000  0  5G 3G16G17G20G23
  20697621.047     -444509.612 7   -346370.90622        23.500           2.406
  22279105.359      369936.853 7    288262.17622        22.250           1.938
  20981614.430     -563209.473 7   -438864.13623        21.750           2.969
  22684907.125      665199.783 6    518336.55221        15.000           1.094
  24120139.430     -856560.397 5   -410478.99821         9.250           0.344
 91  7 24  0 43 15.0000000  0  5G 3G16G17G20G23
  20692743.141     -470152.247 7   -366352.16123        23.500           2.500
  22283410.953      392571.655 7    305899.67322        22.500           1.844
  20975426.820     -595712.750 7   -464191.33223        21.250           3.000
  22692440.109      704788.985 6    549185.21221        14.750           1.063
  24107626.992     -922320.717 5   -461720.56021         9.000           0.281
 91  7 24  0 43 30.0000000  0  5G 3G16G17G20G23
  20687874.383     -495733.756 7   -386285.78923        24.250           2.563
  22287738.547      415305.597 7    323614.42022        22.500           1.844
  20969256.539     -628142.742 7   -489461.43123        21.250           3.000
  22699982.359      744430.870 6    580074.92021        14.000           1.000
  24095119.500     -988058.784 5   -512944.78021         9.250           0.375
 91  7 24  0 43 45.0000000  0  5G 3G16G17G20G23
  20683016.648     -521257.065 7   -406174.07223        23.500           2.594
  22292083.125      438134.970 7    341403.51822        22.750           2.031
  20963098.766     -660502.629 7   -514676.90823        21.750           3.094
  22707534.461      784121.837 6    611002.87121        14.250           1.031
  24082609.641    -1053777.610 5   -564154.02421         9.000           0.250
 91  7 24  0 44  0.0000000  0  5G 3G16G17G20G23
  20678172.922     -546720.153 7   -426015.42923        24.750           2.594
  22296444.484      461061.534 7    359268.36122        21.750           1.844
  20956954.734     -692790.653 7   -539836.37723        21.250           2.969
  22715096.422      823863.383 6    641970.25121        14.250           0.906
  24070107.656    -1119474.983 5   -615346.57821         8.750           0.469
 91  7 24  0 44 15.0000000  0  5G 3G16G17G20G23
  20673338.523     -572122.999 7   -445809.83623        24.250           2.656
  22300826.477      484084.743 7    377208.51622        22.000           1.875
  20950825.031     -725006.822 7   -564939.86323        21.250           3.063
  22722668.680      863655.019 6    672976.65121        14.750           0.875
  24057611.063    -1185150.703 5   -666522.23221         8.500           0.375
 91  7 24  0 44 30.0000000  0  5G 3G16G17G20G23
  20668514.859     -597466.467 7   -465557.97823        23.750           2.656
  22305227.227      507202.930 7    395222.67822        23.000           2.031
  20944708.258     -757152.307 7   -589988.25823        21.250           3.000
  22730252.148      903495.115 6    704020.81921        14.750           0.906
  24045115.320    -1250805.786 5   -717681.81921         8.500           0.375
 91  7 24  0 44 45.0000000  0  5G 3G16G17G20G23
  20663703.055     -622748.640 7   -485258.36323        23.250           2.625
  22309642.859      530417.685 7    413312.09122        23.000           1.969
  20938604.695     -789225.423 7   -614980.26723        22.000           2.938
  22737840.883      943385.144 6    735103.87721        14.500           0.875
  24032622.156    -1316438.135 5   -768823.70721         7.750           0.375
 91  7 24  0 45  0.0000000  0  5G 3G16G17G20G23
  20658906.156     -647965.727 7   -504908.02523        23.750           2.531
  22314079.875      553732.561 7    431479.52022        22.500           2.125
  20932512.922     -821222.536 7   -639913.05423        21.500           3.000
  22745444.992      983328.440 6    766228.46721        14.250           0.875
  24020143.516    -1382043.642 5   -819944.66021         7.500           0.344
 91  7 24  0 45 15.0000000  0  5G 3G16G17G20G23
  20654118.414     -673121.433 7   -524509.86023        24.000           2.625
  22318534.875      577143.217 7    449721.57022        22.000           2.094
  20926438.859     -853147.870 7   -664789.91823        21.500           3.031
  22753055.398     1023320.690 6    797391.17421        14.250           0.781
  24007662.305    -1447626.079 5   -871047.63221         7.500           0.500
 91  7 24  0 45 30.0000000  0  5G 3G16G17G20G23
  20649344.016     -698213.278 7   -544061.93523        24.000           2.719
  22323010.055      600651.666 7    468039.83122        22.000           1.906
  20920377.859     -884999.017 7   -689608.96423        22.000           2.844
  22760674.273     1063363.533 6    828593.32921        14.000           0.750
  23995190.625    -1513183.088 5   -922130.79621         8.250           0.375
 91  7 24  0 45 45.0000000  0  5G 3G16G17G20G23
  20644580.688     -723241.255 7   -563564.24023        24.000           2.719
  22327502.125      624257.453 7    486433.94522        21.500           1.906
  20914331.531     -916775.990 7   -714370.21423        22.250           2.844
  22768304.539     1103456.594 6    859834.60721        14.250           0.781
  23982716.641    -1578714.585 5   -973194.11221         7.500           0.375
 91  7 24  0 46  0.0000000  0  5G 3G16G17G20G23
  20639828.867     -748206.857 7   -583017.93723        24.000           2.813
  22332011.008      647958.601 7    504902.36922        21.000           1.875
  20908297.789     -948480.591 7   -739075.06923        21.750           2.719
  22775944.789     1143597.779 6    891113.38921        14.750           0.719
  23970255.477    -1644221.838 5  -1024238.49121         8.000           0.375
 91  7 24  0 46 15.0000000  0  5G 3G16G17G20G23
  20635091.820     -773110.510 7   -602423.36923        24.250           2.844
  22336537.133      671753.770 7    523444.04822        20.500           1.719
  20902276.695     -980113.437 7   -763724.01923        21.750           2.656
  22783593.352     1183786.198 6    922428.96221        15.000           0.719
  23957791.641    -1709705.161 5  -1075264.26521         8.250           0.469
 91  7 24  0 46 30.0000000  0  5G 3G16G17G20G23
  20630365.633     -797947.807 7   -621777.10623        24.250           2.813
  22341087.664      695647.280 7    542062.35422        20.500           1.781
  20896275.047    -1011670.486 7   -788313.91423        22.000           2.656
  22791249.180     1224025.647 6    953784.29621        15.000           0.781
  23945335.930    -1775160.177 5  -1126267.99521         8.250           0.438
 91  7 24  0 46 45.0000000  0  5G 3G16G17G20G23
  20625649.438     -822725.913 7   -641084.71023        24.000           2.750
  22345650.852      719631.562 7    560751.40022        20.000           1.781
  20890279.406    -1043158.863 7   -812850.28423        21.750           2.750
  22798913.977     1264308.101 6    985173.15321        15.000           0.781
  23932880.344    -1840594.034 5  -1177255.21821         7.750           0.469
 91  7 24  0 47  0.0000000  0  5G 3G16G17G20G23
  20620946.375     -847441.620 7   -660343.69023        24.250           2.781
  22350232.109      743709.196 6    579513.17522        19.750           1.750
  20884302.664    -1074575.542 7   -837330.79523        22.500           2.750
  22806586.898     1304636.487 6   1016597.79121        14.500           0.688
  23920431.594    -1906003.216 5  -1228223.21121         7.750           0.469
 91  7 24  0 47 15.0000000  0  5G 3G16G17G20G23
  20616255.250     -872092.225 7   -679551.93623        24.500           2.750
  22354832.930      767882.203 6    598349.28322        19.750           1.688
  20878339.648    -1105918.409 7   -861753.77423        22.000           2.688
  22814272.117     1345012.867 6   1048059.84421        15.000           0.719
  23907994.672    -1971385.120 5  -1279169.96621         8.500           0.531
 91  7 24  0 47 30.0000000  0  5G 3G16G17G20G23
  20611577.586     -896677.181 7   -698709.04823        25.250           2.844
  22359449.422      792150.629 6    617259.73422        19.250           1.719
  20872387.664    -1137186.818 7   -886118.75323        21.750           2.719
  22821963.758     1385437.343 6   1079559.35321        15.000           0.719
  23895556.484    -2036739.011 5  -1330094.88721         8.250           0.406
 91  7 24  0 47 45.0000000  0  5G 3G16G17G20G23
  20606912.672     -921197.869 7   -717816.06123        25.250           3.031
  22364086.617      816512.707 6    636243.17022        18.750           1.688
  20866449.078    -1168382.469 7   -910427.02723        22.000           2.656
  22829664.922     1425907.748 6   1111094.65721        14.500           0.781
  23883124.469    -2102066.219 5  -1380999.02421         8.500           0.406
 91  7 24  0 48  0.0000000  0  5G 3G16G17G20G23
  20602258.664     -945648.100 7   -736868.17823        25.250           3.031
  22368738.797      840974.088 6    655303.98022        18.250           1.594
  20860532.336    -1199499.609 7   -934674.12123        22.500           2.594
  22837375.813     1466429.718 6   1142670.15021        14.500           0.625
  23870697.531    -2167360.719 5  -1431877.67421         8.750           0.469
 91  7 24  0 48 15.0000000  0  5G 3G16G17G20G23
  20597616.914     -970040.230 7   -755875.04023        24.750           2.969
  22373412.281      865521.853 6    674432.09122        18.250           1.531
  20854622.109    -1230550.780 7   -958869.82823        22.500           2.563
  22845096.258     1506990.386 6   1174275.78321        14.500           0.625
  23858280.570    -2232634.630 5  -1482740.30021         9.000           0.469
 91  7 24  0 48 30.0000000  0  5G 3G16G17G20G23
  20592988.266     -994366.634 7   -774830.66523        24.500           3.219
  22378099.250      890163.214 6    693633.14322        18.750           1.563
  20848725.172    -1261528.160 7   -983008.02123        22.500           2.688
  22852824.297     1547596.944 6   1205917.18321        14.500           0.656
  23845862.797    -2297880.019 5  -1533580.66521         9.250           0.531
 91  7 24  0 48 45.0000000  0  5G 3G16G17G20G23
  20588369.875    -1018627.450 7   -793735.19523        24.750           3.031
  22382808.688      914897.287 6    712906.44621        19.000           1.406
  20842848.375    -1292432.672 7  -1007089.44323        22.250           2.688
  22860557.297     1588248.391 6   1237593.54821        14.750           0.594
  23833454.992    -2363097.371 5  -1584399.19921         9.250           0.469
 91  7 24  0 49  0.0000000  0  5G 3G16G17G20G23
  20583766.898    -1042823.568 7   -812589.30723        25.500           2.938
  22387531.492      939722.576 6    732250.81921        18.000           1.313
  20836979.836    -1323265.180 7  -1031114.74623        21.750           2.625
  22868303.742     1628943.440 6   1269303.90021        15.000           0.656
  23821046.320    -2428287.259 5  -1635196.33821         9.250           0.563
 91  7 24  0 49 15.0000000  0  5G 3G16G17G20G23
  20579176.383    -1066954.132 7   -831392.33923        25.500           3.156
  22392272.211      964639.901 6    751666.90521        18.250           1.438
  20831123.453    -1354025.090 7  -1055083.48423        21.500           2.750
  22876053.016     1669682.317 6   1301048.39221        14.750           0.688
  23808647.961    -2493448.819 5  -1685971.39521         9.750           0.469
 91  7 24  0 49 30.0000000  0  5G 3G16G17G20G23
  20574596.297    -1091019.163 7   -850144.29723        24.750           3.156
  22397033.594      989648.333 6    771153.98421        18.500           1.344
  20825285.953    -1384712.598 7  -1078995.80823        21.500           2.688
  22883812.656     1710464.412 6   1332826.56621        14.500           0.688
  23796251.398    -2558581.958 5  -1736724.31321         9.500           0.438
 91  7 24  0 49 45.0000000  0  5G 3G16G17G20G23
  20570027.094    -1115018.451 7   -868845.04123        24.500           3.188
  22401808.945     1014747.977 6    790712.13121        18.750           1.375
  20819459.883    -1415327.617 7  -1102851.64623        21.500           2.750
  22891582.992     1751289.562 6   1364638.28621        14.750           0.844
  23783862.219    -2623686.179 5  -1787454.69121        10.000           0.469
 91  7 24  0 50  0.0000000  0  5G 3G16G17G20G23
  20565474.305    -1138952.065 7   -887494.60723        24.500           3.188
  22406601.719     1039938.002 6    810340.71921        19.000           1.281
  20813646.313    -1445870.724 7  -1126651.44623        22.000           2.781
  22899361.422     1792156.776 6   1396482.77921        15.000           0.781
  23771483.391    -2688761.919 5  -1838162.88921        11.000           0.375
 91  7 24  0 50 15.0000000  0  5G 3G16G17G20G23
  20560932.234    -1162820.023 7   -906093.00523        24.000           3.000
  22411413.492     1065218.082 6    830039.47521        19.000           1.281
  20807850.805    -1476341.983 7  -1150395.25823        22.750           2.719
  22907145.414     1833065.772 6   1428359.82721        15.000           0.688
  23759103.852    -2753808.851 5  -1888848.66021        11.250           0.469
 91  7 24  0 50 30.0000000  0  5G 3G16G17G20G23
  20556402.117    -1186622.686 7   -924640.52923        24.250           3.063
  22416243.297     1090587.070 6    849807.50721        19.250           1.344
  20802065.156    -1506742.080 7  -1174083.62723        21.750           2.719
  22914938.164     1874015.488 6   1460268.60821        15.750           0.688
  23746732.305    -2818827.258 5  -1939512.18021        11.250           0.438
 91  7 24  0 50 45.0000000  0  5G 3G16G17G20G23
  20551884.602    -1210358.072 7   -943135.63123        23.750           3.000
  22421086.148     1116046.714 6    869646.17321        19.500           1.406
  20796294.055    -1537069.312 7  -1197715.21423        22.000           2.844
  22922738.391     1915007.382 6   1492210.26321        16.000           0.656
  23734361.688    -2883815.126 5  -1990151.89521        11.000           0.406
 91  7 24  0 51  0.0000000  0  5G 3G16G17G20G23
  20547384.188    -1234023.397 7   -961576.13723        24.250           3.031
  22425946.695     1141598.939 7    889556.98121        20.000           1.406
  20790534.477    -1567320.936 7  -1221287.88523        21.500           2.906
  22930547.961     1956043.628 6   1524186.48221        16.000           0.688
  23722003.125    -2948769.566 5  -2040765.57621        11.000           0.469
 91  7 24  0 51 15.0000000  0  5G 3G16G17G20G23
  20542893.055    -1257620.558 7   -979963.52723        24.750           3.063
  22430827.867     1167241.380 7    909538.08921        20.250           1.375
  20784794.164    -1597498.931 7  -1244803.18123        21.000           2.844
  22938365.852     1997121.564 6   1556195.17521        16.000           0.750
  23709642.547    -3013692.678 5  -2091354.85521        10.750           0.500
 91  7 24  0 51 30.0000000  0  5G 3G16G17G20G23
  20538414.000    -1281151.909 7   -998299.64423        24.000           3.031
  22435725.227     1192971.422 7    929587.45921        20.500           1.406
  20779065.586    -1627605.935 7  -1268263.16223        21.250           2.938
  22946187.016     2038238.591 6   1588234.34121        15.250           0.656
  23697297.797    -3078586.584 5  -2141921.36421        11.000           0.469
 91  7 24  0 51 45.0000000  0  5G 3G16G17G20G23
  20533950.039    -1304616.580 7  -1016583.79823        24.000           3.063
  22440637.375     1218789.155 7    949705.16221        20.750           1.344
  20773349.281    -1657641.663 7  -1291667.59823        21.250           2.844
  22954020.969     2079394.951 6   1620304.13021        15.000           0.750
  23684954.188    -3143450.283 5  -2192464.35321        11.500           0.469
 91  7 24  0 52  0.0000000  0  5G 3G16G17G20G23
  20529498.102    -1328011.248 7  -1034813.41123        24.000           3.094
  22445565.805     1244697.869 7    969893.75222        20.500           1.500
  20767644.859    -1687602.750 7  -1315013.87623        20.750           2.844
  22961860.969     2120593.506 6   1652406.81721        15.250           0.781
  23672618.648    -3208280.373 5  -2242981.13221        11.250           0.500
 91  7 24  0 52 15.0000000  0  5G 3G16G17G20G23
  20525057.836    -1351335.892 7  -1052988.45023        23.250           3.219
  22450516.219     1270696.665 7    990152.53522        21.000           1.531
  20761960.633    -1717489.694 7  -1338302.37923        21.250           2.844
  22969710.563     2161833.363 6   1684541.68721        15.250           0.875
  23660287.813    -3273076.935 5  -2293471.79821        11.750           0.406
 91  7 24  0 52 30.0000000  0  5G 3G16G17G20G23
  20520631.961    -1374592.924 7  -1071110.80723        23.000           3.188
  22455480.398     1296782.574 7   1010479.20422        21.250           1.656
  20756287.492    -1747304.890 7  -1361534.96723        21.000           2.844
  22977564.508     2203111.714 6   1716706.53921        15.250           0.781
  23647964.203    -3337842.221 5  -2343938.09121        11.500           0.375
 91  7 24  0 52 44.9990000  0  5G 3G16G17G20G23
  20516223.565    -1397775.554 7  -1089175.18923        24.000           3.188
  22460459.230     1322959.012 7   1030876.40522        20.750           1.563
  20750626.972    -1777041.089 7  -1384706.01123        21.250           2.688
  22985426.136     2244430.537 6   1748902.93621        14.750           0.750
  23635646.003    -3402566.347 5  -2394372.30221        11.500           0.469
 91  7 24  0 52 59.9990000  0  5G 3G16G17G20G23
  20511824.206    -1420889.641 7  -1107186.15723        23.500           3.281
  22465459.722     1349225.845 7   1051344.05522        21.000           1.500
  20744983.394    -1806705.610 7  -1407821.19323        21.750           2.813
  22993298.714     2285791.991 6   1781132.54121        14.500           0.813
  23623336.800    -3467260.825 5  -2444783.41821        11.500           0.375
 91  7 24  0 53 14.9990000  0  5G 3G16G17G20G23
  20507438.706    -1443932.510 7  -1125141.63323        23.500           3.375
  22470474.308     1375582.038 7   1071881.33122        20.750           1.625
  20739351.769    -1836295.598 7  -1430878.30723        21.500           2.719
  23001176.237     2327193.801 6   1813393.59721        14.750           0.875
  23611035.151    -3531920.264 5  -2495167.22921        11.750           0.313
 91  7 24  0 53 29.9990000  0  5G 3G16G17G20G23
  20503066.706    -1466904.905 7  -1143042.19423        23.500           3.313
  22475505.480     1402025.858 7   1092486.89622        20.250           1.656
  20733735.753    -1865811.805 7  -1453877.92523        22.000           2.656
  23009060.222     2368634.593 6   1845685.03621        14.750           0.938
  23598736.276    -3596545.478 5  -2545524.34921        11.250           0.469
 91  7 24  0 53 44.9990000  0  5G 3G16G17G20G23
  20498709.136    -1489808.091 7  -1160888.82923        23.750           3.156
  22480556.315     1428555.930 7   1113159.66222        20.250           1.625
  20728132.534    -1895255.910 7  -1476821.35623        22.250           2.688
  23016953.292     2410112.524 6   1878005.41121        14.250           0.906
  23586445.620    -3661137.490 5  -2595855.61421        11.000           0.406
 91  7 24  0 53 59.9990000  0  5G 3G16G17G20G23
  20494364.612    -1512646.223 7  -1178684.76923        24.250           3.188
  22485619.151     1455167.564 7   1133895.98322        20.000           1.688
  20722542.237    -1924632.377 7  -1499712.08723        22.250           2.656
  23024851.808     2451622.902 6   1910351.06521        14.250           0.875
  23574157.151    -3725700.240 5  -2646164.08421        10.500           0.344
 91  7 24  0 54 14.9990000  0  5G 3G16G17G20G23
  20490030.550    -1535410.973 7  -1196423.52923        23.750           3.094
  22490698.136     1481868.584 7   1154701.96022        20.000           1.563
  20716968.511    -1953932.885 7  -1522543.63123        22.250           2.719
  23032764.073     2493173.692 6   1942728.20721        14.500           0.719
  23561879.026    -3790225.060 5  -2696442.99121        10.250           0.406
 91  7 24  0 54 29.9990000  0  5G 3G16G17G20G23
  20485710.995    -1558108.783 7  -1214110.12323        24.000           3.219
  22495797.081     1508651.835 7   1175572.01421        20.000           1.469
  20711405.495    -1983164.182 7  -1545321.25223        22.250           2.719
  23040674.222     2534757.642 6   1975131.19721        14.500           0.781
  23549608.917    -3854718.690 5  -2746697.58421        10.500           0.563
 91  7 24  0 54 44.9990000  0  5G 3G16G17G20G23
  20481407.058    -1580733.135 7  -1231739.48223        23.750           3.188
  22500909.425     1535523.236 6   1196510.75622        19.750           1.625
  20705856.370    -2012320.153 7  -1568040.16823        22.250           2.750
  23048596.605     2576380.502 6   2007564.50921        14.250           0.875
  23537343.620    -3919174.891 5  -2796923.00021        11.000           0.531
 91  7 24  0 54 59.9990000  0  5G 3G16G17G20G23
  20477115.253    -1603286.252 7  -1249313.32123        23.750           3.156
  22506038.909     1562480.302 6   1217516.25822        19.500           1.594
  20700321.315    -2041403.103 7  -1590702.17823        22.000           2.750
  23056522.964     2618039.715 6   2040026.12821        14.000           0.844
  23525084.495    -3983595.460 5  -2847120.68121        11.000           0.531
 91  7 24  0 55 14.9990000  0  5G 3G16G17G20G23
  20472836.237    -1625767.312 7  -1266831.02623        23.750           3.219
  22511184.167     1589523.259 6   1238588.67822        19.500           1.656
  20694802.136    -2070412.539 7  -1613306.90823        21.500           2.750
  23064459.378     2659735.373 6   2072516.15921        13.500           0.781
  23512829.526    -4047979.565 5  -2897289.93721        10.750           0.469
 91  7 24  0 55 29.9990000  0  5G 3G16G17G20G23
  20468571.730    -1648175.055 7  -1284291.59723        24.250           3.156
  22516349.972     1616653.129 7   1259728.82022        20.000           1.625
  20689296.034    -2099347.208 7  -1635853.38323        21.500           2.844
  23072401.472     2701468.300 6   2105035.20921        13.750           0.781
  23500582.675    -4112325.801 5  -2947429.68721        10.500           0.531
 91  7 24  0 55 44.9990000  0  5G 3G16G17G20G23
  20464321.206    -1670511.836 7  -1301696.87023        23.750           3.219
  22521530.347     1643866.950 6   1280934.39022        19.250           1.625
  20683803.401    -2128210.158 7  -1658343.97023        21.750           2.875
  23080349.839     2743235.452 6   2137580.95621        13.750           0.656
  23488348.081    -4176636.660 5  -2997541.88421        11.000           0.500
 91  7 24  0 55 59.9990000  0  5G 3G16G17G20G23
  20460086.886    -1692773.397 7  -1319043.53723        24.250           3.219
  22526721.917     1671168.384 6   1302208.22322        17.750           1.594
  20678324.159    -2156996.969 7  -1680775.22723        22.750           2.875
  23088301.909     2785040.839 6   2170156.47521        12.750           0.656
  23476116.058    -4240907.663 5  -3047623.02521        10.750           0.469
 91  7 24  0 56 14.9990000  0  5G 3G16G17G20G23
  20455863.120    -1714962.829 7  -1336333.99623        24.500           3.281
  22531932.589     1698553.972 6   1323547.63422        17.500           1.625
  20672860.581    -2185710.837 7  -1703149.64523        22.250           2.844
  23096263.440     2826880.706 6   2202758.87221        12.500           0.688
  23463890.136    -4305141.600 5  -3097675.30121        10.250           0.469
 91  7 24  0 56 29.9990000  0  5G 3G16G17G20G23
  20451654.526    -1737077.161 7  -1353565.93023        25.000           3.406
  22537158.956     1726026.275 6   1344954.59922        17.750           1.531
  20667411.644    -2214349.085 7  -1725465.14923        21.750           2.781
  23104228.605     2868757.423 6   2235389.99121        12.000           0.688
  23451672.284    -4369335.603 5  -3147696.43521        10.250           0.469
 91  7 24  0 56 44.9990000  0  5G 3G16G17G20G23
  20447460.183    -1759120.326 7  -1370742.41923        24.750           3.156
  22542403.605     1753580.468 6   1366425.38622        17.500           1.500
  20661976.417    -2242916.367 7  -1747725.35023        22.250           2.813
  23112206.651     2910666.166 6   2268046.05221        12.500           0.625
  23439467.003    -4433493.888 5  -3197689.73621        10.750           0.563
 91  7 24  0 56 59.9990000  0  5G 3G16G17G20G23
  20443280.995    -1781088.337 7  -1387860.34123        25.500           3.156
  22547663.355     1781219.909 6   1387962.60422        17.500           1.500
  20656552.433    -2271408.655 7  -1769927.10923        22.250           2.781
  23120189.183     2952610.483 6   2300729.84821        12.500           0.656
  23427268.550    -4497612.175 5  -3247651.88421        10.750           0.563
 91  7 24  0 57 14.9990000  0  5G 3G16G17G20G23
  20439114.511    -1802982.314 7  -1404920.57823        26.000           3.219
  22552942.808     1808942.645 6   1409564.73621        18.000           1.438
  20651144.159    -2299827.308 7  -1792071.48723        21.750           2.938
  23128179.237     2994588.557 6   2333439.93321        12.500           0.750
  23415071.464    -4561691.671 5  -3297583.81621        10.500           0.469
 91  7 24  0 57 29.9990000  0  5G 3G16G17G20G23
  20434960.448    -1824801.411 7  -1421922.46123        25.500           3.125
  22558230.940     1836749.429 6   1431232.35121        17.750           1.438
  20645751.769    -2328171.589 7  -1814157.92023        21.250           3.125
  23136171.909     3036600.929 6   2366176.74721        12.500           0.750
  23402881.300    -4625731.149 5  -3347484.55121        11.000           0.563
 91  7 24  0 57 44.9990000  0  5G 3G16G17G20G23
  20430824.190    -1846545.961 7  -1438866.25923        25.750           3.156
  22563539.909     1864639.710 6   1452965.02821        18.250           1.375
  20640371.847    -2356441.826 7  -1836186.66323        21.500           3.063
  23144173.315     3078646.912 6   2398939.75621        12.250           0.813
  23390706.839    -4689730.708 5  -3397354.20921        11.250           0.438
 91  7 24  0 57 59.9990000  0  5G 3G16G17G20G23
  20426702.105    -1868210.169 7  -1455747.45923        25.500           3.219
  22568861.800     1892617.950 6   1474766.23521        18.500           1.313
  20635004.222    -2384633.236 7  -1858153.97923        21.500           3.031
  23152184.909     3120731.112 6   2431732.53421        12.500           0.688
  23378535.878    -4753685.010 5  -3447188.58921        11.250           0.656
 91  7 24  0 58 14.9990000  0  5G 3G16G17G20G23
  20422594.003    -1889797.712 7  -1472568.91223        25.000           3.188
  22574202.878     1920680.890 6   1496633.45421        19.250           1.281
  20629656.206    -2412749.132 7  -1880062.44623        22.000           3.125
  23160197.847     3162849.733 6   2464552.13121        12.000           0.813
  23366374.815    -4817597.250 5  -3496990.19321        11.500           0.563
 91  7 24  0 58 29.9990000  0  5G 3G16G17G20G23
  20418498.776    -1911311.849 7  -1489333.17223        25.000           3.188
  22579559.940     1948824.383 6   1518563.44421        19.500           1.438
  20624320.370    -2440793.231 7  -1901914.96623        21.500           3.219
  23168219.214     3204998.811 5   2497395.46521        11.750           0.875
  23354214.519    -4881470.985 5  -3546761.80621        10.750           0.625
 91  7 24  0 58 44.9990000  0  5G 3G16G17G20G23
  20414421.589    -1932749.113 7  -1506037.52823        25.500           3.219
  22584929.636     1977051.306 6   1540558.43421        19.000           1.281
  20618997.300    -2468762.247 7  -1923708.99123        21.250           3.125
  23176247.565     3247181.280 5   2530264.81221        11.250           0.844
  23342072.050    -4945302.555 5  -3596500.54821        11.000           0.594
 91  7 24  0 58 59.9990000  0  5G 3G16G17G20G23
  20410355.698    -1954109.675 7  -1522682.12023        25.000           3.219
  22590318.175     2005360.942 6   1562617.87721        18.750           1.219
  20613690.042    -2496656.493 7  -1945444.74323        22.500           3.063
  23184277.550     3289396.355 5   2563159.57221        10.750           0.781
  23329934.175    -5009091.987 5  -3646206.47021        10.750           0.688
 91  7 24  0 59 14.9990000  0  5G 3G16G17G20G23
  20406305.120    -1975393.315 7  -1539266.77123        25.250           3.281
  22595720.120     2033753.122 6   1584741.63121        19.000           1.219
  20608394.972    -2524476.092 7  -1967122.33623        21.500           3.063
  23192317.456     3331643.683 5   2596079.45221        10.500           0.781
  23317802.597    -5072839.138 5  -3695879.44721        11.250           0.719
 91  7 24  0 59 29.9990000  0  5G 3G16G17G20G23
  20402268.753    -1996600.120 7  -1555791.54723        25.250           3.156
  22601137.948     2062226.980 6   1606929.04321        19.500           1.156
  20603114.987    -2552221.372 7  -1988742.02323        21.500           3.000
  23200362.245     3373922.495 5   2629023.85821        10.500           0.719
  23305681.355    -5136544.014 5  -3745519.47221        11.500           0.656
 91  7 24  0 59 44.9990000  0  5G 3G16G17G20G23
  20398247.519    -2017729.534 7  -1572256.02523        24.750           3.156
  22606573.683     2090782.717 6   1629180.25221        19.500           1.250
  20597851.503    -2579891.900 7  -2010303.45323        22.250           3.094
  23208415.480     3416232.827 5   2661992.84021        10.750           0.719
  23293562.448    -5200205.846 5  -3795125.96221        11.000           0.688
 91  7 24  0 59 59.9990000  0  5G 3G16G17G20G23
  20394243.050    -2038782.406 7  -1588660.85323        24.750           3.156
  22612022.222     2119418.805 6   1651494.07521        18.750           1.219
  20592597.558    -2607489.110 7  -2031807.75323        22.500           2.969
  23216473.073     3458573.377 5   2694985.36021        10.750           0.656
  23281456.823    -5263825.430 5  -3844699.53121        11.250           0.594
 91  7 24  1  0 14.9990000  0  5G 3G16G17G20G23
  20390252.870    -2059753.572 7  -1605002.01923        24.500           3.188
  22617488.440     2148139.995 6   1673874.19521        19.250           1.219
  20587360.519    -2635008.043 7  -2053251.06023        21.750           2.906
  23224533.980     3500948.517 5   2728004.84021        10.750           0.719
  23269357.222    -5327397.860 5  -3894236.35221        11.750           0.688
 91  7 24  1  0 29.9990000  0  5G 3G16G17G20G23
  20386274.651    -2080650.131 7  -1621285.05123        25.000           3.156
  22622968.355     2176938.694 6   1696314.72221        19.500           1.156
  20582139.519    -2662455.793 7  -2074638.90023        21.000           2.875
  23232607.261     3543350.743 5   2761045.43521        11.750           0.625
  23257271.870    -5390929.982 6  -3943741.78821        12.250           0.563
 91  7 24  1  0 44.9990000  0  5G 3G16G17G20G23
  20382312.667    -2101468.153 7  -1637506.88223        24.000           3.063
  22628462.401     2205818.422 6   1718818.39721        19.500           1.094
  20576930.448    -2689828.399 7  -2095968.19723        21.250           2.969
  23240681.683     3585783.525 5   2794109.82121        11.750           0.656
  23245189.425    -5454417.682 6  -3993212.59221        12.500           0.656
 91  7 24  1  0 59.9990000  0  5G 3G16G17G20G23
  20378367.839    -2122206.937 7  -1653666.97523        24.250           3.125
  22633976.136     2234779.298 6   1741385.29921        19.250           1.094
  20571734.050    -2717125.932 7  -2117238.99223        21.750           2.938
  23248758.675     3628246.660 5   2827197.88021        11.250           0.625
  23233118.292    -5517860.348 6  -4042648.30921        13.000           0.688
 91  7 24  1  1 14.9990000  0  5G 3G16G17G20G23
  20374436.839    -2142866.642 7  -1669765.44623        24.750           3.063
  22639500.706     2263820.713 6   1764014.95821        18.500           1.094
  20566556.378    -2744348.735 7  -2138451.54523        22.500           2.938
  23256846.378     3670739.469 5   2860309.04721        11.000           0.594
  23221051.620    -5581258.099 6  -4092049.03621        13.250           0.719
 91  7 24  1  1 29.9990000  0  5G 3G16G17G20G23
  20370518.745    -2163449.269 7  -1685803.85423        25.000           3.063
  22645039.628     2292939.737 6   1786705.08321        17.750           1.156
  20561389.605    -2771498.873 7  -2159607.48123        21.750           3.063
  23264934.526     3713259.542 5   2893441.45121        11.250           0.625
  23208998.144    -5644612.652 6  -4141416.09021        13.750           0.719
 91  7 24  1  1 44.9990000  0  5G 3G16G17G20G23
  20366617.011    -2183953.682 7  -1701781.31923        25.250           3.094
  22650596.323     2322137.303 6   1809456.40821        17.500           1.250
  20556234.011    -2798575.356 7  -2180706.03323        21.500           3.000
  23273036.784     3755807.506 5   2926595.59521        11.500           0.688
  23196949.261    -5707922.965 6  -4190748.68521        14.000           0.688
 91  7 24  1  1 59.9990000  0  5G 3G16G17G20G23
  20362730.886    -2204379.890 7  -1717697.83923        24.750           3.188
  22656168.175     2351412.872 6   1832268.51921        17.750           1.250
  20551097.698    -2825578.493 7  -2201747.42723        22.750           3.125
  23281134.980     3798382.538 5   2959770.82421        11.750           0.563
  23184910.722    -5771189.108 6  -4240046.85621        14.250           0.594
 91  7 24  1  2 14.9990000  0  5G 3G16G17G20G23
  20358860.394    -2224724.775 7  -1733550.99923        24.500           3.063
  22661753.222     2380768.881 6   1855143.31021        18.000           1.219
  20545975.730    -2852505.481 7  -2222729.47623        22.500           3.188
  23289246.394     3840987.416 5   2992969.32021        11.750           0.656
  23172884.331    -5834407.724 6  -4289307.98321        15.000           0.531
 91  7 24  1  2 29.9990000  0  5G 3G16G17G20G23
  20355000.722    -2244992.248 7  -1749343.83323        24.250           3.063
  22667354.706     2410200.873 6   1878077.31721        17.750           1.031
  20540864.034    -2879360.546 7  -2243655.49223        22.500           3.094
  23297356.714     3883617.560 6   3026187.49521        12.000           0.563
  23160861.144    -5897582.685 6  -4338535.09521        15.000           0.688
 91  7 24  1  2 44.9990000  0  5G 3G16G17G20G23
  20351161.636    -2265179.608 7  -1765074.23823        24.500           3.000
  22672970.683     2439711.223 6   1901072.37421        18.000           1.281
  20535767.183    -2906141.341 7  -2264523.63223        22.500           3.156
  23305476.206     3926275.047 6   3059426.97021        12.000           0.469
  23148844.480    -5960711.367 6  -4387726.16321        14.250           0.656
 91  7 24  1  2 59.9990000  0  5G 3G16G17G20G23
  20347335.323    -2285286.165 7  -1780741.67823        24.250           3.156
  22678602.503     2469299.994 6   1924128.54821        18.250           1.156
  20530683.495    -2932847.095 7  -2285333.29423        22.500           3.250
  23313597.698     3968960.028 6   3092687.86921        12.250           0.531
  23136841.362    -6023793.039 6  -4436880.59321        13.750           0.656
 91  7 24  1  3 14.9990000  0  5G 3G16G17G20G23
  20343522.894    -2305312.753 7  -1796346.81123        24.750           3.125
  22684247.737     2498966.080 6   1947244.95721        17.500           1.156
  20525618.433    -2959479.014 7  -2306085.42623        23.250           3.156
  23321723.347     4011671.195 6   3125969.19221        12.000           0.500
  23124846.534    -6086828.034 6  -4485998.63621        13.750           0.563
 91  7 24  1  3 29.9990000  0  5G 3G16G17G20G23
  20339726.605    -2325259.139 7  -1811889.44623        24.250           3.094
  22689906.386     2528708.958 6   1970421.20421        17.250           1.156
  20520564.175    -2986037.222 7  -2326780.12223        23.000           3.219
  23329860.237     4054408.015 6   3159270.48721        12.750           0.500
  23112859.761    -6149816.586 6  -4535080.50921        14.000           0.594
 91  7 24  1  3 44.9990000  0  5G 3G16G17G20G23
  20335948.089    -2345127.172 7  -1827371.03123        24.250           3.125
  22695579.776     2558526.531 6   1993655.65321        17.250           1.125
  20515522.151    -3012523.451 7  -2347418.73423        23.250           3.188
  23337994.487     4097168.291 6   3192590.07021        12.750           0.500
  23100879.464    -6212760.175 6  -4584127.34021        13.750           0.594
 91  7 24  1  3 59.9990000  0  5G 3G16G17G20G23
  20332181.089    -2364915.025 7  -1842790.13423        24.000           3.156
  22701268.730     2588419.676 6   2016948.99521        16.750           1.188
  20510498.511    -3038936.562 7  -2368000.37123        24.000           3.188
  23346138.901     4139952.929 6   3225928.63321        13.000           0.469
  23088912.980    -6275657.246 6  -4633137.91721        14.250           0.563
 91  7 24  1  4 14.9990000  0  5G 3G16G17G20G23
  20328430.440    -2384621.426 7  -1858145.76923        24.250           3.125
  22706976.753     2618389.082 6   2040301.75421        17.250           1.156
  20505486.495    -3065275.281 7  -2388524.03723        23.250           3.156
  23354280.753     4182762.976 6   3259286.99421        12.750           0.406
  23076954.081    -6338506.213 6  -4682111.01921        14.000           0.531
 91  7 24  1  4 29.9990000  0  5G 3G16G17G20G23
  20324696.097    -2404248.135 7  -1873439.30423        24.500           3.156
  22712689.597     2648432.404 6   2063712.12521        16.750           1.125
  20500484.550    -3091541.630 7  -2408991.31223        23.000           3.094
  23362435.526     4225595.951 6   3292663.21421        13.250           0.406
  23065003.370    -6401308.713 6  -4731047.91221        13.500           0.563
 91  7 24  1  4 44.9990000  0  5G 3G16G17G20G23
  20320978.886    -2423792.279 7  -1888668.50023        24.750           3.125
  22718420.190     2678552.332 6   2087182.17421        17.000           1.094
  20495501.808    -3117732.883 7  -2429400.06723        23.500           3.094
  23370591.651     4268454.374 6   3326059.28321        12.750           0.438
  23053059.183    -6464061.827 6  -4779946.31121        13.000           0.594
 91  7 24  1  4 59.9990000  0  5G 3G16G17G20G23
  20317272.292    -2443255.437 7  -1903834.58923        23.750           3.031
  22724168.276     2708746.645 6   2110710.19821        17.500           1.156
  20490535.167    -3143851.099 7  -2449751.90923        24.000           3.125
  23378748.620     4311335.855 6   3359473.29621        12.250           0.406
  23041127.105    -6526767.255 6  -4828807.56721        13.250           0.594
 91  7 24  1  5 14.9990000  0  5G 3G16G17G20G23
  20313586.487    -2462634.080 7  -1918934.82923        24.000           3.094
  22729929.894     2739018.444 6   2134298.60121        17.500           1.094
  20485576.042    -3169892.858 7  -2470044.18223        24.000           3.094
  23386911.870     4354243.343 6   3392907.58021        12.250           0.500
  23029205.003    -6589421.445 6  -4877628.88221        13.250           0.688
 91  7 24  1  5 29.9990000  0  5G 3G16G17G20G23
  20309914.651    -2481931.224 7  -1933971.55623        23.750           3.094
  22735700.730     2769364.119 6   2157944.56121        16.750           1.219
  20480636.612    -3195861.419 7  -2490279.41123        23.750           3.219
  23395082.690     4397173.142 6   3426359.25221        12.250           0.469
  23017290.440    -6652027.418 6  -4926412.63821        13.250           0.688
 91  7 24  1  5 44.9990000  0  5G 3G16G17G20G23
  20306255.956    -2501145.507 7  -1948943.71423        23.750           3.000
  22741489.245     2799784.582 6   2181648.78821        16.750           1.219
  20475706.605    -3221755.746 7  -2510456.79123        23.250           3.250
  23403256.167     4440126.250 6   3459829.09121        12.250           0.500
  23005384.190    -6714583.400 6  -4975157.44721        13.000           0.656
 91  7 24  1  5 59.9990000  0  5G 3G16G17G20G23
  20302619.120    -2520276.166 7  -1963850.71423        24.250           3.063
  22747293.550     2830280.107 6   2205411.51921        16.750           1.219
  20470792.776    -3247575.248 7  -2530575.87623        24.000           3.250
  23411435.792     4483102.878 6   3493317.23621        12.000           0.531
  22993490.339    -6777088.749 6  -5023862.79121        12.000           0.625
 91  7 24  1  6 14.9990000  0  5G 3G16G17G20G23
  20298993.901    -2539325.940 7  -1978694.68423        23.750           2.969
  22753109.401     2860847.192 6   2229230.00521        16.250           1.188
  20465896.995    -3273322.918 7  -2550638.97823        25.250           3.156
  23419620.698     4526099.529 6   3526820.99521        12.250           0.531
  22981606.620    -6839546.335 6  -5072530.91421        12.000           0.656
 91  7 24  1  6 29.9990000  0  5G 3G16G17G20G23
  20295383.901    -2558287.066 7  -1993469.57723        24.500           2.938
  22758943.487     2891493.329 6   2253110.08521        16.500           1.156
  20461010.753    -3298991.134 7  -2570640.16523        24.000           3.250
  23427808.589     4569123.733 6   3560346.20121        12.500           0.594
  22969736.019    -6901948.075 6  -5121155.53121        12.250           0.719
 91  7 24  1  6 44.9990000  0  5G 3G16G17G20G23
  20291793.112    -2577166.130 7  -2008180.52923        24.500           2.938
  22764786.940     2922211.287 6   2277046.13721        16.500           1.094
  20456138.698    -3324586.877 7  -2590584.89023        24.250           3.344
  23435998.198     4612168.153 6   3593887.17421        12.500           0.500
  22957865.433    -6964300.495 6  -5169741.69721        12.000           0.625
 91  7 24  1  6 59.9990000  0  5G 3G16G17G20G23
  20288215.456    -2595960.468 7  -2022825.46623        24.250           2.906
  22770645.808     2953002.933 6   2301039.61021        16.250           1.219
  20451283.597    -3350107.725 7  -2610471.25823        25.000           3.313
  23444195.019     4655234.728 6   3627445.42221        12.750           0.563
  22946009.214    -7026601.092 5  -5218287.51421        11.250           0.750
 91  7 24  1  7 14.9990000  0  5G 3G16G17G20G23
  20284654.589    -2614670.596 7  -2037404.77123        24.000           3.000
  22776521.675     2983867.436 6   2325089.84721        16.000           1.188
  20446441.933    -3375554.487 7  -2630299.88423        25.250           3.375
  23452394.089     4698322.578 6   3661020.23921        12.750           0.500
  22934163.448    -7088850.231 5  -5266793.22821        11.000           0.719
 91  7 24  1  7 29.9990000  0  5G 3G16G17G20G23
  20281111.433    -2633297.379 7  -2051919.13923        24.000           2.969
  22782408.245     3014803.544 6   2349195.87821        15.750           1.094
  20441611.565    -3400928.028 7  -2650071.45423        24.750           3.406
  23460596.105     4741430.227 6   3694610.48021        12.250           0.500
  22922326.011    -7151048.662 5  -5315259.42521        11.500           0.750
 91  7 24  1  7 44.9990000  0  5G 3G16G17G20G23
  20277580.761    -2651838.280 7  -2066366.58523        24.000           2.969
  22788311.526     3045813.297 6   2373359.30121        16.000           1.063
  20436798.589    -3426226.097 7  -2669784.22623        24.750           3.344
  23468802.190     4784559.643 6   3728217.68021        12.750           0.563
  22910501.698    -7213193.797 5  -5363684.10021        11.750           0.656
 91  7 24  1  7 59.9990000  0  5G 3G16G17G20G23
  20274070.058    -2670296.300 7  -2080749.45423        23.750           2.969
  22794223.636     3076893.237 6   2397577.41821        16.000           1.000
  20431997.495    -3451452.130 7  -2689440.85923        24.750           3.344
  23477013.683     4827707.179 6   3761838.99721        12.500           0.500
  22898684.651    -7275288.686 6  -5412069.63021        12.000           0.563
 91  7 24  1  8 14.9990000  0  5G 3G16G17G20G23
  20270574.730    -2688668.089 7  -2095065.12523        24.500           3.031
  22800152.417     3108045.857 6   2421852.17321        16.250           1.063
  20427211.862    -3476602.765 7  -2709038.73923        24.750           3.344
  23485224.612     4870875.846 5   3795476.78121        11.750           0.469
  22886880.222    -7337329.887 5  -5460413.31221        11.750           0.750
 91  7 24  1  8 29.9990000  0  5G 3G16G17G20G23
  20267091.909    -2706952.153 7  -2109312.44323        23.500           2.969
  22806091.855     3139272.120 6   2446184.29721        15.750           1.031
  20422440.745    -3501676.994 7  -2728577.08723        24.750           3.375
  23493448.261     4914066.275 5   3829131.53621        11.750           0.500
  22875084.675    -7399315.902 6  -5508714.00621        12.000           0.688
 91  7 24  1  8 44.9990000  0  5G 3G16G17G20G23
  20263631.261    -2725152.896 7  -2123494.83423        24.250           3.000
  22812048.769     3170567.207 6   2470570.05921        16.000           1.031
  20417681.644    -3526679.409 7  -2748059.47024        25.250           3.500
  23501672.284     4957273.675 5   3862799.50521        10.750           0.531
  22863297.909    -7461250.975 5  -5556974.99721        11.750           0.719
 91  7 24  1  8 59.9990000  0  5G 3G16G17G20G23
  20260182.362    -2743268.544 7  -2137610.90923        24.000           2.875
  22818019.870     3201932.333 6   2495010.38521        16.250           1.000
  20412941.237    -3551608.674 7  -2767484.85924        25.500           3.500
  23509896.706     5000498.945 5   3896481.39321        10.250           0.406
  22851525.862    -7523133.506 5  -5605195.04021        11.750           0.813
 91  7 24  1  9 14.9990000  0  5G 3G16G17G20G23
  20256753.933    -2761295.967 7  -2151658.24523        24.250           2.875
  22824001.159     3233370.210 6   2519507.41521        16.500           0.938
  20408206.940    -3576461.638 7  -2786850.79323        25.750           3.469
  23518120.714     5043744.972 5   3930179.45021         9.000           0.469
  22839753.769    -7584959.903 6  -5653371.34621        12.000           0.875
 91  7 24  1  9 29.9990000  0  5G 3G16G17G20G23
  20253338.737    -2779236.557 7  -2165637.91823        24.000           2.719
  22829998.378     3264878.862 6   2544059.58321        16.500           1.031
  20403497.526    -3601239.954 7  -2806158.55123        26.250           3.281
  23526355.948     5087009.788 5   3963892.15621         8.750           0.469
  22828003.839    -7646731.754 6  -5701505.14021        12.250           0.750
 91  7 24  1  9 44.9990000  0  5G 3G16G17G20G23
  20249941.355    -2797092.277 7  -2179551.45923        23.500           3.000
  22836006.542     3296455.861 6   2568665.01221        16.500           0.875
  20398792.042    -3625945.814 7  -2825409.85024        25.750           3.500
  23534589.417     5130290.742 5   3997617.43921         8.750           0.469
  22816259.394    -7708450.907 6  -5749597.88521        13.000           0.813
 91  7 24  1  9 59.9990000  0  5G 3G16G17G20G23
  20246559.831    -2814858.480 7  -2193395.25223        23.750           2.938
  22842028.737     3328105.514 6   2593327.06421        16.000           0.969
  20394106.917    -3650574.814 7  -2844601.26223        25.750           3.438
  23542831.151     5173592.063 5   4031358.59621         8.250           0.344
  22804522.526    -7770112.687 6  -5797645.91921        12.250           0.938
 91  7 24  1 10 14.9990000  0  5G 3G16G17G20G23
  20243193.855    -2832537.206 7  -2207170.87523        23.250           2.906
  22848063.565     3359824.790 6   2618043.35721        15.500           0.906
  20389434.823    -3675129.359 7  -2863734.66224        26.500           3.563
  23551066.823     5216910.963 5   4065113.42521         8.000           0.375
  22792801.644    -7831719.210 6  -5845650.89621        12.750           0.844
 91  7 24  1 10 29.9990000  0  5G 3G16G17G20G23
  20239848.526    -2850129.531 7  -2220879.17323        23.500           3.000
  22854112.284     3391612.558 6   2642813.02821        15.000           0.906
  20384775.026    -3699610.452 7  -2882810.81124        26.500           3.563
  23559317.558     5260245.950 5   4098880.81121         8.250           0.469
  22781088.534    -7893271.270 6  -5893613.42021        13.250           0.969
 91  7 24  1 10 44.9990000  0  5G 3G16G17G20G23
  20236517.120    -2867633.194 7  -2234518.38923        23.750           2.969
  22860175.745     3423470.283 6   2667637.20421        14.750           0.969
  20380131.144    -3724016.406 7  -2901828.42024        26.000           3.563
  23567572.800     5303598.723 5   4132662.05721         8.750           0.344
  22769386.503    -7954766.836 6  -5941531.94121        13.750           0.781
 91  7 24  1 10 59.9990000  0  5G 3G16G17G20G23
  20233205.081    -2885048.155 7  -2248088.47423        24.500           2.938
  22866252.808     3455397.496 6   2692515.52621        15.000           1.031
  20375500.026    -3748347.554 7  -2920787.74624        26.250           3.594
  23575824.503     5346968.582 5   4166456.61621         8.500           0.375
  22757695.097    -8016205.730 6  -5989406.29721        14.250           0.875
 91  7 24  1 11 14.9990000  0  5G 3G16G17G20G23
  20229905.159    -2902374.669 7  -2261589.64723        23.500           2.906
  22872339.065     3487393.383 6   2717447.36221        14.250           0.969
  20370885.831    -3772604.294 7  -2939689.08024        26.750           3.594
  23584085.284     5390354.933 5   4200264.03721         9.000           0.375
  22746012.808    -8077587.892 6  -6037236.43821        14.500           0.781
 91  7 24  1 11 29.9990000  0  5G 3G16G17G20G23
  20226625.558    -2919612.358 7  -2275021.60923        23.250           2.875
  22878440.753     3519457.637 6   2742432.47521        15.250           0.938
  20366282.698    -3796786.348 7  -2958532.21724        26.250           3.594
  23592340.370     5433757.416 5   4234084.01221         9.000           0.344
  22734342.198    -8138913.106 6  -6085022.22421        14.750           0.875
 91  7 24  1 11 44.9990000  0  5G 3G16G17G20G23
  20223363.339    -2936758.690 7  -2288382.38423        23.250           2.875
  22884557.605     3551592.501 6   2767472.61721        15.500           0.906
  20361695.839    -3820891.592 7  -2977315.51424        25.750           3.594
  23600609.300     5477178.057 5   4267918.14121         9.250           0.406
  22722684.675    -8200178.765 6  -6132761.59221        15.750           0.906
 91  7 24  1 11 59.9990000  0  5G 3G16G17G20G23
  20220116.706    -2953819.960 7  -2301676.88123        23.250           2.906
  22890684.651     3583791.206 6   2792562.49421        15.250           0.938
  20357121.448    -3844926.528 7  -2996044.01624        26.250           3.563
  23608866.886     5520610.011 5   4301761.07921         8.500           0.469
  22711036.972    -8261391.140 6  -6180459.44321        16.000           1.000
 91  7 24  1 12 14.9990000  0  5G 3G16G17G20G23
  20216887.667    -2970789.337 7  -2314899.76823        23.500           2.969
  22896823.472     3616060.171 6   2817707.11621        15.000           0.875
  20352563.237    -3868884.121 7  -3014712.25324        26.000           3.594
  23617135.589     5564059.603 5   4335617.76321         8.000           0.375
  22699400.995    -8322543.253 6  -6228110.32621        15.750           0.969
 91  7 24  1 12 29.9990000  0  5G 3G16G17G20G23
  20213674.745    -2987669.559 7  -2328053.18423        23.500           2.906
  22902976.690     3648395.888 6   2842903.75921        15.000           0.906
  20348018.698    -3892767.454 7  -3033322.62524        26.500           3.625
  23625406.276     5607523.523 5   4369485.60421         8.000           0.344
  22687773.690    -8383637.732 6  -6275716.30421        15.750           1.063
 91  7 24  1 12 44.9990000  0  5G 3G16G17G20G23
  20210482.972    -3004455.672 7  -2341133.27123        24.000           2.875
  22909144.456     3680802.822 6   2868155.89521        15.000           0.906
  20343488.519    -3916572.266 7  -3051871.81624        26.750           3.813
  23633683.565     5651006.120 5   4403368.00421         7.750           0.344
  22676158.706    -8444669.926 6  -6323273.75521        16.000           0.969
 91  7 24  1 12 59.9990000  0  5G 3G16G17G20G23
  20207303.589    -3021151.298 7  -2354142.84623        24.000           2.844
  22915323.167     3713276.840 6   2893460.30721        15.250           0.969
  20338973.956    -3940302.342 7  -3070362.75824        26.250           3.719
  23641960.433     5694503.132 5   4437261.62921         8.500           0.406
  22664555.823    -8505643.270 6  -6370785.35121        16.000           0.906
 91  7 24  1 13 14.9990000  0  5G 3G16G17G20G23
  20204144.308    -3037760.672 7  -2367085.21223        23.500           2.844
  22921515.870     3745813.366 6   2918813.42321        15.500           0.875
  20334468.370    -3963962.138 7  -3088798.94624        26.000           3.844
  23650239.300     5738009.899 5   4471162.88221         8.500           0.313
  22652963.870    -8566561.628 6  -6418254.10021        16.750           0.906
 91  7 24  1 13 29.9990000  0  5G 3G16G17G20G23
  20201000.347    -3054275.634 7  -2379954.01323        23.750           2.813
  22927720.558     3778419.782 6   2944221.00321        15.500           0.906
  20329983.706    -3987543.541 7  -3107174.04924        25.500           3.719
  23658519.706     5781534.050 5   4505077.67221         8.250           0.313
  22641387.339    -8627417.003 6  -6465673.76621        17.250           1.063
 91  7 24  1 13 44.9990000  0  5G 3G16G17G20G23
  20197874.050    -3070700.866 7  -2392752.89023        23.000           2.844
  22933936.698     3811091.294 6   2969679.30321        15.750           0.781
  20325508.097    -4011051.435 7  -3125491.87924        26.000           3.750
  23666807.847     5825070.308 5   4539001.88221         8.250           0.375
  22629814.612    -8688214.222 6  -6513048.12021        17.000           0.938
 91  7 24  1 13 59.9990000  0  5G 3G16G17G20G23
  20194767.823    -3087037.785 7  -2405482.95623        23.250           2.875
  22940165.667     3843825.388 6   2995186.37921        15.000           0.813
  20321048.378    -4034487.961 7  -3143754.08924        26.250           3.781
  23675091.347     5868616.402 5   4572933.76421         7.750           0.281
  22618255.480    -8748954.689 6  -6560378.25321        16.750           1.000
 91  7 24  1 14 14.9990000  0  5G 3G16G17G20G23
  20191674.651    -3103283.100 7  -2418141.64023        23.750           3.000
  22946411.198     3876625.123 6   3020744.59621        15.000           0.813
  20316604.862    -4057849.688 7  -3161958.01124        26.250           3.750
  23683383.940     5912175.550 5   4606875.80521         8.000           0.344
  22606708.183    -8809634.652 6  -6607661.24321        16.250           0.969
 91  7 24  1 14 29.9990000  0  5G 3G16G17G20G23
  20188601.823    -3119438.383 7  -2430730.16823        23.000           2.844
  22952659.847     3909488.420 6   3046352.35121        13.750           0.656
  20312171.448    -4081138.480 7  -3180105.10524        27.000           3.656
  23691675.675     5955745.484 5   4640826.24521         8.500           0.344
  22595172.745    -8870255.676 6  -6654898.30421        16.500           1.094
 91  7 24  1 14 44.9990000  0  5G 3G16G17G20G23
  20185544.097    -3135500.813 7  -2443246.34323        23.250           2.906
  22958928.261     3942417.504 6   3072011.35721        13.750           0.813
  20307755.214    -4104351.945 7  -3198193.50924        26.750           3.625
  23699967.198     5999328.039 5   4674786.51821         8.500           0.375
  22583650.222    -8930815.314 6  -6702087.53121        16.500           0.969
 91  7 24  1 14 59.9990000  0  5G 3G16G17G20G23
  20182503.886    -3151471.634 7  -2455691.13523        23.500           3.063
  22965206.456     3975410.704 6   3097720.33021        14.250           0.781
  20303352.690    -4127491.109 7  -3216224.01524        26.250           3.750
  23708260.183     6042921.754 5   4708755.49521         8.500           0.344
  22572133.769    -8991314.309 6  -6749229.51121        15.750           1.031
 91  7 24  1 15 14.9990000  0  5G 3G16G17G20G23
  20179485.933    -3167345.452 7  -2468060.34423        23.000           3.031
  22971497.753     4008473.088 6   3123483.20721        14.250           0.938
  20298962.261    -4150550.960 7  -3234192.71724        26.750           3.656
  23716562.456     6086531.633 5   4742737.05921         9.250           0.531
  22560637.745    -9051747.367 6  -6796320.11321        16.250           0.906
 91  7 24  1 15 29.9990000  0  5G 3G16G17G20G23
  20176478.956    -3183131.937 7  -2480361.49923        22.500           2.938
  22977799.565     4041594.177 6   3149291.81821        13.750           0.938
  20294589.909    -4173541.725 7  -3252107.58024        27.500           3.688
  23724862.651     6130147.385 5   4776723.21821         9.250           0.313
  22549144.456    -9112124.239 6  -6843366.93121        16.000           1.031
 91  7 24  1 15 44.9990000  0  5G 3G16G17G20G23
  20173493.198    -3198824.797 7  -2492589.69923        23.000           2.969
  22984113.448     4074779.596 6   3175150.56621        14.250           1.031
  20290229.128    -4196457.414 7  -3269963.94524        26.750           3.781
  23733165.542     6173774.682 5   4810718.35321         9.500           0.375
  22537666.815    -9172438.690 6  -6890365.11221        16.000           0.969
 91  7 24  1 15 59.9990000  0  5G 3G16G17G20G23
  20170525.378    -3214428.092 7  -2504748.10523        23.500           2.938
  22990442.112     4108025.016 6   3201056.06621        13.750           0.938
  20285880.065    -4219301.962 7  -3287764.88324        27.250           3.750
  23741472.362     6217408.957 5   4844718.93221        10.000           0.344
  22526198.839    -9232694.305 6  -6937317.45521        15.500           0.969
 91  7 24  1 16 14.9990000  0  5G 3G16G17G20G23
  20167572.144    -3229939.772 7  -2516835.13023        22.750           2.969
  22996781.362     4141331.670 6   3227009.28521        14.750           0.781
  20281547.081    -4242073.525 7  -3305508.94124        27.000           3.594
  23749771.534     6261051.475 5   4878725.94321         9.750           0.344
  22514747.987    -9292889.313 6  -6984222.55721        16.250           1.125
 91  7 24  1 16 29.9990000  0  5G 3G16G17G20G23
  20164638.730    -3245354.136 7  -2528846.31123        23.500           3.000
  23003132.995     4174705.178 6   3253014.59621        15.000           0.875
  20277229.112    -4264766.572 7  -3323191.81824        26.500           3.656
  23758081.042     6304707.569 5   4912743.52121         9.750           0.375
  22503304.683    -9353017.863 6  -7031075.88021        15.750           1.125
 91  7 24  1 16 44.9990000  0  5G 3G16G17G20G23
  20161724.237    -3260674.237 7  -2540784.04923        23.500           3.000
  23009496.644     4208141.772 6   3279069.07721        15.000           0.813
  20272925.839    -4287384.690 7  -3340816.31424        26.500           3.656
  23766390.737     6348373.742 5   4946768.96821        10.250           0.438
  22491874.230    -9413082.831 6  -7077879.65121        16.000           1.156
 91  7 24  1 16 59.9990000  0  5G 3G16G17G20G23
  20158827.737    -3275904.473 7  -2552651.75523        23.250           2.938
  23015871.222     4241636.669 6   3305168.97621        14.250           0.813
  20268634.128    -4309932.497 7  -3358386.01824        26.500           3.688
  23774703.894     6392044.799 5   4980798.19321        10.500           0.344
  22480457.800    -9473088.754 6  -7124637.42321        15.750           1.125
 91  7 24  1 17 14.9990000  0  5G 3G16G17G20G23
  20155947.206    -3291036.580 7  -2564442.99723        23.500           2.906
  23022254.628     4275197.809 6   3331320.50021        13.750           0.719
  20264357.323    -4332401.584 7  -3375894.38824        26.500           3.656
  23783015.222     6435728.657 5   5014837.41321        10.500           0.313
  22469052.831    -9533027.177 6  -7171342.60221        16.000           1.063
 91  7 24  1 17 29.9990000  0  5G 3G16G17G20G23
  20153083.386    -3306077.767 7  -2576163.40523        23.250           2.875
  23028648.815     4308816.769 6   3357517.08321        13.000           0.688
  20260097.823    -4354800.039 7  -3393347.71324        27.000           3.750
  23791326.573     6479417.322 5   5048880.36021        10.250           0.313
  22457656.878    -9592905.615 6  -7218001.04021        15.750           1.219
 91  7 24  1 17 44.9990000  0  5G 3G16G17G20G23
  20150238.261    -3321027.455 7  -2587812.50723        23.750           2.844
  23035058.659     4342494.206 6   3383759.21421        13.750           0.719
  20255848.784    -4377127.235 7  -3410745.51424        26.250           3.563
  23799643.503     6523111.110 5   5082927.32121        10.250           0.375
  22446272.503    -9652723.086 6  -7264611.97521        14.750           1.031
 91  7 24  1 17 59.9990000  0  5G 3G16G17G20G23
  20147413.933    -3335881.482 7  -2599387.05723        24.000           2.813
  23041480.730     4376233.568 6   3410049.62621        13.750           0.875
  20251614.034    -4399379.361 7  -3428084.82124        26.500           3.625
  23807958.980     6566813.523 5   5116980.99321        10.250           0.406
  22434903.987    -9712475.348 6  -7311172.10121        14.750           1.031
 91  7 24  1 18 14.9990000  0  5G 3G16G17G20G23
  20144606.347    -3350641.419 7  -2610888.29823        23.750           2.875
  23047913.401     4410032.689 6   3436386.58321        14.000           0.938
  20247392.651    -4421558.091 7  -3445366.93424        26.750           3.688
  23816275.144     6610522.371 5   5151039.68121        10.250           0.344
  22423543.933    -9772164.177 6  -7357682.79621        14.250           1.031
 91  7 24  1 18 29.9990000  0  5G 3G16G17G20G23
  20141813.800    -3365307.967 7  -2622316.77523        23.750           2.813
  23054356.300     4443890.688 6   3462769.40821        14.000           0.906
  20243184.362    -4443664.328 7  -3462592.55924        26.250           3.656
  23824592.620     6654236.464 5   5185102.44221         9.750           0.375
  22412197.300    -9831790.064 6  -7404144.43821        14.250           1.000
 91  7 24  1 18 44.9990000  0  5G 3G16G17G20G23
  20139040.144    -3379878.066 7  -2633670.09223        23.500           2.875
  23060811.206     4477810.119 6   3489200.12221        13.750           0.906
  20238993.972    -4465695.305 7  -3479759.54124        26.750           3.781
  23832916.675     6697958.341 5   5219171.26921        10.500           0.344
  22400866.214    -9891349.873 6  -7450554.60121        14.250           0.906
 91  7 24  1 18 59.9990000  0  5G 3G16G17G20G23
  20136284.058    -3394354.265 7  -2644950.24423        23.500           2.875
  23067276.526     4511787.666 6   3515676.10821        14.250           1.000
  20234816.120    -4487653.870 7  -3496870.09924        27.250           3.688
  23841234.995     6741684.686 5   5253243.59821        10.250           0.281
  22389540.683    -9950846.279 6  -7496915.35621        13.750           0.938
 91  7 24  1 19 14.9990000  0  5G 3G16G17G20G23
  20133546.714    -3408737.026 7  -2656157.58423        23.500           2.813
  23073750.706     4545822.107 6   3542196.43421        13.500           0.875
  20230651.105    -4509540.557 7  -3513924.64824        27.000           3.781
  23849556.190     6785414.737 5   5287318.80421        10.000           0.406
  22378232.995   -10010279.557 6  -7543226.92521        14.000           0.938
 91  7 24  1 19 29.9990000  0  5G 3G16G17G20G23
  20130829.519    -3423019.971 7  -2667287.14623        23.500           2.969
  23080239.964     4579919.365 6   3568765.71321        14.000           0.844
  20226499.503    -4531349.342 7  -3530918.49124        26.750           3.688
  23857877.011     6829154.239 5   5321401.35121        10.000           0.344
  22366934.198   -10069643.370 6  -7589484.36621        13.750           0.938
 91  7 24  1 19 44.9990000  0  5G 3G16G17G20G23
  20128130.128    -3437204.192 7  -2678339.77423        23.000           2.875
  23086742.659     4614078.096 6   3595382.89021        13.750           0.844
  20222363.839    -4553081.486 7  -3547852.61624        26.750           3.625
  23866202.183     6872901.633 5   5355490.07221         9.750           0.250
  22355653.269   -10128938.567 6  -7635688.34321        14.000           1.094
 91  7 24  1 19 59.9990000  0  5G 3G16G17G20G23
  20125452.097    -3451291.322 7  -2689316.75823        24.000           2.844
  23093253.370     4648296.407 6   3622046.48421        14.000           0.813
  20218241.128    -4574738.798 7  -3564728.43324        26.000           3.719
  23874532.042     6916654.868 5   5389583.35721        10.000           0.281
  22344380.612   -10188166.663 6  -7681840.02921        13.500           1.156
 91  7 24  1 20 14.9990000  0  5G 3G16G17G20G23
  20122791.933    -3465280.210 7  -2700217.17923        24.000           2.875
  23099775.870     4682574.346 6   3648756.55021        13.750           0.781
  20214136.401    -4596320.655 7  -3581545.45324        26.750           3.625
  23882861.667     6960414.180 5   5423681.34221         9.500           0.344
  22333124.542   -10247326.853 6  -7727938.79321        13.500           1.281
 91  7 24  1 20 29.9990000  0  5G 3G16G17G20G23
  20120146.886    -3479174.604 7  -2711043.97723        23.750           2.813
  23106308.823     4716908.099 6   3675510.10621        13.500           0.813
  20210043.214    -4617830.911 7  -3598306.67924        27.000           3.594
  23891186.472     7004175.382 5   5457780.83321         9.250           0.313
  22321878.417   -10306422.642 6  -7773987.38021        13.500           1.250
 91  7 24  1 20 44.9990000  0  5G 3G16G17G20G23
  20117519.526    -3492971.652 7  -2721794.92123        23.500           2.844
  23112853.112     4751300.059 6   3702309.00221        13.750           0.844
  20205962.761    -4639266.779 7  -3615009.94324        27.000           3.563
  23899515.167     7047941.140 5   5491883.87421         9.000           0.344
  22310644.034   -10365451.087 6  -7819983.49121        13.250           1.281
 91  7 24  1 20 59.9990000  0  5G 3G16G17G20G23
  20114913.581    -3506673.943 7  -2732472.02423        23.500           2.813
  23119410.183     4785746.974 6   3729150.73621        14.000           0.813
  20201898.558    -4660631.125 7  -3631657.47223        27.250           3.469
  23907846.972     7091708.191 5   5525987.86621         8.500           0.250
  22299422.831   -10424414.890 6  -7865929.22721        13.750           1.250
 91  7 24  1 21 14.9990000  0  5G 3G16G17G20G23
  20112322.667    -3520277.777 7  -2743072.41323        23.250           2.813
  23125975.292     4820252.064 6   3756037.79921        14.500           0.813
  20197845.581    -4681920.554 7  -3648246.62623        26.250           3.438
  23916178.597     7135479.597 5   5560095.31021         8.500           0.219
  22288216.823   -10483310.338 6  -7911821.70321        14.000           1.094
 91  7 24  1 21 29.9990000  0  5G 3G16G17G20G23
  20109753.401    -3533782.978 7  -2753595.94223        23.000           2.719
  23132554.628     4854814.509 6   3782969.54721        15.000           0.875
  20193808.839    -4703135.187 7  -3664777.49923        26.000           3.406
  23924507.058     7179254.607 5   5594205.51821         8.750           0.281
  22277023.526   -10542137.197 6  -7957660.74121        14.500           1.188
 91  7 24  1 21 44.9990000  0  5G 3G16G17G20G23
  20107203.714    -3547191.630 7  -2764044.23923        23.750           2.844
  23139140.206     4889432.465 6   3809944.55721        14.500           0.781
  20189785.800    -4724277.121 7  -3681251.72423        26.000           3.438
  23932839.183     7223031.195 5   5628316.97021         8.750           0.219
  22265840.667   -10600897.251 6  -8003447.71721        15.000           1.125
 91  7 24  1 21 59.9990000  0  5G 3G16G17G20G23
  20104671.487    -3560497.126 7  -2774412.16123        23.750           2.938
  23145737.511     4924111.593 6   3836967.23321        14.000           0.813
  20185778.370    -4745340.373 7  -3697664.63324        26.500           3.594
  23941163.675     7266815.006 5   5662434.04921         8.250           0.313
  22254670.956   -10659584.007 6  -8049177.58121        15.000           1.188
 91  7 24  1 22 14.9990000  0  5G 3G16G17G20G23
  20102156.987    -3573704.948 7  -2784703.96423        23.250           2.781
  23152351.050     4958846.075 6   3864033.02921        14.750           0.813
  20181784.347    -4766330.166 7  -3714020.30423        26.250           3.438
  23949502.089     7310600.295 5   5696552.30221         8.000           0.281
  22243513.917   -10718202.683 6  -8094854.38621        15.250           1.125
 91  7 24  1 22 29.9990000  0  5G 3G16G17G20G23
  20099662.628    -3586814.122 7  -2794918.90723        23.500           2.875
  23158971.831     4993636.301 6   3891142.28321        14.750           0.844
  20177803.495    -4787246.277 7  -3730318.56223        26.250           3.406
  23957826.558     7354387.316 4   5730671.86821         7.000           0.281
  22232376.003   -10776752.562 6  -8140477.59821        16.250           1.188
 91  7 24  1 22 44.9990000  0  5G 3G16G17G20G23
  20097186.386    -3599823.691 7  -2805056.23023        23.000           3.000
  23165601.144     5028482.746 6   3918295.33121        14.500           0.625
  20173838.620    -4808087.879 7  -3746558.75823        26.000           3.375
  23966165.862     7398176.646 4   5764793.26221         7.250           0.344
  22221249.526   -10835232.310 6  -8186046.15421        17.000           1.094
 91  7 24  1 22 59.9990000  0  5G 3G16G17G20G23
  20094729.058    -3612732.714 7  -2815115.20723        23.500           2.969
  23172241.472     5063385.793 6   3945492.48421        14.000           0.750
  20169886.472    -4828854.112 7  -3762740.22423        26.250           3.406
  23974493.730     7441968.723 4   5798916.78721         7.000           0.250
  22210132.511   -10893641.239 6  -8231559.52921        16.750           1.219
 91  7 24  1 23 14.9990000  0  4G 3G16G17G23
  20092291.581    -3625541.946 7  -2825096.43023        24.000           3.094
  23178895.831     5098344.096 6   3972732.69521        13.750           0.688
  20165950.401    -4849545.721 7  -3778863.54523        26.000           3.344
  22199029.144   -10951979.832 6  -8277018.09421        16.750           1.125
 91  7 24  1 23 29.9990000  0  4G 3G16G17G23
  20089872.972    -3638250.835 7  -2834999.45223        23.500           2.906
  23185552.972     5133358.101 6   4000016.30921        12.500           0.813
  20162025.839    -4870162.480 7  -3794928.53523        25.500           3.250
  22187942.667   -11010247.496 6  -8322421.39621        17.500           1.250
 91  7 24  1 23 44.9990000  0  4G 3G16G17G23
  20087472.542    -3650862.566 7  -2844826.77923        23.250           2.906
  23192228.370     5168423.382 6   4027339.86521        12.250           0.688
  20158116.636    -4890708.391 7  -3810938.32823        26.250           3.344
  22176869.761   -11068447.697 6  -8367772.13021        18.000           1.219
 91  7 24  1 23 59.9990000  0  4G 3G16G17G23
  20085093.933    -3663374.141 7  -2854576.05723        23.000           2.906
  23198914.644     5203542.907 6   4054705.69221        13.000           0.688
  20154220.245    -4911180.344 7  -3826890.48823        26.000           3.188
  22165808.175   -11126577.144 6  -8413067.72721        18.500           1.250
 91  7 24  1 24 14.9990000  0  4G 3G16G17G23
  20082730.605    -3675787.761 7  -2864249.01523        22.750           2.844
  23205607.042     5238714.224 6   4082111.88821        13.250           0.656
  20150338.081    -4931580.574 7  -3842786.76123        26.500           3.313
  22154758.612   -11184638.064 6  -8458309.93021        18.750           1.375
 91  7 24  1 24 29.9990000  0  4G 3G16G17G23
  20080387.855    -3688100.777 7  -2873843.57523        23.250           2.875
  23212310.800     5273939.712 6   4109560.31021        14.000           0.563
  20146469.628    -4951906.639 7  -3858625.24123        25.500           3.250
  22143727.136   -11242627.599 6  -8503496.50821        19.250           1.375
 91  7 24  1 24 44.9990000  0  4G 3G16G17G23
  20078062.480    -3700314.832 7  -2883361.02023        23.250           2.906
  23219020.542     5309216.748 6   4137048.88921        13.500           0.719
  20142616.714    -4972160.433 7  -3874407.40823        25.250           3.219
  22132703.464   -11300547.345 6  -8548628.70621        19.500           1.313
 91  7 24  1 24 59.9990000  0  4G 3G16G17G23
  20075759.136    -3712426.026 7  -2892798.31623        24.000           2.906
  23225744.542     5344548.423 6   4164580.03621        13.000           0.531
  20138775.870    -4992338.631 7  -3890130.66423        25.500           3.250
  22121693.870   -11358393.910 6  -8593703.87921        19.250           1.406
 91  7 24  1 25 14.9980000  0  4G 3G16G17G23
  20073474.662    -3724440.123 7  -2902159.95923        23.500           2.875
  23232479.123     5379925.875 6   4192146.85921        13.000           0.625
  20134949.959    -5012446.210 7  -3905798.90223        25.750           3.188
  22110698.506   -11416169.362 6  -8638723.64221        19.000           1.375
 91  7 24  1 25 29.9980000  0  4G 3G16G17G23
  20071204.443    -3736357.265 7  -2911446.03923        23.000           2.875
  23239222.272     5415354.637 6   4219753.64421        13.750           0.688
  20131138.287    -5032484.867 7  -3921413.42523        26.000           3.125
  22099717.443   -11473880.238 6  -8683693.08621        19.000           1.313
 91  7 24  1 25 44.9980000  0  4G 3G16G17G23
  20068954.639    -3748173.405 7  -2920653.42523        23.000           2.969
  23245970.006     5450834.913 6   4247400.58321        13.250           0.656
  20127338.123    -5052450.261 7  -3936970.86323        25.250           3.219
  22088748.490   -11531519.329 6  -8728606.59621        19.500           1.313
 91  7 24  1 25 59.9980000  0  4G 3G16G17G23
  20066727.982    -3759886.141 7  -2929780.23923        23.250           2.844
  23252732.787     5486368.961 6   4275089.40921        12.500           0.844
  20123551.732    -5072340.103 7  -3952469.43523        25.750           3.313
  22077794.389   -11589083.796 6  -8773461.95521        19.500           1.188
 91  7 24  1 26 14.9980000  0  4G 3G16G17G23
  20064518.686    -3771496.967 7  -2938827.64123        23.000           2.969
  23259501.076     5521954.106 6   4302818.06221        12.250           0.688
  20119781.201    -5092156.679 7  -3967910.90623        26.250           3.313
  22066855.092   -11646575.568 6  -8818260.67521        19.750           1.281
 91  7 24  1 26 29.9980000  0  4G 3G16G17G23
  20062325.279    -3783007.073 7  -2947796.55523        22.750           2.938
  23266285.514     5557589.331 6   4330585.73521        12.500           0.719
  20116026.498    -5111900.778 7  -3983295.90723        26.250           3.281
  22055928.264   -11703995.589 6  -8863003.48921        19.500           1.313
 91  7 24  1 26 44.9980000  0  4G 3G16G17G23
  20060157.717    -3794415.838 7  -2956686.50523        23.250           2.813
  23273079.022     5593274.660 6   4358392.44821        13.000           0.625
  20112279.928    -5131572.196 7  -3998624.27523        25.750           3.281
  22045014.920   -11761343.118 6  -8907689.80721        19.000           1.469
 91  7 24  1 26 59.9980000  0  4G 3G16G17G23
  20058004.561    -3805724.458 7  -2965498.41623        22.750           2.906
  23279877.326     5629008.250 6   4386236.77321        13.000           0.594
  20108551.607    -5151172.512 7  -4013897.24123        26.250           3.313
  22034116.381   -11818619.430 6  -8952320.62621        19.000           1.438
 91  7 24  1 27 14.9980000  0  4G 3G16G17G23
  20055870.232    -3816930.333 7  -2974230.27523        22.000           2.906
  23286687.420     5664792.042 6   4414120.23621        13.000           0.500
  20104836.397    -5170699.345 7  -4029112.94323        27.250           3.313
  22023228.623   -11875822.151 6  -8996894.10021        18.500           1.469
 91  7 24  1 27 29.9980000  0  4G 3G16G17G23
  20053760.264    -3828032.242 7  -2982881.11523        22.750           2.906
  23293505.287     5700627.267 6   4442043.75921        13.000           0.469
  20101133.334    -5190151.056 7  -4044270.11223        26.750           3.281
  22012357.756   -11932949.410 6  -9041408.79321        18.750           1.438
 91  7 24  1 27 44.9980000  0  4G 3G16G17G23
  20051664.115    -3839031.380 7  -2991451.87223        22.250           2.813
  23300333.709     5736512.113 6   4470005.93921        13.250           0.594
  20097447.811    -5209529.532 7  -4059370.21123        26.750           3.250
  22001503.006   -11990002.592 6  -9085865.75622        19.000           1.500
 91  7 24  1 27 59.9980000  0  4G 3G16G17G23
  20049593.451    -3849930.371 7  -2999944.59523        22.500           2.875
  23307173.982     5772443.313 6   4498004.24221        13.000           0.625
  20093771.115    -5228837.710 7  -4074415.53323        27.000           3.344
  21990660.678   -12046984.289 6  -9130267.00822        18.750           1.531
 91  7 24  1 28 14.9980000  0  4G 3G16G17G23
  20047536.748    -3860724.714 7  -3008355.76723        22.500           2.844
  23314018.240     5808424.870 6   4526041.78521        12.500           0.594
  20090113.287    -5248071.260 7  -4089402.70623        27.250           3.313
  21979830.631   -12103890.102 6  -9174609.13721        18.500           1.406
 91  7 24  1 28 29.9980000  0  4G 3G16G17G23
  20045503.967    -3871417.119 7  -3016687.51523        22.750           2.906
  23320875.279     5844453.619 6   4554116.09721        12.250           0.656
  20086463.428    -5267233.042 7  -4104333.95623        26.750           3.313
  21969015.568   -12160722.558 6  -9218894.10521        18.250           1.469
 91  7 24  1 28 44.9980000  0  4G 3G16G17G23
  20043487.053    -3882004.592 7  -3024937.49223        22.500           2.875
  23327739.022     5880532.010 6   4582229.07721        12.250           0.688
  20082834.061    -5286320.488 7  -4119207.28023        27.250           3.313
  21958214.482   -12217478.668 6  -9263119.58321        18.000           1.469
 91  7 24  1 28 59.9980000  0  4G 3G16G17G23
  20041493.772    -3892488.358 7  -3033106.66223        22.000           2.844
  23334613.115     5916658.367 6   4610379.45921        12.750           0.656
  20079214.897    -5305334.946 7  -4134023.73523        27.500           3.156
  21947428.232   -12274159.584 6  -9307286.47022        17.500           1.531
 91  7 24  1 29 14.9980000  0  4G 3G16G17G23
  20039517.248    -3902869.646 7  -3041195.97723        23.000           2.875
  23341496.576     5952830.739 6   4638565.68821        12.750           0.719
  20075610.686    -5324277.852 7  -4148784.43223        26.750           3.250
  21936653.873   -12330766.670 6  -9351395.82121        17.250           1.438
 91  7 24  1 29 29.9980000  0  4G 3G16G17G23
  20037563.670    -3913145.994 7  -3049203.52323        23.000           2.813
  23348393.287     5989051.458 6   4666789.59421        12.750           0.844
  20072020.068    -5343146.951 7  -4163487.62023        27.000           3.250
  21925899.623   -12387297.377 6  -9395445.66322        17.250           1.500
 91  7 24  1 29 44.9980000  0  4G 3G16G17G23
  20035626.795    -3923319.343 7  -3057130.80823        23.250           2.750
  23355292.389     6025318.204 6   4695049.35021        12.500           0.719
  20068441.881    -5361944.279 7  -4178134.88523        26.750           3.281
  21915156.264   -12443753.339 6  -9439437.25122        17.500           1.531
 91  7 24  1 29 59.9980000  0  4G 3G16G17G23
  20033710.467    -3933386.468 7  -3064975.31523        22.500           2.750
  23362203.842     6061633.760 6   4723347.15321        12.750           0.813
  20064880.311    -5380666.791 7  -4192723.84423        27.500           3.313
  21904427.131   -12500131.303 6  -9483368.07322        17.750           1.531
 91  7 24  1 30 14.9980000  0  4G 3G16G17G23
  20031816.287    -3943351.177 7  -3072740.02723        22.250           2.875
  23369121.068     6097993.426 6   4751679.31321        12.500           0.688
  20061329.748    -5399318.810 8  -4207257.87323        28.250           3.375
  21893711.365   -12556435.357 6  -9527241.29722        17.250           1.500
 91  7 24  1 30 29.9980000  0  4G 3G16G17G23
  20029938.412    -3953211.491 7  -3080423.38923        22.000           2.813
  23376050.029     6134398.871 6   4780047.14721        12.750           0.719
  20057796.654    -5417898.404 8  -4221735.47224        28.500           3.531
  21883014.639   -12612663.233 6  -9571055.17222        17.500           1.500
 91  7 24  1 30 44.9980000  0  4G 3G16G17G23
  20028080.514    -3962966.240 7  -3088024.48523        22.250           2.875
  23382988.967     6170851.119 6   4808451.46721        13.750           0.719
  20054273.904    -5436404.202 7  -4236155.56724        27.750           3.563
  21872328.811   -12668813.482 6  -9614808.54722        17.500           1.500
 91  7 24  1 30 59.9980000  0  4G 3G16G17G23
  20026247.467    -3972615.239 7  -3095543.18923        22.000           2.875
  23389933.553     6207349.391 6   4836891.65021        13.250           0.688
  20050764.412    -5454837.031 8  -4250518.80724        28.250           3.594
  21861657.717   -12724886.287 6  -9658501.58322        17.000           1.656
 91  7 24  1 31 14.9980000  0  4G 3G16G17G23
  20024429.506    -3982159.089 7  -3102979.95423        22.500           2.813
  23396885.076     6243892.844 6   4865367.03621        12.250           0.656
  20047272.381    -5473197.166 8  -4264825.39624        28.250           3.625
  21851003.248   -12780881.957 6  -9702134.50922        16.500           1.625
 91  7 24  1 31 29.9980000  0  4G 3G16G17G23
  20022632.225    -3991597.800 7  -3110334.79123        22.750           2.813
  23403846.615     6280480.759 5   4893877.06621        11.750           0.625
  20043793.178    -5491484.970 8  -4279075.62824        28.000           3.781
  21840360.756   -12836800.744 6  -9745707.51722        16.250           1.594
 91  7 24  1 31 44.9980000  0  4G 3G16G17G23
  20020857.397    -4000930.967 7  -3117607.38523        23.000           2.750
  23410819.272     6317113.200 5   4922421.79421        11.250           0.688
  20040325.818    -5509700.296 8  -4293269.38824        28.250           3.563
  21829734.178   -12892641.906 6  -9789220.05622        16.500           1.625
 91  7 24  1 31 59.9980000  0  4G 3G16G17G23
  20019101.865    -4010155.366 7  -3124795.23423        22.500           2.938
  23417798.147     6353793.182 5   4951003.57221        10.500           0.625
  20036874.217    -5527840.171 8  -4307404.34624        29.000           3.688
  21819125.561   -12948402.369 6  -9832669.70022        16.750           1.656
 91  7 24  1 32 14.9980000  0  4G 3G16G17G23
  20017367.193    -4019274.771 7  -3131901.26423        22.750           2.750
  23424785.576     6390516.160 5   4979618.83721         9.750           0.688
  20033434.678    -5545908.493 8  -4321483.54724        29.000           3.625
  21808526.498   -13004085.655 6  -9876059.19722        16.500           1.563
 91  7 24  1 32 29.9980000  0  4G 3G16G17G23
  20015652.022    -4028286.895 7  -3138923.69323        22.750           2.813
  23431784.506     6427283.477 5   5008268.65121        10.500           0.688
  20030011.131    -5563903.731 8  -4335505.80624        28.750           3.719
  21797944.670   -13059689.760 6  -9919387.00622        16.250           1.781
 91  7 24  1 32 44.9980000  0  4G 3G16G17G23
  20013955.998    -4037195.678 7  -3145865.60323        22.750           2.938
  23438786.568     6464091.559 5   5036950.23621        10.750           0.656
  20026599.584    -5581829.376 8  -4349473.83424        29.000           3.688
  21787379.084   -13115218.283 6  -9962655.91222        16.250           1.750
 91  7 24  1 32 59.9980000  0  4G 3G16G17G23
  20012279.982    -4046000.703 7  -3152726.65823        22.750           2.938
  23445800.443     6500940.126 5   5065663.35821        11.250           0.656
  20023201.803    -5599685.395 8  -4363387.60824        28.750           3.750
  21776825.826   -13170670.773 6 -10005865.57922        16.250           1.688
 91  7 24  1 33 14.9980000  0  4G 3G16G17G23
  20010627.209    -4054692.953 7  -3159499.83523        23.000           2.906
  23452824.232     6537837.239 5   5094414.32321        11.500           0.656
  20019819.959    -5617463.143 8  -4377240.39224        29.000           4.000
  21766291.584   -13226038.367 6 -10049009.09422        16.250           1.656
 91  7 24  1 33 29.9980000  0  4G 3G16G17G23
  20008993.732    -4063278.961 7  -3166190.23423        22.750           3.000
  23459851.350     6574776.465 5   5123198.09521        11.500           0.688
  20016450.264    -5635169.044 8  -4391037.19224        29.250           4.000
  21755771.061   -13281327.227 6 -10092091.25822        16.750           1.656
 91  7 24  1 33 44.9980000  0  4G 3G16G17G23
  20007379.014    -4071759.869 7  -3172798.73023        22.500           2.906
  23466888.623     6611756.056 5   5152013.33021        11.750           0.531
  20013094.576    -5652804.813 8  -4404779.34624        29.250           3.969
  21745261.576   -13336538.784 6 -10135113.18722        16.500           1.594
 91  7 24  1 33 59.9980000  0  4G 3G16G17G23
  20005785.756    -4080131.656 7  -3179322.20123        22.250           2.844
  23473936.029     6648779.524 5   5180862.74921        11.750           0.563
  20009752.537    -5670366.473 8  -4418463.75624        29.500           4.125
  21734772.561   -13391668.813 6 -10178071.58921        17.000           1.469
 91  7 24  1 34 14.9980000  0  4G 3G16G17G23
  20004213.131    -4088399.170 7  -3185764.42023        22.250           2.813
  23480988.803     6685841.643 5   5209742.30321        11.500           0.406
  20006424.279    -5687859.055 8  -4432094.33124        29.500           4.094
  21724299.264   -13446722.210 6 -10220970.26622        17.500           1.656
 91  7 24  1 34 29.9980000  0  4G 3G16G17G23
  20002661.154    -4096556.809 7  -3192121.02423        22.500           2.813
  23488047.022     6722947.510 5   5238655.93321        11.500           0.500
  20003107.350    -5705277.011 8  -4445666.75924        28.750           4.000
  21713837.139   -13501693.246 6 -10263804.77922        17.750           1.625
 91  7 24  1 34 44.9980000  0  4G 3G16G17G23
  20001129.006    -4104607.779 7  -3198394.50223        22.500           2.813
  23495115.842     6760093.422 5   5267600.77921        11.750           0.469
  19999807.631    -5722623.724 8  -4459183.68024        29.000           4.094
  21703390.975   -13556584.957 6 -10306577.47622        17.750           1.563
 91  7 24  1 34 59.9980000  0  4G 3G16G17G23
  19999618.217    -4112551.476 7  -3204584.39723        23.000           2.938
  23502193.678     6797279.259 6   5296576.73121        12.000           0.500
  19996520.811    -5739899.219 8  -4472645.09724        29.000           4.156
  21692960.615   -13611396.888 6 -10349288.00922        17.500           1.656
 91  7 24  1 35 14.9980000  0  4G 3G16G17G23
  19998124.748    -4120386.490 7  -3210689.60023        22.500           2.938
  23509276.857     6834506.420 5   5325584.87721        11.250           0.375
  19993246.857    -5757102.205 8  -4486050.01724        29.250           4.219
  21682545.561   -13666127.617 6 -10391935.26522        17.500           1.719
 91  7 24  1 35 29.9980000  0  4G 3G16G17G23
  19996655.584    -4128114.386 7  -3216711.34023        23.000           2.938
  23516363.865     6871772.832 5   5354623.60321        10.750           0.406
  19989987.397    -5774234.147 8  -4499399.57724        29.000           4.250
  21672144.873   -13720778.470 6 -10434520.28722        17.500           1.750
 91  7 24  1 35 44.9980000  0  4G 3G16G17G23
  19995203.959    -4135734.589 7  -3222649.16123        23.000           2.844
  23523463.936     6909078.456 5   5383692.91121        10.250           0.469
  19986740.607    -5791295.068 8  -4512693.79624        29.250           4.219
  21661758.889   -13775348.869 6 -10477042.60222        17.250           1.781
 91  7 24  1 35 59.9980000  0  4G 3G16G17G23
  19993775.412    -4143246.951 7  -3228502.94723        22.750           2.938
  23530571.529     6946422.874 5   5412792.41021        10.000           0.469
  19983506.014    -5808284.824 8  -4525932.56424        29.000           4.281
  21651390.967   -13829838.829 6 -10519502.24822        17.500           1.719
 91  7 24  1 36 14.9980000  0  4G 3G16G17G23
  19992370.178    -4150648.256 7  -3234270.20423        23.750           2.875
  23537687.256     6983809.176 5   5441924.58021         9.750           0.469
  19980287.881    -5825200.102 8  -4539113.29124        28.500           4.344
  21641038.553   -13884244.897 6 -10561896.52522        18.000           1.813
 91  7 24  1 36 29.9980000  0  4G 3G16G17G23
  19990980.592    -4157941.282 7  -3239953.08123        23.000           2.844
  23544808.365     7021233.930 5   5471086.66421         9.500           0.438
  19977082.764    -5842044.246 8  -4552238.59624        28.500           4.375
  21630701.529   -13938569.907 6 -10604227.64022        19.000           1.781
 91  7 24  1 36 44.9980000  0  4G 3G16G17G23
  19989612.272    -4165125.015 7  -3245550.79723        23.000           2.875
  23551934.717     7058697.503 5   5500279.01321         8.750           0.438
  19973892.061    -5858816.356 8  -4565307.76724        29.000           4.375
  21620378.084   -13992812.608 6 -10646494.61722        18.750           1.969
 91  7 24  1 36 59.9980000  0  4G 3G16G17G23
  19988266.022    -4172197.772 7  -3251062.04623        23.500           2.875
  23559077.576     7096201.037 5   5529502.50021         9.250           0.500
  19970713.443    -5875515.046 8  -4578319.73024        29.000           4.406
  21610070.998   -14046971.445 6 -10688696.25022        18.500           1.938
 91  7 24  1 37 14.9980000  0  4G 3G16G17G23
  19986942.303    -4179163.580 7  -3256489.94123        23.250           2.813
  23566220.701     7133740.712 5   5558754.14621         9.750           0.438
  19967549.850    -5892144.294 8  -4591277.58224        29.250           4.469
  21599777.654   -14101050.369 6 -10730835.60922        18.000           1.906
 91  7 24  1 37 29.9980000  0  4G 3G16G17G23
  19985638.154    -4186013.554 7  -3261827.58323        23.250           2.750
  23573370.115     7171324.217 5   5588039.94921        10.750           0.406
  19964398.881    -5908695.839 8  -4604174.88424        28.250           4.375
  21589506.084   -14155040.636 6 -10772905.88722        19.000           2.063
 91  7 24  1 37 44.9980000  0  4G 3G16G17G23
  19984355.326    -4192751.616 7  -3267078.02723        22.750           2.938
  23580527.873     7208947.740 5   5617356.93721        11.250           0.469
  19961264.342    -5925173.493 7  -4617014.60824        27.750           4.281
  21579251.686   -14208945.741 7 -10814909.80322        20.000           2.094
 91  7 24  1 37 59.9980000  0  4G 3G16G17G23
  19983095.311    -4199381.879 7  -3272244.46823        23.500           2.781
  23587696.451     7246606.516 5   5646701.41221        11.750           0.469
  19958141.357    -5941581.532 7  -4629800.08624        27.250           4.344
  21569007.725   -14262769.931 6 -10856850.66622        19.500           2.156
 91  7 24  1 38 14.9980000  0  4G 3G16G17G23
  19981854.904    -4205900.939 7  -3277324.25923        24.000           2.750
  23594873.686     7284303.289 6   5676075.49021        12.000           0.531
  19955033.193    -5957916.988 7  -4642529.00424        26.750           4.313
  21558779.404   -14316509.821 6 -10898725.85222        19.750           2.125
 91  7 24  1 38 29.9980000  0  4G 3G16G17G23
  19980633.654    -4212309.702 7  -3282318.10223        23.000           2.813
  23602053.131     7322036.983 6   5705478.32421        12.000           0.563
  19951937.529    -5974181.012 7  -4655202.26824        27.250           4.375
  21548571.756   -14370166.009 7 -10940535.81022        20.250           2.156
 91  7 24  1 38 44.9980000  0  4G 3G16G17G23
  19979434.850    -4218609.887 7  -3287227.34223        23.500           2.875
  23609239.834     7359805.365 5   5734908.19421        11.500           0.563
  19948855.740    -5990375.334 7  -4667821.20824        27.250           4.375
  21538376.217   -14423740.332 7 -10982281.98022        20.250           2.031
 91  7 24  1 38 59.9980000  0  4G 3G16G17G23
  19978258.654    -4224799.425 7  -3292050.36423        24.500           2.813
  23616430.732     7397610.092 5   5764366.37621        10.750           0.563
  19945788.381    -6006497.913 7  -4680384.25125        26.750           4.531
  21528196.287   -14477230.691 6 -11023962.72922        19.750           2.188
 91  7 24  1 39 14.9980000  0  4G 3G16G17G23
  19977101.037    -4230881.048 7  -3296789.29523        23.500           2.875
  23623630.678     7435448.091 5   5793850.48821        10.250           0.594
  19942732.881    -6022551.751 7  -4692893.73325        26.750           4.656
  21518031.311   -14530639.929 6 -11065580.27022        19.750           2.063
 91  7 24  1 39 29.9980000  0  4G 3G16G17G23
  19975964.006    -4236850.600 7  -3301440.90023        23.750           2.781
  23630837.592     7473322.686 5   5823363.10521         9.750           0.656
  19939693.303    -6038532.991 7  -4705346.64025        27.000           4.656
  21507885.084   -14583963.736 7 -11107131.23622        20.250           2.063
 91  7 24  1 39 44.9980000  0  4G 3G16G17G23
  19974850.100    -4242703.240 7  -3306001.40323        23.000           2.781
  23638052.873     7511238.642 5   5852907.96221         9.250           0.531
  19936664.975    -6054437.107 7  -4717739.44925        27.000           4.563
  21497756.350   -14637196.988 7 -11148611.63522        21.250           2.094
 91  7 24  1 39 59.9980000  0  4G 3G16G17G23
  19973756.225    -4248447.801 7  -3310477.68823        23.250           2.719
  23645274.584     7549186.501 5   5882477.65621         8.750           0.469
  19933653.568    -6070272.909 7  -4730079.02624        27.250           4.438
  21487641.420   -14690348.748 7 -11190028.54822        20.750           2.063
 91  7 24  1 40 14.9980000  0  4G 3G16G17G23
  19972685.264    -4254079.546 7  -3314866.07523        23.500           2.688
  23652502.920     7587170.579 5   5912075.61321         9.000           0.500
  19930652.623    -6086036.023 7  -4742361.96224        27.250           4.469
  21477540.029   -14743414.161 7 -11231378.16722        20.250           2.000
 91  7 24  1 40 29.9980000  0  4G 3G16G17G23
  19971634.928    -4259602.327 7  -3319169.54323        23.500           2.719
  23659737.920     7625186.634 5   5941698.47121         9.000           0.438
  19927666.154    -6101730.453 7  -4754591.38224        27.000           4.438
  21467457.990   -14796397.016 7 -11272663.46522        20.000           2.063
 91  7 24  1 40 44.9980000  0  4G 3G16G17G23
  19970603.045    -4265015.438 7  -3323387.56123        23.250           2.813
  23666974.936     7663235.128 5   5971346.60721         8.500           0.438
  19924693.287    -6117355.766 7  -4766766.94124        26.750           4.344
  21457394.514   -14849296.513 7 -11313883.80822        20.750           2.188
 91  7 24  1 40 59.9980000  0  4G 3G16G17G23
  19969595.811    -4270316.107 7  -3327517.96323        23.750           2.656
  23674221.803     7701318.379 5   6001021.82021         8.500           0.563
  19921732.740    -6132909.010 7  -4778886.34324        26.750           4.281
  21447344.787   -14902109.800 7 -11355036.96922        20.500           2.188
 91  7 24  1 41 14.9980000  0  4G 3G16G17G23
  19968609.568    -4275502.487 7  -3331559.30423        23.500           2.594
  23681478.139     7739437.413 5   6030724.93021         9.000           0.500
  19918787.084    -6148388.897 7  -4790948.58724        26.750           4.281
  21437310.897   -14954835.019 7 -11396121.50322        20.250           2.219
 91  7 24  1 41 29.9980000  0  4G 3G16G17G23
  19967641.967    -4280572.125 7  -3335509.67523        22.750           2.656
  23688738.834     7777594.131 5   6060457.40221         9.750           0.375
  19915856.951    -6163793.194 7  -4802951.92724        27.500           4.406
  21427295.123   -15007469.965 7 -11437135.70522        20.500           2.250
 91  7 24  1 41 44.9980000  0  4G 3G16G17G23
  19966701.193    -4285531.094 7  -3339373.81523        23.250           2.594
  23696009.451     7815782.576 5   6090214.60721        10.250           0.375
  19912938.170    -6179127.888 7  -4814901.03124        26.750           4.281
  21417294.162   -15060020.329 7 -11478083.99022        20.250           2.313
 91  7 24  1 41 59.9980000  0  3G 3G17G23
  19965779.311    -4290377.770 7  -3343150.45523        23.000           2.594
  19910033.029    -6194391.674 7  -4826794.88024        26.500           4.375
  21407310.881   -15112484.585 7 -11518965.18122        20.500           2.250
 91  7 24  1 42 14.9980000  0  3G 3G17G23
  19964877.975    -4295109.751 7  -3346837.73223        23.500           2.594
  19907142.670    -6209582.377 7  -4838631.78724        26.500           4.313
  21397344.920   -15164860.027 7 -11559777.16222        20.500           2.313
 91  7 24  1 42 29.9980000  0  3G 3G17G23
  19963998.193    -4299729.222 7  -3350437.32323        23.000           2.594
  19904266.670    -6224702.430 7  -4850413.63924        26.750           4.219
  21387392.725   -15217149.274 7 -11600521.97722        20.500           2.375
 91  7 24  1 42 44.9980000  0  3G 3G17G23
  19963140.873    -4304237.397 7  -3353950.19823        23.000           2.563
  19901403.045    -6239752.734 7  -4862141.14124        26.750           4.250
  21377460.818   -15269352.974 7 -11641200.13822        21.000           2.281
 91  7 24  1 42 59.9980000  0  3G 3G17G23
  19962304.709    -4308628.871 7  -3357372.13923        23.500           2.625
  19898550.990    -6254728.519 7  -4873810.57124        26.250           4.250
  21367543.498   -15321466.094 7 -11681807.71422        21.000           2.156
 91  7 24  1 43 14.9980000  0  3G 3G17G23
  19961491.678    -4312903.373 7  -3360702.93023        23.250           2.531
  19895715.889    -6269629.617 7  -4885421.80724        26.750           4.094
  21357640.303   -15373488.068 7 -11722344.26622        20.500           1.969
 91  7 24  1 43 29.9980000  0  3G 3G17G23
  19960700.373    -4317063.254 7  -3363944.40422        23.750           2.438
  19892892.654    -6284458.710 7  -4896976.93824        26.250           4.031
  21347761.350   -15425421.117 7 -11762811.53322        20.500           2.063
 91  7 24  1 43 44.9980000  0  3G 3G17G23
  19959929.201    -4321112.478 7  -3367099.65223        23.500           2.531
  19890084.764    -6299219.689 7  -4908478.99024        26.750           4.063
  21337894.803   -15477269.132 7 -11803212.53822        20.500           2.031
 91  7 24  1 43 59.9980000  0  3G 3G17G23
  19959181.740    -4325047.392 7  -3370165.82623        23.250           2.563
  19887288.592    -6313909.198 7  -4919925.35124        26.250           3.969
  21328045.803   -15529028.642 7 -11843544.57522        20.750           2.094
 91  7 24  1 44 14.9980000  0  3G 3G17G23
  19958454.420    -4328867.108 7  -3373142.23322        23.250           2.469
  19884507.951    -6328526.775 7  -4931315.66724        27.000           3.938
  21318212.725   -15580698.667 7 -11883806.89022        20.000           2.219
 91  7 24  1 44 29.9980000  0  3G 3G17G23
  19957748.404    -4332569.078 7  -3376026.89322        22.750           2.469
  19881741.201    -6343069.840 7  -4942647.91424        27.500           3.938
  21308397.318   -15632276.777 7 -11923997.57422        20.000           2.125
 91  7 24  1 44 44.9980000  0  3G 3G17G23
  19957066.076    -4336158.324 7  -3378823.71622        23.250           2.469
  19878985.592    -6357543.655 7  -4953926.20524        27.250           3.875
  21298597.545   -15683767.829 6 -11964120.43022        19.750           2.156
 91  7 24  1 44 59.9980000  0  3G 3G17G23
  19956405.615    -4339634.271 7  -3381532.25922        23.500           2.469
  19876244.607    -6371947.771 7  -4965150.18324        26.250           3.781
  21288815.936   -15735170.983 7 -12004174.78922        20.000           2.125
 91  7 24  1 45 14.9980000  0  3G 3G17G23
  19955765.334    -4342993.703 7  -3384150.00323        23.250           2.531
  19873519.943    -6386279.055 7  -4976317.41524        27.000           3.813
  21279051.522   -15786483.076 6 -12044158.19822        19.750           2.125
 91  7 24  1 45 29.9980000  0  3G 3G17G23
  19955148.482    -4346238.708 7  -3386678.58222        23.250           2.375
  19870803.568    -6400539.704 7  -4987429.60524        26.750           3.813
  21269303.357   -15837706.081 7 -12084072.17622        20.000           2.156
 91  7 24  1 45 44.9980000  0  3G 3G17G23
  19954551.982    -4349367.889 7  -3389116.91022        23.250           2.313
  19868104.904    -6414728.854 7  -4998486.08224        27.000           3.750
  21259574.506   -15888838.747 7 -12123915.76022        20.000           2.094
 91  7 24  1 45 59.9980000  0  3G 3G17G23
  19953978.686    -4352386.083 7  -3391468.74522        23.000           2.313
  19865416.365    -6428851.045 7  -5009490.38124        27.000           3.656
  21249859.522   -15939885.625 6 -12163692.49422        19.750           2.156
 91  7 24  1 46 14.9980000  0  3G 3G17G23
  19953424.951    -4355290.586 7  -3393732.00222        23.000           2.313
  19862742.529    -6442903.785 7  -5020440.56324        26.750           3.563
  21240162.139   -15990843.948 6 -12203400.23622        19.500           2.219
 91  7 24  1 46 29.9980000  0  3G 3G17G23
  19952895.654    -4358079.943 7  -3395905.53222        23.250           2.375
  19860082.904    -6456886.199 7  -5031335.94524        27.000           3.500
  21230483.662   -16041712.380 7 -12243037.93122        20.000           2.063
 91  7 24  1 46 44.9980000  0  3G 3G17G23
  19952385.318    -4360755.569 7  -3397990.43522        22.500           2.375
  19857433.107    -6470799.926 7  -5042177.80324        27.250           3.656
  21220819.295   -16092492.523 7 -12282606.82422        20.500           2.125
 91  7 24  1 46 59.9980000  0  3G 3G17G23
  19951900.967    -4363312.473 7  -3399982.83222        22.500           2.281
  19854801.131    -6484639.868 7  -5052962.15924        27.500           3.563
  21211175.545   -16143179.022 7 -12322102.75022        20.500           2.219
 91  7 24  1 47 14.9980000  0  3G 3G17G23
  19951434.248    -4365751.179 7  -3401883.12922        22.000           2.344
  19852181.279    -6498406.713 7  -5063689.57624        27.500           3.531
  21201549.061   -16193772.446 7 -12361526.15822        21.000           2.031
 91  7 24  1 47 29.9980000  0  3G 3G17G23
  19950993.139    -4368074.904 7  -3403693.81922        22.000           2.344
  19849576.193    -6512103.964 8  -5074362.75924        28.000           3.531
  21191936.654   -16244275.925 7 -12400879.47322        21.000           2.156
 91  7 24  1 47 44.9980000  0  3G 3G17G23
  19950572.756    -4370280.702 7  -3405412.63122        21.750           2.281
  19846982.365    -6525728.670 7  -5084979.41024        27.500           3.531
  21182343.811   -16294686.397 7 -12440160.32422        21.250           2.063
 91  7 24  1 47 59.9980000  0  3G 3G17G23
  19950175.951    -4372369.003 7  -3407039.88022        22.250           2.250
  19844403.209    -6539281.467 7  -5095540.03024        27.250           3.500
  21172768.584   -16345004.308 7 -12479369.04122        21.500           2.000
 91  7 24  1 48 14.9980000  0  3G 3G17G23
  19949800.889    -4374337.329 7  -3408573.63922        21.500           2.313
  19841839.326    -6552760.140 8  -5106042.89224        28.250           3.500
  21163211.084   -16395227.203 7 -12518503.72322        21.000           2.031
 91  7 24  1 48 29.9980000  0  3G 3G17G23
  19949448.475    -4376189.388 7  -3410016.80622        22.250           2.188
  19839287.475    -6566168.540 7  -5116490.98524        27.500           3.531
  21153671.857   -16445358.663 7 -12557567.15722        21.250           2.125
 91  7 24  1 48 44.9980000  0  3G 3G17G23
  19949118.303    -4377924.641 7  -3411368.94722        22.500           2.156
  19836749.256    -6579506.233 7  -5126883.99323        27.000           3.438
  21144152.131   -16495397.997 7 -12596558.80122        21.750           2.156
 91  7 24  1 48 59.9980000  0  3G 3G17G23
  19948812.068    -4379538.046 7  -3412626.14922        22.250           2.281
  19834224.928    -6592768.588 7  -5137218.29623        27.000           3.469
  21134645.748   -16545340.326 7 -12635474.85922        21.250           2.156
 91  7 24  1 49 14.9980000  0  3G 3G17G23
  19948527.217    -4381037.077 7  -3413794.22622        23.000           2.219
  19831714.412    -6605962.982 7  -5147499.64023        26.750           3.438
  21125157.842   -16595192.959 7 -12674321.02422        21.000           2.219
 91  7 24  1 49 29.9980000  0  3G 3G17G23
  19948263.061    -4382419.001 7  -3414871.06022        22.750           2.156
  19829214.943    -6619086.549 7  -5157725.79724        26.250           3.500
  21115692.920   -16644952.957 7 -12713095.00522        21.500           2.219
 91  7 24  1 49 44.9980000  0  3G 3G17G23
  19948022.850    -4383684.294 7  -3415857.00722        23.250           2.094
  19826731.592    -6632140.461 7  -5167897.67323        26.500           3.438
  21106238.123   -16694621.081 7 -12751797.39222        21.250           2.344
 91  7 24  1 49 59.9980000  0  3G 3G17G23
  19947804.529    -4384833.685 7  -3416752.64222        23.500           2.063
  19824261.623    -6645125.269 7  -5178015.70323        26.750           3.469
  21096802.803   -16744197.631 7 -12790428.43122        20.750           2.313
 91  7 24  1 50 14.9980000  0  3G 3G17G23
  19947608.436    -4385867.022 7  -3417557.83922        23.000           2.031
  19821803.631    -6658040.998 7  -5188079.90824        27.000           3.625
  21087386.256   -16793682.612 7 -12828988.11622        21.000           2.281
 91  7 24  1 50 29.9980000  0  3G 3G17G23
  19947432.943    -4386785.153 7  -3418273.27122        23.000           2.031
  19819359.287    -6670888.917 7  -5198091.26724        27.000           3.594
  21077989.748   -16843076.996 7 -12867477.21022        21.250           2.344
 91  7 24  1 50 44.9980000  0  3G 3G17G23
  19947281.186    -4387580.224 7  -3418892.80622        23.000           2.125
  19816928.201    -6683661.130 7  -5208043.63524        26.750           3.656
  21068609.404   -16892372.453 7 -12905889.21122        21.750           2.375
 91  7 24  1 50 59.9980000  0  3G 3G17G23
  19947150.881    -4388260.193 7  -3419422.66622        22.750           2.063
  19814511.334    -6696365.898 7  -5217943.45224        27.000           3.656
  21059245.764   -16941577.195 7 -12944230.52422        21.500           2.406
 91  7 24  1 51 14.9980000  0  3G 3G17G23
  19947045.522    -4388820.456 7  -3419859.23422        23.250           2.031
  19812105.467    -6708998.606 7  -5227787.11424        26.750           3.656
  21049900.303   -16990686.304 7 -12982497.33022        21.000           2.344
 91  7 24  1 51 29.9980000  0  3G 3G17G23
  19946961.654    -4389264.403 7  -3420205.17522        23.750           2.094
  19809716.272    -6721562.864 7  -5237577.44424        27.000           3.656
  21040571.397   -17039703.350 7 -13020692.38722        20.750           2.375
 91  7 24  1 51 44.9980000  0  3G 3G17G23
  19946898.295    -4389590.481 7  -3420459.26322        23.750           2.094
  19807338.506    -6734057.251 7  -5247313.33024        27.000           3.688
  21031261.623   -17088626.528 7 -13058814.31023        21.250           2.500
 91  7 24  1 51 59.9980000  0  3G 3G17G23
  19946857.701    -4389799.539 7  -3420622.17222        23.500           2.156
  19804973.225    -6746482.673 7  -5256995.46824        26.250           3.688
  21021970.967   -17137456.757 7 -13096863.80123        21.750           2.531
 91  7 24  1 52 14.9980000  0  3G 3G17G23
  19946843.061    -4389889.217 7                        23.500
  19802622.553    -6758837.086 7  -5266622.28324        26.750           3.656
  21012694.920   -17186191.959 7 -13134839.24623        21.500           2.531
 91  7 24  1 52 29.9980000  0  3G 3G17G23
  19946847.053    -4389861.809 7                        23.500
  19800284.865    -6771122.795 7  -5276195.56124        26.750           3.719
  21003440.482   -17234833.990 7 -13172742.09223        21.500           2.563
 91  7 24  1 52 44.9980000  0  3G 3G17G23
  19946877.920    -4389714.350 7                        24.250
  19797961.897    -6783337.119 7  -5285713.20924        27.000           3.656
  20994201.756   -17283379.805 7 -13210569.96823        20.750           2.563
 91  7 24  1 52 59.9980000  0  3G 3G17G23
  19946925.217    -4389447.795 7                        24.000
  19795650.568    -6795481.062 7  -5295176.01624        26.500           3.813
  20984978.725   -17331830.417 7 -13248323.66023        20.500           2.531
 91  7 24  1 53 14.9980000  0  3G 3G17G23
  19946998.193    -4389066.269 7  -3420050.82922        24.250           2.063
  19793351.607    -6807559.129 7  -5304587.49524        25.750           3.719
  20975779.389   -17380189.866 7 -13286006.31223        20.500           2.563
 91  7 24  1 53 29.9980000  0  3G 3G17G23
  19947095.217    -4388568.079 7  -3419662.63422        24.250           2.063
  19791064.350    -6819569.483 7  -5313946.21124        25.500           3.813
  20966596.225   -17428456.428 7 -13323616.58723        20.750           2.594
 91  7 24  1 53 44.9980000  0  3G 3G17G23
  19947211.326    -4387954.875 7  -3419184.81822        24.500           1.938
  19788793.076    -6831514.167 7  -5323253.74624        25.500           3.875
  20957425.545   -17476631.924 7 -13361155.89623        20.750           2.594
 91  7 24  1 53 59.9980000  0  3G 3G17G23
  19947351.592    -4387217.822 7  -3418610.50222        24.000           1.969
  19786533.459    -6843384.150 7  -5332503.08224        25.250           3.938
  20948279.693   -17524707.090 7 -13398617.02223        21.250           2.688
 91  7 24  1 54 14.9980000  0  3G 3G17G23
  19947512.701    -4386362.647 7  -3417944.14122        24.000           1.938
  19784288.490    -6855185.419 7  -5341698.87324        26.250           3.875
  20939147.951   -17572687.705 7 -13436004.47823        20.250           2.688
 91  7 24  1 54 29.9980000  0  3G 3G17G23
  19947696.279    -4385392.567 7  -3417188.24322        24.250           1.906
  19782054.428    -6866921.490 7  -5350843.85024        26.250           3.875
  20930032.764   -17620577.000 7 -13473320.77923        20.000           2.750
 91  7 24  1 54 44.9980000  0  3G 3G17G23
  19947905.232    -4384303.121 7  -3416339.33122        24.000           1.969
  19779834.287    -6878587.793 7  -5359934.47524        26.000           3.844
  20920940.287   -17668370.185 7 -13510562.18723        20.500           2.813
 91  7 24  1 54 59.9980000  0  3G 3G17G23
  19948135.334    -4383094.210 7  -3415397.32522        24.000           2.063
  19777628.756    -6890184.564 7  -5368970.91324        27.000           3.813
  20911863.389   -17716067.320 7 -13547728.75423        20.250           2.844
 91  7 24  1 55 14.9980000  0  3G 3G17G23
  19948386.365    -4381765.224 7  -3414361.75922        24.000           2.000
  19775434.248    -6901711.520 7  -5377952.94224        26.250           3.844
  20902807.365   -17763667.808 7 -13584820.00623        21.250           2.813
 91  7 24  1 55 29.9980000  0  3G 3G17G23
  19948664.201    -4380316.571 7  -3413232.95122        24.500           2.094
  19773253.217    -6913169.051 7  -5386880.88324        26.000           3.750
  20893765.451   -17811172.088 7 -13621836.29123        20.500           2.750
 91  7 24  1 55 44.9980000  0  3G 3G17G23
  19948960.936    -4378752.290 7  -3412014.04322        24.000           2.063
  19771087.670    -6924561.318 7  -5395757.97224        27.000           3.844
  20884742.975   -17858584.047 7 -13658780.63723        20.750           2.813
 91  7 24  1 55 59.9980000  0  3G 3G17G23
  19949282.217    -4377067.983 7  -3410701.59922        24.000           2.125
  19768931.787    -6935883.811 7  -5404580.68324        26.750           3.781
  20875741.904   -17905899.135 7 -13695649.50523        21.250           2.750
 91  7 24  1 56 14.9980000  0  3G 3G17G23
  19949624.420    -4375264.579 7  -3409296.36222        24.000           2.063
  19766788.225    -6947137.744 7  -5413349.97024        26.000           3.813
  20866754.240   -17953118.383 7 -13732443.68523        21.500           2.781
 91  7 24  1 56 29.9980000  0  3G 3G17G23
  19949989.443    -4373343.642 7  -3407799.53322        23.750           2.031
  19764661.076    -6958324.836 7  -5422067.18524        26.750           3.750
  20857787.232   -18000243.069 7 -13769164.18323        21.250           2.781
 91  7 24  1 56 44.9980000  0  3G 3G17G23
  19950379.287    -4371303.889 7  -3406210.13322        24.000           2.125
  19762545.154    -6969444.177 7  -5430731.60524        27.500           3.813
  20848836.850   -18047272.181 7 -13805810.19623        20.750           3.000
 91  7 24  1 56 59.9980000  0  3G 3G17G23
  19950790.451    -4369143.426 7  -3404526.66422        24.500           2.094
  19760442.076    -6980493.679 7  -5439341.60224        27.500           3.906
  20839906.357   -18094203.576 7 -13842380.08523        21.000           3.031
 91  7 24  1 57 14.9980000  0  3G 3G17G23
  19951224.764    -4366858.776 7  -3402746.42522        23.750           2.031
  19758354.154    -6991470.197 7  -5447894.73424        27.750           3.938
  20830996.076   -18141033.718 7 -13878871.07023        21.250           3.000
 91  7 24  1 57 29.9970000  0  3G 3G17G23
  19951683.978    -4364453.037 7  -3400871.83122        24.500           2.094
  19756278.587    -7002375.851 7  -5456392.64724        27.750           4.000
  20822102.017   -18187762.289 7 -13915282.91623        21.250           3.063
 91  7 24  1 57 44.9970000  0  3G 3G17G23
  19952163.759    -4361929.103 7  -3398905.14122        24.250           2.156
  19754216.524    -7013215.558 7  -5464839.17424        27.500           4.000
  20813231.157   -18234398.760 7 -13951622.99823        21.750           3.156
 91  7 24  1 57 59.9970000  0  3G 3G17G23
  19952664.970    -4359286.636 7  -3396846.08522        25.000           2.156
  19752165.071    -7023988.236 7  -5473233.46224        27.250           3.719
  20804372.704   -18280939.354 7 -13987888.36023        21.500           3.031
 91  7 24  1 58 14.9970000  0  3G 3G17G23
  19953192.751    -4356522.906 7  -3394692.53622        24.500           2.125
  19750129.751    -7034691.081 7  -5481573.33924        27.750           3.938
  20795534.290   -18327381.375 7 -14024076.92323        21.250           3.094
 91  7 24  1 58 29.9970000  0  3G 3G17G23
  19953742.243    -4353635.453 7  -3392442.57422        25.000           2.156
  19748106.446    -7045322.067 7  -5489857.22024        27.750           3.906
  20786716.313   -18373722.271 7 -14060186.68623        21.250           3.156
 91  7 24  1 58 44.9970000  0  3G 3G17G23
  19954313.001    -4350627.412 7  -3390098.65422        24.750           2.219
  19746096.149    -7055884.055 8  -5498087.33724        28.000           3.781
  20777916.470   -18419965.175 7 -14096220.09123        21.500           3.156
 91  7 24  1 58 59.9970000  0  3G 3G17G23
  19954908.626    -4347499.458 7  -3387661.29222        25.250           2.250
  19744098.860    -7066378.174 7  -5506264.57124        27.750           3.906
  20769133.399   -18466110.601 7 -14132177.53223        20.750           3.188
 91  7 24  1 59 14.9970000  0  3G 3G17G23
  19955528.196    -4344247.230 7  -3385127.09422        25.250           2.250
  19742116.618    -7076800.155 8  -5514385.59724        28.000           3.906
  20760372.251   -18512154.362 7 -14168055.75223        20.500           3.125
 91  7 24  1 59 29.9970000  0  3G 3G17G23
  19956170.907    -4340869.172 7  -3382494.85222        25.500           2.188
  19740148.267    -7087148.508 8  -5522449.24624        28.250           3.969
  20751630.392   -18558094.556 7 -14203853.27723        20.750           3.188
 91  7 24  1 59 44.9970000  0  3G 3G17G23
  19956835.767    -4337372.731 7  -3379770.36322        24.500           2.375
  19738190.767    -7097430.986 8  -5530461.56624        28.250           4.000
  20742907.345   -18603938.791 7 -14239576.03123        21.250           3.281
 91  7 24  1 59 59.9970000  0  3G 3G17G23
  19957523.751    -4333756.705 7  -3376952.68822        24.250           2.250
  19736246.181    -7107645.987 8  -5538421.30624        28.250           4.094
  20734201.321   -18649685.743 7 -14275222.97623        21.000           3.219
 91  7 24  2  0 14.9970000  0  3G 3G17G23
  19958235.095    -4330018.674 7  -3374039.94222        24.000           2.125
  19734316.032    -7117791.631 8  -5546327.00024        28.750           4.125
  20725515.985   -18695332.734 7 -14310792.03323        21.250           3.344
 91  7 24  2  0 29.9970000  0  3G 3G17G23
  19958970.884    -4326157.747 7  -3371031.43122        24.250           2.219
  19732398.009    -7127867.065 8  -5554177.97624        28.500           4.125
  20716846.860   -18740879.019 7 -14346282.61624        21.500           3.531
 91  7 24  2  0 44.9970000  0  3G 3G17G23
  19959726.915    -4322178.884 7  -3367931.02822        24.000           2.094
  19730494.009    -7137877.389 8  -5561978.23424        28.750           4.063
  20708198.587   -18786329.633 7 -14381698.64824        21.750           3.500
 91  7 24  2  0 59.9970000  0  3G 3G17G23
  19960507.517    -4318077.848 7  -3364735.42422        23.500           2.125
  19728602.962    -7147818.327 8  -5569724.41724        28.500           4.125
  20699569.704   -18831680.134 7 -14417036.66924        22.250           3.531
 91  7 24  2  1 14.9970000  0  3G 3G17G23
  19961310.735    -4313855.972 7  -3361445.64822        23.000           2.094
  19726723.673    -7157691.686 8  -5577417.94524        28.500           4.031
  20690957.853   -18876931.744 7 -14452297.63824        22.500           3.563
 91  7 24  2  1 29.9970000  0  3G 3G17G23
  19962137.431    -4309510.777 7  -3358059.79222        22.750           2.125
  19724857.313    -7167494.607 8  -5585056.58224        28.750           3.875
  20682365.337   -18922082.039 7 -14487479.65824        22.000           3.563
 91  7 24  2  1 44.9970000  0  3G 3G17G23
  19962987.524    -4305047.004 7  -3354581.52722        23.250           2.094
  19723005.462    -7177232.198 8  -5592644.31624        28.750           3.813
  20673792.579   -18967135.690 7 -14522586.37923        22.000           3.469
 91  7 24  2  1 59.9970000  0  3G 3G17G23
  19963858.079    -4300463.007 7  -3351009.58722        22.750           2.125
  19721165.071    -7186902.776 8  -5600179.83124        28.250           3.875
  20665238.595   -19012090.714 7 -14557616.24324        22.750           3.594
 91  7 24  2  2 14.9970000  0  3G 3G17G23
  19964755.353    -4295754.785 7  -3347340.85422        22.500           2.219
  19719338.860    -7196502.538 8  -5607660.16424        28.250           3.719
  20656702.563   -19056943.206 7 -14592566.21424        23.000           3.531
 91  7 24  2  2 29.9970000  0  3G 3G17G23
  19965676.032    -4290922.964 7  -3343575.81022        23.250           2.125
  19717524.040    -7206032.339 7  -5615085.98324        27.500           3.719
  20648188.188   -19101693.881 7 -14627436.84124        23.250           3.531
 91  7 24  2  2 44.9970000  0  3G 3G17G23
  19966617.470    -4285970.678 7  -3339716.88922        22.750           2.188
  19715722.438    -7215495.266 7  -5622459.69324        27.750           3.750
  20639690.110   -19146345.765 7 -14662230.48823        23.250           3.406
 91  7 24  2  2 59.9970000  0  3G 3G17G23
  19967583.110    -4280899.276 7  -3335765.15522        22.500           2.281
  19713936.751    -7224892.939 8  -5629782.55624        28.000           3.719
  20631211.103   -19190900.111 7 -14696948.13423        23.500           3.469
 91  7 24  2  3 14.9970000  0  3G 3G17G23
  19968569.993    -4275709.846 7  -3331721.45222        23.000           2.281
  19712157.751    -7234226.374 7  -5637055.36024        27.250           3.688
  20622750.142   -19235357.784 7 -14731590.45324        23.500           3.500
 91  7 24  2  3 29.9970000  0  3G 3G17G23
  19969580.610    -4270397.591 7  -3327582.03722        22.750           2.188
  19710396.782    -7243491.168 7  -5644274.68024        27.000           3.781
  20614310.095   -19279714.112 7 -14766153.80524        23.750           3.563
 91  7 24  2  3 44.9970000  0  3G 3G17G23
  19970614.806    -4264961.825 7  -3323346.38022        23.000           2.156
  19708646.048    -7252686.269 7  -5651439.69224        26.500           3.813
  20605889.696   -19323968.132 7 -14800637.43124        24.750           3.594
 91  7 24  2  3 59.9970000  0  3G 3G17G23
  19971672.235    -4259403.697 7  -3319015.38422        22.500           2.250
  19706909.399    -7261813.364 7  -5658551.71224        26.000           3.781
  20597488.407   -19368121.188 7 -14835042.37924        25.250           3.563
 91  7 24  2  4 14.9970000  0  3G 3G17G23
  19972754.087    -4253723.220 7  -3314589.04322        22.750           2.344
  19705185.978    -7270872.266 7  -5665610.59224        25.750           3.781
  20589104.813   -19412173.047 7 -14869368.47123        25.750           3.469
 91  7 24  2  4 29.9970000  0  3G 3G17G23
  19973857.548    -4247921.332 7  -3310068.10422        22.250           2.438
  19703474.063    -7279863.854 7  -5672617.02424        25.500           3.813
  20580741.157   -19456124.496 7 -14903616.33323        25.250           3.469
 91  7 24  2  4 44.9970000  0  3G 3G17G23
  19974984.243    -4241998.310 7  -3305452.76622        22.500           2.344
  19701776.446    -7288788.787 7  -5679571.52024        25.750           3.813
  20572394.837   -19499976.123 7 -14937786.40223        25.250           3.438
 91  7 24  2  4 59.9970000  0  3G 3G17G23
  19976135.321    -4235954.969 7  -3300743.67822        22.750           2.406
  19700089.524    -7297647.930 7  -5686474.74424        25.500           3.938
  20564070.259   -19543728.380 7 -14971879.04523        25.750           3.406
 91  7 24  2  5 14.9970000  0  3G 3G17G23
  19977309.118    -4229789.259 7  -3295939.23622        22.250           2.313
  19698417.243    -7306439.513 7  -5693325.33124        25.250           3.875
  20555762.376   -19587379.419 7 -15005892.81723        25.750           3.375
 91  7 24  2  5 29.9970000  0  3G 3G17G23
  19978505.978    -4223496.480 7  -3291035.78222        22.000           2.219
  19696757.134    -7315158.611 7  -5700119.43224        25.000           3.969
  20547476.759   -19630924.255 7 -15039823.83223        26.250           3.313
 91  7 24  2  5 44.9970000  0  3G 3G17G23
  19979726.399    -4217082.995 7  -3286038.26822        21.750           2.281
  19695110.876    -7323811.810 7  -5706862.18524        24.750           3.906
  20539209.884   -19674369.147 7 -15073676.96723        26.000           3.219
 91  7 24  2  5 59.9970000  0  3G 3G17G23
  19980970.392    -4210546.568 7  -3280944.96122        20.750           2.156
  19693478.142    -7332396.873 7  -5713551.84824        25.000           3.813
  20530961.962   -19717711.888 7 -15107450.50723        26.000           3.156
 91  7 24  2  6 14.9970000  0  3G 3G17G23
  19982238.134    -4203888.195 7  -3275756.63422        21.250           2.219
  19691854.907    -7340914.803 7  -5720189.19124        24.500           3.875
  20522734.884   -19760953.438 7 -15141145.19323        26.500           3.063
 91  7 24  2  6 29.9970000  0  3G 3G17G23
  19983528.478    -4197105.939 7  -3270471.76922        21.750           2.281
  19690249.556    -7349364.008 7  -5726772.98524        24.500           3.875
  20514525.188   -19804091.895 7 -15174759.54523        26.500           3.094
 91  7 24  2  6 44.9970000  0  3G 3G17G23
  19984838.931    -4190204.564 7  -3265094.09922        21.000           2.250
  19688654.321    -7357749.189 7  -5733306.89524        25.000           3.844
  20506335.032   -19847131.741 7 -15208297.05323        27.000           3.188
 91  7 24  2  6 59.9970000  0  3G 3G17G23
  19986177.220    -4183182.972 7  -3259622.74322        21.250           2.156
  19687069.798    -7366069.333 7  -5739790.12324        25.000           3.906
  20498162.673   -19890071.849 7 -15241756.85123        26.250           3.125
 91  7 24  2  7 14.9970000  0  3G 3G17G23
  19987535.415    -4176041.726 7  -3254058.15922        20.750           2.156
  19685498.353    -7374325.102 7  -5746223.18824        25.250           3.906
  20490009.860   -19932912.813 7 -15275139.39723        25.750           3.156
 91  7 24  2  7 29.9970000  0  3G 3G17G23
  19988918.556    -4168778.242 7  -3248398.30922        21.250           2.125
  19683940.071    -7382513.883 7  -5752604.05624        24.500           3.875
  20481877.978   -19975651.744 7 -15308442.43523        26.500           3.063
 91  7 24  2  7 44.9970000  0  3G 3G17G23
  19990322.720    -4161391.364 7  -3242642.31622        21.000           2.156
  19682395.149    -7390634.934 7  -5758932.14924        24.250           4.000
  20473764.610   -20018287.701 7 -15341665.22923        26.500           3.000
 91  7 24  2  7 59.9970000  0  3G 3G17G23
  19991754.634    -4153884.486 7  -3236792.81922        21.500           2.125
  19680863.157    -7398691.654 7  -5765210.10524        25.250           3.906
  20465669.446   -20060823.977 7 -15374810.35023        26.000           3.063
 91  7 24  2  8 14.9970000  0  3G 3G17G23
  19993203.743    -4146253.250 7  -3230846.41822        21.500           2.125
  19679342.892    -7406679.714 7  -5771434.56824        24.500           3.906
  20457596.040   -20103255.998 7 -15407874.23623        26.500           3.063
 91  7 24  2  8 29.9970000  0  3G 3G17G23
  19994679.978    -4138499.161 7  -3224804.28722        22.000           2.125
  19677834.985    -7414600.401 7  -5777606.53424        24.000           3.969
  20449541.353   -20145585.138 7 -15440857.94823        26.250           3.031
 91  7 24  2  8 44.9970000  0  3G 3G17G23
  19996179.103    -4130622.187 7  -3218666.39722        22.250           2.063
  19676340.556    -7422453.933 7  -5783726.17024        24.000           4.094
  20441505.134   -20187811.408 7 -15473761.50723        26.000           3.094
 91  7 24  2  8 59.9970000  0  3G 3G17G23
  19997702.626    -4122623.449 7  -3212433.63322        22.250           2.094
  19674859.040    -7430241.449 7  -5789794.36124        24.250           4.094
  20433489.892   -20229935.922 7 -15506585.77823        26.500           3.219
 91  7 24  2  9 14.9970000  0  3G 3G17G23
  19999246.907    -4114503.229 7  -3206106.20922        22.000           2.125
  19673389.548    -7437963.431 7  -5795811.49324        24.500           4.156
  20425492.282   -20271959.101 7 -15539331.08223        26.500           3.219
 91  7 24  2  9 29.9970000  0  3G 3G17G23
  20000816.321    -4106259.472 7  -3199682.51522        21.750           2.094
  19671933.298    -7445617.658 7  -5801775.82524        24.500           4.188
  20417516.001   -20313878.356 7 -15571995.41223        26.750           3.219
 91  7 24  2  9 44.9970000  0  3G 3G17G23
  20002408.032    -4097894.030 7  -3193164.01022        22.250           2.031
  19670487.501    -7453206.387 7  -5807689.12024        23.750           4.156
  20409559.470   -20355695.799 7 -15604580.40623        27.000           3.094
 91  7 24  2  9 59.9970000  0  3G 3G17G23
  20004023.110    -4089405.336 7  -3186549.45922        22.750           2.156
  19669057.478    -7460727.917 7  -5813550.05624        24.000           4.125
  20401619.212   -20397409.690 7 -15637084.70823        26.250           3.156
 91  7 24  2 10 14.9970000  0  3G 3G17G23
  20005663.556    -4080795.786 7  -3179840.73522        23.750           2.156
  19667638.071    -7468184.757 7  -5819360.58324        24.500           3.969
  20393701.009   -20439022.334 7 -15669510.12223        25.750           3.188
 91  7 24  2 10 29.9970000  0  3G 3G17G23
  20007321.782    -4072065.698 7  -3173038.08522        22.500           2.125
  19666230.665    -7475577.171 7  -5825120.90224        25.000           4.125
  20385802.899   -20480533.866 7 -15701856.74623        25.500           3.219
 91  7 24  2 10 44.9970000  0  3G 3G17G23
  20009007.509    -4063214.760 7  -3166141.26422        22.750           2.125
  19664836.509    -7482905.176 7  -5830831.03724        25.000           4.188
  20377922.790   -20521944.216 7 -15734124.52023        25.250           3.156
 91  7 24  2 10 59.9970000  0  3G 3G17G23
  20010714.720    -4054243.710 7  -3159150.85322        22.250           2.219
  19663455.157    -7490169.400 7  -5836491.47624        25.750           4.094
  20370061.603   -20563253.719 7 -15766313.71323        25.250           3.094
 91  7 24  2 11 14.9970000  0  3G 3G17G23
  20012445.103    -4045144.480 7  -3152060.56022        22.750           2.250
  19662085.407    -7497361.790 7  -5842095.93424        25.500           4.125
  20362220.282   -20604454.251 7 -15798417.99723        24.500           3.094
 91  7 24  2 11 29.9970000  0  3G 3G17G23
  20014200.438    -4035924.909 7  -3144876.50022        23.250           2.125
  19660730.126    -7504490.517 7  -5847650.79024        25.250           4.063
  20354399.173   -20645554.163 7 -15830443.87623        24.000           3.094
 91  7 24  2 11 44.9970000  0  3G 3G17G23
  20015977.274    -4026584.836 7  -3137598.54122        22.750           2.156
  19659383.126    -7511555.153 7  -5853155.70524        25.000           4.125
  20346596.938   -20686552.639 7 -15862390.71523        24.250           3.094
 91  7 24  2 11 59.9970000  0  3G 3G17G23
  20017777.313    -4017122.403 7  -3130225.22522        22.500           2.125
  19658053.618    -7518553.983 7  -5858609.33924        25.500           4.250
  20338816.220   -20727447.841 7 -15894257.07623        24.500           3.125
 91  7 24  2 12 14.9970000  0  3G 3G17G23
  20019601.985    -4007532.379 7  -3122752.49322        22.750           2.125
  19656733.478    -7525481.932 7  -5864007.74224        25.500           4.125
  20331054.196   -20768234.801 7 -15926039.09023        24.000           3.156
 91  7 24  2 12 29.9970000  0  3G 3G17G23
  20021450.907    -3997819.419 7  -3115183.96722        22.750           2.094
  19655428.485    -7532343.482 7  -5869354.40624        26.000           4.156
  20323311.399   -20808917.707 7 -15957740.03723        23.750           3.156
 91  7 24  2 12 44.9970000  0  3G 3G17G23
  20023322.837    -3987985.734 7  -3107521.37222        22.750           2.031
  19654135.915    -7539141.071 7  -5874651.22924        26.000           4.156
  20315590.618   -20849498.780 7 -15989361.62123        24.000           3.094
 91  7 24  2 12 59.9970000  0  3G 3G17G23
  20025217.118    -3978027.892 7  -3099762.02822        22.500           2.125
  19652855.212    -7545871.324 7  -5879895.58224        25.750           4.094
  20307889.571   -20889974.481 7 -16020901.11123        24.500           2.969
 91  7 24  2 13 14.9970000  0  3G 3G17G23
  20027136.149    -3967948.066 7  -3091907.63322        23.250           1.938
  19651585.813    -7552536.467 7  -5885089.19824        25.750           4.094
  20300207.157   -20930347.032 7 -16052360.21623        24.250           3.094
 91  7 24  2 13 29.9970000  0  3G 3G17G23
  20029075.626    -3957746.059 7  -3083958.02922        22.750           1.906
  19650330.696    -7559136.380 7  -5890231.98824        26.250           3.906
  20292542.798   -20970616.017 7 -16083738.61923        23.750           3.031
 91  7 24  2 13 44.9970000  0  3G 3G17G23
  20031041.196    -3947421.382 7  -3075912.83422        23.500           1.844
  19649087.509    -7565670.567 7  -5895323.56124        26.250           4.063
  20284898.860   -21010780.940 7 -16115035.93223        22.750           3.125
 91  7 24  2 13 59.9970000  0  3G 3G17G23
  20033030.649    -3936971.458 7  -3067770.04822        23.500           1.813
  19647856.673    -7572136.838 7  -5900362.21124        26.000           4.125
  20277275.001   -21050839.137 7 -16146250.08523        22.750           3.250
 91  7 24  2 14 14.9970000  0  3G 3G17G23
  20035042.556    -3926396.623 7  -3059529.93322        23.500           1.813
  19646637.985    -7578535.339 7  -5905348.05924        25.750           4.156
  20269673.274   -21090790.888 7 -16177381.29623        22.500           3.219
 91  7 24  2 14 29.9970000  0  3G 3G17G23
  20037076.407    -3915702.000 7  -3051196.47422        22.750           1.750
  19645432.923    -7584871.097 7  -5910285.01524        26.500           4.031
  20262090.399   -21130641.389 7 -16208433.60623        22.750           3.156
 91  7 24  2 14 44.9970000  0  3G 3G17G23
  20039136.657    -3904884.602 7  -3042767.34422        23.250           1.750
  19644240.642    -7591141.097 7  -5915170.73024        27.000           4.063
  20254525.251   -21170387.286 7 -16239404.41023        22.250           3.094
 91  7 24  2 14 59.9970000  0  3G 3G17G23
  20041220.032    -3893939.581 7  -3034238.76822        23.250           1.844
  19643060.556    -7597340.577 7  -5920001.49224        27.250           4.000
  20246984.298   -21210024.013 7 -16270290.14623        22.500           3.094
 91  7 24  2 15 14.9970000  0  3G 3G17G23
  20043325.103    -3882871.569 7  -3025614.34822        23.250           1.906
  19641892.493    -7603474.265 7  -5924780.98524        27.250           3.969
  20239460.735   -21249555.846 7 -16301094.14523        22.250           3.063
 91  7 24  2 15 29.9970000  0  3G 3G17G23
  20045454.220    -3871682.145 7  -3016895.32922        23.500           1.781
  19640738.321    -7609543.775 7  -5929510.47524        27.000           3.938
  20231959.251   -21288984.362 7 -16331817.63623        22.500           3.156
 91  7 24  2 15 44.9970000  0  3G 3G17G23
  20047606.290    -3860367.443 7  -3008078.70422        23.000           1.875
  19639597.017    -7615545.379 7  -5934187.04624        27.250           3.813
  20224476.321   -21328305.751 7 -16362457.65423        22.250           3.219
 91  7 24  2 15 59.9970000  0  3G 3G17G23
  20049784.032    -3848932.983 7  -2999168.74722        23.000           1.813
  19638467.017    -7621484.531 7  -5938814.95324        27.750           3.781
  20217014.142   -21367525.272 7 -16393018.29723        21.750           3.188
 91  7 24  2 16 14.9970000  0  3G 3G17G23
  20051983.548    -3837375.540 7  -2990162.95922        23.500           1.875
  19637348.290    -7627358.259 7  -5943391.88424        27.250           3.750
  20209569.610   -21406639.743 7 -16423497.07423        21.250           3.313
 91  7 24  2 16 29.9970000  0  3G 3G17G23
  20054205.618    -3825690.824 7  -2981058.00122        24.000           1.844
  19636243.853    -7633162.143 7  -5947914.39924        26.500           3.813
  20202145.923   -21445644.895 7 -16453890.67423        21.250           3.156
 91  7 24  2 16 44.9970000  0  3G 3G17G23
  20056454.329    -3813882.515 7  -2971856.73722        24.000           1.781
  19635150.892    -7638899.549 7  -5952385.09724        26.500           3.781
  20194745.915   -21484544.259 7 -16484201.83823        22.000           3.031
 91  7 24  2 16 59.9970000  0  3G 3G17G23
  20058723.017    -3801954.951 7  -2962562.54822        24.250           1.906
  19634071.853    -7644575.091 7  -5956807.59724        26.500           3.688
  20187361.188   -21523341.969 7 -16514433.79823        21.750           3.125
 91  7 24  2 17 14.9970000  0  3G 3G17G23
  20061015.267    -3789904.771 7  -2953172.80722        23.750           1.750
  19633003.165    -7650185.778 7  -5961179.56324        26.250           3.656
  20179998.454   -21562034.793 7 -16544584.02823        22.250           3.156
 91  7 24  2 17 29.9970000  0  3G 3G17G23
  20063333.610    -3777729.786 7  -2943685.81722        24.500           1.875
  19631949.110    -7655729.129 7  -5965499.05824        25.750           3.688
  20172656.298   -21600620.117 7 -16574650.49023        22.250           3.063
 91  7 24  2 17 44.9970000  0  3G 3G17G23
  20065672.915    -3765434.868 7  -2934105.38122        24.250           1.813
  19630906.970    -7661210.064 7  -5969769.91824        26.500           3.594
  20165331.032   -21639102.739 7 -16604636.92723        21.750           3.094
 91  7 24  2 17 59.9970000  0  3G 3G17G23
  20068036.149    -3753013.729 7  -2924426.59022        24.000           1.781
  19629876.431    -7666622.459 7  -5973987.36124        26.000           3.563
  20158031.376   -21677476.529 7 -16634538.55923        22.250           3.094
 91  7 24  2 18 14.9970000  0  3G 3G17G23
  20070423.938    -3740465.946 7  -2914649.11322        23.250           1.750
  19628860.235    -7671965.841 7  -5978151.04324        26.750           3.594
  20150748.853   -21715741.137 7 -16664355.11223        22.500           3.281
 91  7 24  2 18 29.9970000  0  3G 3G17G23
  20072831.392    -3727796.583 7  -2904776.89622        23.000           1.813
  19627855.610    -7677245.380 7  -5982264.97123        26.000           3.469
  20143487.946   -21753901.135 7 -16694090.16223        23.000           3.250
 91  7 24  2 18 44.9970000  0  3G 3G17G23
  20075270.274    -3715001.568 7  -2894806.76822        23.500           1.813
  19626862.204    -7682457.020 7  -5986325.98923        25.750           3.469
  20136247.134   -21791952.790 7 -16723740.78223        22.500           3.188
 91  7 24  2 18 59.9970000  0  3G 3G17G23
  20077727.720    -3702084.803 7  -2884741.77422        22.500           1.781
  19625882.978    -7687604.489 7  -5990337.00723        26.250           3.469
  20129026.048   -21829899.730 7 -16753309.80023        22.750           3.156
 91  7 24  2 19 14.9970000  0  3G 3G17G23
  20080210.735    -3689045.233 7  -2874581.08422        23.000           1.813
  19624917.438    -7692686.706 7  -5994297.17823        26.750           3.469
  20121823.649   -21867740.763 7 -16782796.29823        22.750           3.125
 91  7 24  2 19 29.9970000  0  3G 3G17G23
  20082714.259    -3675881.213 7  -2864323.41922        23.750           1.719
  19623962.204    -7697702.230 7  -5998205.38023        26.000           3.375
  20114645.845   -21905474.294 7 -16812199.02923        23.000           3.281
 91  7 24  2 19 44.9970000  0  3G 3G17G23
  20085241.173    -3662594.881 7  -2853970.44722        23.250           1.781
  19623020.142    -7702653.412 7  -6002063.44823        26.500           3.219
  20107480.595   -21943102.511 7 -16841519.69723        22.000           3.219
 91  7 24  2 19 59.9970000  0  3G 3G17G23
  20087791.845    -3649185.461 7  -2843521.56122        22.500           2.000
  19622091.704    -7707538.867 7  -6005870.29723        26.500           3.375
  20100344.509   -21980624.044 7 -16870757.23823        23.000           3.156
 91  7 24  2 20 14.9970000  0  3G 3G17G23
  20090369.915    -3635649.966 7  -2832974.44022        23.500           1.906
  19621173.399    -7712356.119 7  -6009624.00523        25.500           3.469
  20093225.157   -22018036.186 7 -16899909.53023        23.750           3.188
 91  7 24  2 20 29.9970000  0  3G 3G17G23
  20092969.306    -3621991.427 7  -2822331.44122        24.250           1.938
  19620270.204    -7717108.224 7  -6013326.94923        25.250           3.375
  20086123.290   -22055341.872 7 -16928978.87823        23.500           3.188
 91  7 24  2 20 44.9970000  0  3G 3G17G23
  20095591.501    -3608207.910 7  -2811591.05522        24.000           1.844
  19619378.267    -7721793.290 7  -6016977.65623        25.500           3.406
  20079046.509   -22092539.046 7 -16957963.67523        23.250           3.250
 91  7 24  2 20 59.9970000  0  3G 3G17G23
  20098239.056    -3594302.399 7  -2800755.60222        24.500           1.875
  19618498.243    -7726414.137 7  -6020578.31923        25.250           3.313
  20071987.532   -22129630.674 7 -16986866.21823        22.750           3.219
 91  7 24  2 21 14.9970000  0  3G 3G17G23
  20100908.962    -3580272.593 7  -2789823.30622        24.000           1.906
  19617631.970    -7730968.549 7  -6024127.21423        25.750           3.250
  20064949.235   -22166614.247 7 -17015684.57223        22.500           3.375
 91  7 24  2 21 29.9970000  0  3G 3G17G23
  20103600.673    -3566118.809 7  -2778794.40122        23.750           1.813
  19616779.274    -7735456.624 7  -6027624.42323        25.750           3.250
  20057933.743   -22203489.976 7 -17044418.88723        22.750           3.281
 91  7 24  2 21 44.9970000  0  3G 3G17G23
  20106318.587    -3551840.962 7  -2767668.81522        24.000           1.906
  19615936.821    -7739878.378 7  -6031069.95023        25.250           3.250
  20050938.149   -22240257.909 7 -17073069.20423        23.750           3.219
 91  7 24  2 21 59.9970000  0  3G 3G17G23
  20109059.868    -3537439.456 7  -2756446.88722        23.750           1.906
  19615107.501    -7744234.412 7  -6034464.26723        25.000           3.344
  20043960.603   -22276918.293 7 -17101635.71723        23.250           3.313
 91  7 24  2 22 14.9970000  0  3G 3G17G23
  20111823.728    -3522914.333 7  -2745128.62822        23.500           1.906
  19614291.407    -7748524.562 7  -6037807.24023        25.500           3.344
  20037003.462   -22313470.885 7 -17130118.23623        23.500           3.219
 91  7 24  2 22 29.9970000  0  3G 3G17G23
  20114612.337    -3508263.437 7  -2733712.36422        23.500           2.000
  19613487.853    -7752746.876 7  -6041097.36123        25.500           3.406
  20030070.415   -22349913.790 7 -17158515.29223        23.500           3.313
 91  7 24  2 22 44.9970000  0  3G 3G17G23
  20117422.087    -3493488.612 7  -2722199.53222        23.250           1.938
  19612696.767    -7756902.790 7  -6044335.74123        25.250           3.344
  20023155.774   -22386248.634 7 -17186828.13823        24.000           3.188
 91  7 24  2 22 59.9970000  0  3G 3G17G23
  20120259.048    -3478586.725 7  -2710587.69622        23.250           2.000
  19611918.493    -7760989.481 7  -6047520.17623        25.750           3.344
  20016262.353   -22422472.022 7 -17215054.14223        23.750           3.125
 91  7 24  2 23 14.9970000  0  3G 3G17G23
  20123117.860    -3463560.957 7  -2698879.32322        23.000           1.906
  19611154.360    -7765010.291 7  -6050653.27823        26.500           3.375
  20009390.259   -22458587.154 7 -17243195.78123        23.750           3.219
 91  7 24  2 23 29.9970000  0  3G 3G17G23
  20125999.688    -3448411.651 7  -2687074.68822        22.750           2.000
  19610402.384    -7768965.421 7  -6053735.19423        26.500           3.469
  20002537.235   -22494594.336 7 -17271253.31023        23.750           3.219
 91  7 24  2 23 44.9970000  0  3G 3G17G23
  20128908.431    -3433135.296 7  -2675171.05722        23.250           1.938
  19609661.649    -7772851.273 7  -6056763.14224        26.250           3.500
  19995708.282   -22530489.872 7 -17299223.83823        24.250           3.188
 91  7 24  2 23 59.9970000  0  3G 3G17G23
  20131838.345    -3417735.253 7  -2663171.04322        23.500           1.844
  19608936.860    -7776671.548 7  -6059739.98124        26.250           3.563
  19988898.790   -22566277.349 7 -17327110.16823        24.500           3.406
 91  7 24  2 24 14.9970000  0  3G 3G17G23
  20134792.001    -3402210.188 7  -2651073.61022        23.000           1.906
  19608220.376    -7780424.468 7  -6062664.34623        26.250           3.438
  19982108.837   -22601955.120 7 -17354911.01123        24.750           3.406
 91  7 24  2 24 29.9970000  0  4G 3G21G17G23
  20137769.298    -3386560.402 7  -2638878.98622        22.500           1.781
  23594352.649          -0.70114                         7.000
  19607519.782    -7784110.595 7  -6065536.65924        26.750           3.594
  19975339.188   -22637523.553 7 -17382626.65023        24.500           3.438
 91  7 24  2 24 44.9970000  0  4G 3G21G17G23
  20140773.407    -3370783.314 7  -2626585.16822        22.500           1.781
  23582297.235      -63335.450 5                         7.500
  19606831.782    -7787726.866 7  -6068354.53523        26.500           3.438
  19968591.915   -22672979.509 7 -17410254.64923        24.500           3.406
 91  7 24  2 24 59.9970000  0  4G 3G21G17G23
  20143800.048    -3354881.679 7  -2614194.31122        22.500           1.781
  23570257.071     -126635.613 5                         7.500
  19606155.821    -7791276.452 7  -6071120.45323        25.750           3.438
  19961866.985   -22708326.100 7 -17437797.43623        25.750           3.344
 91  7 24  2 25 14.9970000  0  4G 3G21G17G23
  20146846.985    -3338859.895 7  -2601709.81922        22.500           1.844
  23558217.142     -189905.204 5                         7.750
  19605492.009    -7794763.618 7  -6073837.73624        25.250           3.500
  19955161.259   -22743567.481 7 -17465258.23123        26.250           3.375
 91  7 24  2 25 29.9970000  0  4G 3G21G17G23
  20149920.095    -3322710.746 7  -2589126.08722        21.750           1.875
  23546180.017     -253136.715 5                         8.000
  19604842.329    -7798181.322 7  -6076500.89224        25.500           3.531
  19948475.220   -22778696.420 7 -17492631.41323        26.250           3.406
 91  7 24  2 25 44.9970000  0  4G 3G21G17G23
  20153018.642    -3306436.651 7  -2576444.98922        22.250           1.781
  23534160.517     -316332.405 5        -0.26731         8.750           0.156
  19604202.845    -7801531.787 7  -6079111.65124        25.500           3.500
  19941810.899   -22813715.043 7 -17519918.63423        25.000           3.438
 91  7 24  2 25 59.9970000  0  4G 3G21G17G23
  20156138.228    -3290038.882 7  -2563667.52622        22.250           1.813
  23522134.767     -379493.621 5    -49216.67021         8.250           0.250
  19603577.399    -7804816.525 7  -6081671.19024        25.750           3.719
  19935168.032   -22848624.798 7 -17547121.02624        24.750           3.563
 91  7 24  2 26 14.9970000  0  4G 3G21G17G23
  20159281.751    -3273518.161 7  -2550794.25722        22.500           1.719
  23510126.478     -442620.455 5    -98406.27621         9.000           0.188
  19602967.009    -7808035.729 7  -6084179.67424        26.250           3.594
  19928546.735   -22883425.875 7 -17574238.73224        25.250           3.563
 91  7 24  2 26 29.9970000  0  4G 3G21G17G23
  20162447.415    -3256872.543 7  -2537823.66322        21.750           1.719
  23498116.806     -505711.095 5   -147567.65121         8.500           0.156
  19602367.188    -7811187.845 7  -6086635.87224        26.750           3.656
  19921943.595   -22918116.835 7 -17601270.63023        25.250           3.469
 91  7 24  2 26 44.9970000  0  4G 3G21G17G23
  20165641.548    -3240102.597 7  -2524756.17922        22.000           1.813
  23486112.665     -568765.725 5   -196700.99121         8.000           0.250
  19601779.204    -7814273.474 7  -6089040.26324        27.000           3.719
  19915362.876   -22952698.144 7 -17628217.08823        25.250           3.469
 91  7 24  2 26 59.9970000  0  4G 3G21G17G23
  20168856.665    -3223205.703 7  -2511589.79422        21.750           1.688
  23474122.860     -631781.406 5   -245803.99521         8.000           0.281
  19601205.095    -7817289.884 7  -6091390.72224        26.750           3.750
  19908805.313   -22987166.785 7 -17655075.75123        25.500           3.344
 91  7 24  2 27 14.9970000  0  4G 3G21G17G23
  20172095.493    -3206184.147 7  -2498326.26422        22.000           1.781
  23462145.962     -694760.201 5   -294878.22921         8.500           0.250
  19600645.384    -7820239.141 7  -6093688.85224        27.500           3.719
  19902265.782   -23021524.927 7 -17681848.30824        24.500           3.563
 91  7 24  2 27 29.9970000  0  4G 3G21G17G23
  20175358.892    -3189039.417 7  -2484966.75522        22.000           1.594
  23450164.829     -757703.578 5   -343924.86221         8.250           0.250
  19600095.938    -7823122.895 7  -6095935.93624        27.250           3.844
  19895748.782   -23055774.156 7 -17708535.99724        24.750           3.531
 91  7 24  2 27 44.9970000  0  4G 3G21G17G23
  20178644.415    -3171765.726 7  -2471506.74722        21.500           1.656
  23438195.899     -820605.344 5   -392939.09721         8.250           0.313
  19599561.548    -7825935.055 7  -6098127.24124        27.500           3.938
  19889251.985   -23089908.682 7 -17735134.31823        24.250           3.344
 91  7 24  2 27 59.9970000  0  4G 3G21G17G23
  20181954.751    -3154370.984 7  -2457952.41522        21.500           1.625
  23426226.860     -883473.394 5   -441927.06921         8.000           0.344
  19599037.767    -7828683.845 7  -6100269.16624        27.250           3.938
  19882777.478   -23123936.341 7 -17761649.36523        24.500           3.375
 91  7 24  2 28 14.9970000  0  4G 3G21G17G23
  20185287.673    -3136850.153 7  -2444299.84422        20.750           1.500
  23414272.860     -946302.474 5   -490884.67021         8.250           0.313
  19598527.290    -7831364.105 7  -6102357.68324        26.750           4.000
  19876324.837   -23157851.929 7 -17788077.07523        25.750           3.406
 91  7 24  2 28 29.9970000  0  4G 3G21G17G23
  20188647.306    -3119204.967 7  -2430550.36522        21.250           1.563
  23402333.087    -1009093.921 5   -539812.93221         8.750           0.281
  19598030.454    -7833977.277 7  -6104393.92824        26.500           4.000
  19869891.056   -23191656.825 7 -17814418.53823        25.500           3.281
 91  7 24  2 28 44.9970000  0  4G 3G21G17G23
  20192026.454    -3101437.027 7  -2416705.24421        20.750           1.469
  23390382.212    -1071849.183 5   -588712.99521         8.250           0.375
  19597543.853    -7836525.125 7  -6106379.26824        26.500           4.063
  19863478.688   -23225352.513 7 -17840674.89523        25.250           3.313
 91  7 24  2 28 59.9970000  0  4G 3G21G17G23
  20195432.478    -3083543.556 7  -2402762.29321        20.500           1.375
  23378448.329    -1134565.216 5   -637582.48421         8.250           0.469
  19597073.634    -7839005.003 7  -6108311.64824        27.250           4.188
  19857088.376   -23258936.262 7 -17866844.02923        25.250           3.375
 91  7 24  2 29 14.9970000  0  4G 3G21G17G23
  20198862.313    -3065523.407 7  -2388720.63921        21.250           1.344
  23366525.040    -1197240.725 5   -686420.41921         8.250           0.406
  19596614.782    -7841415.616 7  -6110190.05524        27.250           4.250
  19850718.618   -23292406.975 7 -17892925.08823        25.000           3.438
 91  7 24  2 29 29.9970000  0  4G 3G21G17G23
  20202315.415    -3047377.357 7  -2374580.87821        21.000           1.406
  23354605.696    -1259876.280 5   -735227.19221         8.500           0.500
  19596170.517    -7843757.601 7  -6112014.98724        27.250           4.250
  19844370.196   -23325765.215 7 -17918918.50323        24.500           3.406
 91  7 24  2 29 44.9960000  0  4G 3G21G17G23
  20205791.457    -3029109.289 7  -2360346.03321        20.500           1.375
  23342694.465    -1322470.025 5   -784001.42221         8.750           0.438
  19595736.418    -7846033.554 7  -6113788.46024        27.250           4.375
  19838043.809   -23359011.257 7 -17944824.49523        24.750           3.438
 91  7 24  2 29 59.9960000  0  4G 3G21G17G23
  20209289.707    -3010714.632 7  -2346012.54821        20.750           1.281
  23330788.746    -1385028.021 5   -832747.78221         8.500           0.469
  19595317.910    -7848241.538 7  -6115508.97124        27.250           4.375
  19831737.551   -23392147.600 7 -17970645.00423        25.000           3.375
 91  7 24  2 30 14.9960000  0  4G 3G21G17G23
  20212816.395    -2992191.817 7  -2331579.20521        20.750           1.406
  23318889.160    -1447542.971 5   -881460.61621         8.500           0.438
  19594909.957    -7850378.672 7  -6117174.27924        27.000           4.344
  19825454.137   -23425168.987 7 -17996375.93523        25.000           3.469
 91  7 24  2 30 29.9960000  0  4G 3G21G17G23
  20216363.527    -2973546.697 7  -2317050.56821        20.750           1.344
  23307003.262    -1510020.649 5   -930144.39521         8.250           0.469
  19594515.090    -7852450.809 7  -6118788.93624        26.500           4.438
  19819191.809   -23458081.243 7 -18022021.82723        25.750           3.438
 91  7 24  2 30 44.9960000  0  4G 3G21G17G23
  20219935.160    -2954778.210 7  -2302425.78921        21.000           1.406
  23295120.176    -1572459.635 5   -978798.02221         8.250           0.406
  19594132.441    -7854456.668 7  -6120351.94725        26.500           4.594
  19812948.863   -23490882.902 7 -18047581.54323        25.250           3.375
 91  7 24  2 30 59.9960000  0  4G 3G21G17G23
  20223531.535    -2935886.153 7  -2287704.73021        21.750           1.438
  23283249.441    -1634859.543 5  -1027421.21021         8.000           0.438
  19593764.137    -7856396.271 7  -6121863.32725        26.750           4.594
  19806729.293   -23523573.883 7 -18073055.02023        25.000           3.250
 91  7 24  2 31 14.9960000  0  4G 3G21G17G23
  20227149.715    -2916867.486 7  -2272885.00321        21.750           1.313
  23271381.254    -1697217.027 5  -1076011.32221         7.500           0.406
  19593408.668    -7858266.118 7  -6123320.35325        26.000           4.594
  19800528.426   -23556151.132 7 -18098439.87023        25.500           3.469
 91  7 24  2 31 29.9960000  0  4G 3G21G17G23
  20230794.981    -2897720.064 7  -2257964.95521        21.500           1.406
  23259520.020    -1759529.814 5  -1124566.61621         7.500           0.500
  19593066.106    -7860064.117 7  -6124721.39525        26.250           4.656
  19794352.621   -23588612.549 7 -18123734.46523        25.500           3.313
 91  7 24  2 31 44.9960000  0  4G 3G21G17G23
  20234461.004    -2878449.414 7  -2242948.89121        21.750           1.281
  23247671.223    -1821803.104 4  -1173091.13321         7.250           0.531
  19592736.598    -7861795.962 7  -6126070.88125        26.500           4.625
  19788195.176   -23620963.196 7 -18148942.74223        24.750           3.438
 91  7 24  2 31 59.9960000  0  4G 3G21G17G23
  20238152.074    -2859057.053 7  -2227837.98521        21.500           1.406
  23235824.762    -1884038.359 4  -1221586.00721         7.250           0.438
  19592420.668    -7863463.173 7  -6127370.01225        26.500           4.563
  19782062.285   -23653204.733 7 -18174066.00624        25.250           3.500
 91  7 24  2 32 14.9960000  0  4G 3G21G17G23
  20241866.098    -2839539.739 7  -2212629.71922        21.500           1.500
  23223991.731    -1946232.088 5  -1270048.55321         7.500           0.438
  19592115.285    -7865062.268 7  -6128616.06325        26.000           4.625
  19775949.356   -23685333.890 7 -18199101.69923        25.750           3.375
 91  7 24  2 32 29.9960000  0  4G 3G21G17G23
  20245602.301    -2819900.176 7  -2197326.18021        21.250           1.406
  23212163.309    -2008386.547 4  -1318480.50221         7.250           0.406
  19591823.723    -7866595.884 7  -6129811.09425        27.000           4.625
  19769851.934   -23717353.185 7 -18224051.78123        25.250           3.313
 91  7 24  2 32 44.9960000  0  4G 3G21G17G23
  20249363.512    -2800136.747 7  -2181926.13321        21.250           1.406
  23200345.340    -2070499.931 4  -1366880.41621         7.250           0.375
  19591544.215    -7868062.510 7  -6130953.92324        26.750           4.469
  19763782.902   -23749260.778 7 -18248914.82923        25.250           3.281
 91  7 24  2 32 59.9960000  0  4G 3G21G17G23
  20253147.207    -2780248.785 7  -2166429.04721        21.250           1.375
  23188531.738    -2132571.215 4  -1415247.53021         6.750           0.406
  19591278.488    -7869461.062 7  -6132043.70425        26.500           4.531
  19757732.160   -23781055.884 7 -18273690.22123        25.500           3.219
 91  7 24  2 33 14.9960000  0  4G 3G21G17G23
  20256957.559    -2760233.879 7  -2150833.03821        21.750           1.406
  23176726.340    -2194597.930 4  -1463579.91821         6.750           0.375
  19591025.481    -7870789.376 7  -6133078.75525        26.250           4.500
  19751702.324   -23812736.153 7 -18298376.12723        25.250           3.375
 91  7 24  2 33 29.9960000  0  4G 3G21G17G23
  20260789.981    -2740093.238 7  -2135139.05821        22.000           1.406
  23164935.879    -2256581.053 4  -1511878.34621         7.250           0.375
  19590785.457    -7872048.559 7  -6134059.94125        25.750           4.594
  19745695.660   -23844302.581 7 -18322973.33123        25.250           3.281
 91  7 24  2 33 44.9960000  0  4G 3G21G17G23
  20264644.645    -2719830.997 7  -2119350.32921        22.000           1.313
  23153148.981    -2318524.451 5  -1560145.81821         7.750           0.438
  19590559.582    -7873242.794 7  -6134990.51925        25.500           4.531
  19739710.402   -23875759.494 7 -18347485.19923        25.000           3.313
 91  7 24  2 33 59.9960000  0  4G 3G21G17G23
  20268523.332    -2699447.635 7  -2103467.21421        21.750           1.375
  23141368.379    -2380428.368 5  -1608382.52621         8.000           0.250
  19590341.785    -7874372.547 7  -6135870.84625        25.250           4.563
  19733745.371   -23907107.214 7 -18371911.98223        25.000           3.156
 91  7 24  2 34 14.9960000  0  4G 3G21G17G23
  20272425.684    -2678940.106 7  -2087487.34321        22.000           1.344
  23129595.238    -2442289.327 5  -1656585.75721         8.250           0.250
  19590142.004    -7875434.267 7  -6136698.16225        25.500           4.656
  19727799.129   -23938342.289 7 -18396250.98623        24.750           3.031
 91  7 24  2 34 29.9960000  0  4G 3G21G17G23
  20276352.957    -2658308.214 7  -2071410.57521        22.000           1.438
  23117830.574    -2504107.099 5  -1704755.37621         8.000           0.281
  19589952.981    -7876428.113 7  -6137472.59525        25.750           4.656
  19721879.152   -23969464.676 7 -18420502.18123        25.250           3.125
 91  7 24  2 34 44.9960000  0  4G 3G21G17G23
  20280302.606    -2637549.138 7  -2055234.70021        21.750           1.438
  23106076.684    -2565878.578 5  -1752888.87521         8.500           0.344
  19589778.223    -7877351.134 7  -6138191.83225        25.750           4.656
  19715978.137   -24000471.195 7 -18444663.09123        25.000           3.031
 91  7 24  2 34 59.9960000  0  4G 3G21G17G23
  20284277.473    -2616668.067 7  -2038963.76222        22.500           1.500
  23094330.410    -2627608.852 5  -1800990.30121         8.500           0.281
  19589610.981    -7878208.632 7  -6138860.01525        25.500           4.563
  19710099.981   -24031367.231 7 -18468737.91423        25.250           3.000
 91  7 24  2 35 14.9960000  0  4G 3G21G17G23
  20288275.270    -2595661.094 7  -2022594.71622        22.000           1.500
  23082592.223    -2689293.569 5  -1849056.18421         8.750           0.281
  19589463.895    -7878996.283 7  -6139473.77325        25.000           4.688
  19704241.770   -24062148.610 7 -18492723.39223        25.250           3.094
 91  7 24  2 35 29.9960000  0  4G 3G21G17G23
  20292297.785    -2574524.415 7  -2006124.60722        22.000           1.594
  23070864.449    -2750928.839 5  -1897083.54421         9.500           0.281
  19589326.129    -7879710.390 7  -6140030.22825        24.750           4.688
  19698406.379   -24092811.683 7 -18516616.68523        25.000           3.031
 91  7 24  2 35 44.9960000  0  4G 3G21G17G23
  20296343.309    -2553263.487 7  -1989557.68022        21.500           1.563
  23059145.621    -2812519.737 5  -1945076.34121         9.750           0.344
  19589204.223    -7880356.274 7  -6140533.51425        25.250           4.656
  19692592.184   -24123361.652 7 -18540421.84323        24.500           3.219
 91  7 24  2 35 59.9960000  0  4G 3G21G17G23
  20300411.371    -2531882.568 7  -1972897.25322        21.250           1.625
  23047427.762    -2874070.328 5  -1993037.72821        10.000           0.281
  19589093.145    -7880938.231 7  -6140986.99025        25.500           4.656
  19686800.863   -24153802.560 7 -18564142.01423        25.000           3.250
 91  7 24  2 36 14.9960000  0  4G 3G21G17G23
  20304503.496    -2510379.502 7  -1956141.64822        20.750           1.656
  23035728.387    -2935578.127 5  -2040965.77221        10.250           0.219
  19588995.387    -7881453.630 7  -6141388.60125        25.250           4.719
  19681029.168   -24184132.180 7 -18587775.47123        25.000           3.156
 91  7 24  2 36 29.9960000  0  4G 3G21G17G23
  20308617.301    -2488753.870 7  -1939290.53222        20.250           1.563
  23024028.223    -2997042.644 5  -2088860.08721        10.000           0.313
  19588908.684    -7881902.344 7  -6141738.25625        25.500           4.656
  19675278.918   -24214350.142 7 -18611321.91923        25.250           3.094
 91  7 24  2 36 44.9960000  0  4G 3G21G17G23
  20312756.020    -2467003.752 7  -1922342.41022        20.250           1.688
  23012344.160    -3058461.446 5  -2136718.79521        10.000           0.250
  19588836.113    -7882282.441 7  -6142034.43625        25.250           4.656
  19669550.309   -24244454.127 7 -18634779.55223        25.250           3.156
 91  7 24  2 36 59.9960000  0  4G 3G21G17G23
  20316919.715    -2445131.747 7  -1905299.32622        20.250           1.625
  23000661.660    -3119836.864 5  -2184543.69121        10.000           0.250
  19588778.285    -7882596.199 7  -6142278.92725        25.750           4.656
  19663841.684   -24274446.781 7 -18658150.43523        24.750           3.188
 91  7 24  2 37 14.9960000  0  4G 3G21G17G23
  20321105.106    -2423134.505 7  -1888158.65122        20.250           1.656
  22988988.629    -3181165.355 5  -2232332.02521        10.000           0.281
  19588729.848    -7882840.425 7  -6142469.23425        25.500           4.594
  19658158.801   -24304324.633 7 -18681431.86523        25.750           3.063
 91  7 24  2 37 29.9960000  0  4G 3G21G17G23
  20325314.152    -2401012.378 7  -1870920.66222        20.500           1.594
  22977331.121    -3242447.070 5  -2280083.89721        10.250           0.344
  19588698.051    -7883015.464 7                        25.750
  19652494.137   -24334088.142 7 -18704624.19223        24.750           3.125
 91  7 24  2 37 44.9960000  0  4G 3G21G17G23
  20329547.457    -2378767.768 7  -1853587.22022        20.750           1.531
  22965679.918    -3303684.241 5  -2327801.06621        10.250           0.375
  19588678.816    -7883123.327 7                        25.750
  19646849.520   -24363739.519 7 -18727729.14723        24.000           3.094
 91  7 24  2 37 59.9960000  0  4G 3G21G17G23
  20333802.598    -2356402.669 7  -1836159.89921        20.500           1.469
  22954030.684    -3364878.568 5  -2375484.87521        10.000           0.281
  19588670.957    -7883166.015 7                        26.000
  19641231.231   -24393280.661 7 -18750748.20323        24.250           3.000
 91  7 24  2 38 14.9960000  0  4G 3G21G17G23
  20338083.051    -2333917.243 7  -1818638.81022        20.750           1.531
  22942391.465    -3426029.950 5  -2423135.20421         9.750           0.375
  19588677.332    -7883143.897 7                        26.750
  19635626.848   -24422711.621 7 -18773681.39423        23.750           2.969
 91  7 24  2 38 29.9960000  0  4G 3G21G17G23
  20342385.410    -2311312.330 7  -1801024.61522        20.250           1.531
  22930764.770    -3487138.989 5  -2470752.54021        10.250           0.406
  19588688.332    -7883057.507 7                        26.250
  19630048.270   -24452033.092 7 -18796529.27923        24.500           2.938
 91  7 24  2 38 44.9960000  0  4G 3G21G17G23
  20346710.699    -2288582.730 7  -1783313.26322        20.000           1.531
  22919147.926    -3548200.156 5  -2518332.56921        10.500           0.375
  19588719.840    -7882901.500 7                        26.500
  19624491.020   -24481239.863 7 -18819287.79023        24.500           2.875
 91  7 24  2 38 59.9960000  0  4G 3G21G17G23
  20351057.848    -2265730.328 6  -1765506.23222        19.500           1.563
  22907536.598    -3609215.124 5  -2565876.57221        10.000           0.344
  19588762.770    -7882677.937 7                        26.750
  19618955.238   -24510333.667 7 -18841958.26823        24.500           2.844
 91  7 24  2 39 14.9960000  0  4G 3G21G17G23
  20355429.566    -2242755.421 6  -1747603.72622        19.500           1.625
  22895931.887    -3670183.694 5  -2613384.45121         9.750           0.344
  19588819.629    -7882386.669 7  -6142115.69324        26.750           4.063
  19613438.645   -24539314.438 7 -18864540.67223        24.000           2.875
 91  7 24  2 39 29.9960000  0  4G 3G21G17G23
  20359827.488    -2219656.469 6  -1729604.57422        19.500           1.563
  22884342.246    -3731104.402 5  -2660855.01921        10.000           0.375
  19588887.559    -7882026.181 7  -6141834.79324        26.500           3.969
  19607946.113   -24568180.786 7 -18887033.91523        24.250           2.750
 91  7 24  2 39 44.9960000  0  4G 3G21G17G23
  20364244.988    -2196437.167 6  -1711511.64322        19.250           1.594
  22872755.434    -3791980.622 5  -2708290.93521         9.750           0.438
  19588969.856    -7881600.153 7  -6141502.83324        27.000           4.063
  19602476.027   -24596936.437 7 -18909440.89923        24.000           2.719
 91  7 24  2 39 59.9960000  0  4G 3G21G17G23
  20368686.441    -2173094.448 6  -1693322.54822        19.250           1.594
  22861184.387    -3852809.021 5  -2755689.58321        10.000           0.500
  19589059.621    -7881105.456 7  -6141117.36224        26.500           4.000
  19597023.949   -24625578.074 7 -18931759.05223        24.250           2.719
 91  7 24  2 40 14.9960000  0  4G 3G21G17G23
  20373148.613    -2149631.593 6  -1675039.82922        18.500           1.594
  22849617.090    -3913592.405 5  -2803053.14721        10.000           0.406
  19589166.606    -7880544.892 7  -6140680.56524        26.750           3.938
  19591595.418   -24654108.664 7 -18953990.66523        24.750           2.594
 91  7 24  2 40 29.9960000  0  4G 3G21G17G23
  20377640.160    -2126044.500 6  -1656660.29822        19.000           1.656
  22838062.434    -3974326.687 5  -2850378.45421        10.000           0.406
  19589289.832    -7879914.638 7  -6140189.46024        27.250           3.906
  19586187.590   -24682524.249 7 -18976132.66023        24.500           2.656
 91  7 24  2 40 44.9960000  0  4G 3G21G17G23
  20382151.231    -2102337.665 6  -1638187.47822        19.250           1.656
  22826510.582    -4035015.961 5  -2897668.69521         9.500           0.406
  19589420.574    -7879219.037 7  -6139647.44024        27.750           4.031
  19580800.449   -24710829.234 7 -18998188.47623        24.000           2.594
 91  7 24  2 40 59.9960000  0  4G 3G21G17G23
  20386687.066    -2078506.308 6  -1619617.62122        19.500           1.531
  22814971.051    -4095655.021 5  -2944919.81721         9.750           0.563
  19589565.871    -7878453.185 7  -6139050.67724        27.500           4.031
  19575436.793   -24739018.430 7 -19020154.07323        24.000           2.750
 91  7 24  2 41 14.9960000  0  4G 3G21G17G23
  20391244.637    -2054555.372 7  -1600954.58122        20.000           1.563
  22803440.699    -4156248.918 5  -2992135.74421        10.000           0.500
  19589724.684    -7877622.008 7  -6138403.01724        27.500           4.031
  19570093.707   -24767097.212 7 -19042033.63523        24.000           2.719
 91  7 24  2 41 29.9960000  0  4G 3G21G17G23
  20395823.246    -2030486.453 7  -1582199.60221        20.500           1.469
  22791918.371    -4216798.677 5  -3039317.28921        10.000           0.438
  19589893.254    -7876726.976 7  -6137705.59324        26.500           4.000
  19564771.621   -24795066.765 7 -19063828.08123        24.000           2.781
 91  7 24  2 41 44.9960000  0  4G 3G21G17G23
  20400427.418    -2006295.972 7  -1563349.90422        20.250           1.500
  22780404.082    -4277300.494 5  -3086461.47321         9.500           0.594
  19590078.488    -7875764.572 7  -6136955.67824        27.500           4.000
  19559469.473   -24822923.389 7 -19085534.52423        23.500           2.813
 91  7 24  2 41 59.9960000  0  4G 3G21G17G23
  20405053.074    -1981983.947 6  -1544405.51022        19.500           1.500
  22768900.371    -4337754.351 5  -3133568.27221         9.500           0.594
  19590274.145    -7874734.617 7  -6136153.12624        27.500           3.906
  19554191.340   -24850667.339 7 -19107153.17223        24.250           2.781
 91  7 24  2 42 14.9960000  0  4G 3G21G17G23
  20409702.301    -1957547.782 6  -1525364.36622        19.500           1.500
  22757401.543    -4398157.118 5  -3180635.26621         9.500           0.500
  19590483.293    -7873634.347 7  -6135295.78124        27.250           3.875
  19548933.082   -24878295.421 7 -19128681.52923        24.250           2.906
 91  7 24  2 42 29.9960000  0  4G 3G21G17G23
  20414377.098    -1932989.519 6  -1506228.08921        19.750           1.406
  22745921.434    -4458510.590 5  -3227663.85421        10.000           0.563
  19590706.074    -7872465.621 7  -6134385.09924        27.500           3.688
  19543697.051   -24905809.573 7 -19150121.11723        24.000           2.750
 91  7 24  2 42 44.9960000  0  4G 3G21G17G23
  20419074.191    -1908311.163 7  -1486998.23721        20.250           1.344
  22734444.191    -4518816.606 5  -3274655.46621        10.000           0.594
  19590941.606    -7871230.341 7  -6133422.55024        27.000           3.813
  19538482.059   -24933212.071 7 -19171473.69723        23.750           2.781
 91  7 24  2 42 59.9960000  0  4G 3G21G17G23
  20423789.918    -1883511.064 6  -1467673.50821        19.250           1.281
  22722976.731    -4579073.133 5  -3321608.50921         9.750           0.594
  19591188.285    -7869926.811 7  -6132406.82524        27.500           3.875
  19533289.223   -24960500.798 7 -19192737.62823        24.250           2.844
 91  7 24  2 43 14.9960000  0  4G 3G21G17G23
  20428535.332    -1858590.059 7  -1448254.56621        20.250           1.469
  22711520.652    -4639280.934 5  -3368523.59321         9.500           0.688
  19591450.606    -7868556.008 7  -6131338.66524        27.250           3.688
  19528119.738   -24987676.858 7 -19213913.76423        24.750           2.875
 91  7 24  2 43 29.9960000  0  4G 3G21G17G23
  20433300.293    -1833547.408 7  -1428740.84821        20.000           1.438
  22700072.270    -4699438.688 5  -3415399.66321         9.500           0.688
  19591723.699    -7867116.688 7  -6130217.12824        27.500           3.656
  19522969.926   -25014739.109 7 -19235001.21923        24.500           2.844
 91  7 24  2 43 44.9960000  0  4G 3G21G17G23
  20438087.449    -1808388.265 7  -1409136.33921        20.500           1.344
  22688633.481    -4759551.516 5  -3462240.73321         9.500           0.656
  19592010.473    -7865614.023 7  -6129046.23224        27.500           3.781
  19517840.777   -25041692.867 7 -19256004.13423        24.250           2.813
 91  7 24  2 43 59.9960000  0  4G 3G21G17G23
  20442898.613    -1783107.540 7  -1389437.10521        20.750           1.438
  22677200.457    -4819613.896 5  -3509042.49321         9.750           0.500
  19592310.059    -7864042.934 8  -6127822.01424        28.000           3.688
  19512733.051   -25068532.750 7 -19276918.31923        23.500           2.813
 91  7 24  2 44 14.9960000  0  4G 3G21G17G23
  20447732.363    -1757708.159 7  -1369645.40821        20.500           1.438
  22665781.824    -4879628.495 5  -3555807.03621         9.500           0.625
  19592620.340    -7862406.139 7  -6126546.59624        27.750           3.750
  19507646.387   -25095261.584 7 -19297745.96923        23.750           2.875
 91  7 24  2 44 29.9960000  0  4G 3G21G17G23
  20452585.543    -1732190.036 6  -1349761.18721        19.750           1.469
  22654371.676    -4939594.942 5  -3602534.04921         9.750           0.688
  19592944.965    -7860703.441 8  -6125219.83124        28.000           3.875
  19502581.801   -25121879.031 7 -19318486.82623        24.500           2.719
 91  7 24  2 44 44.9960000  0  4G 3G21G17G23
  20457466.098    -1706550.101 7  -1329782.03921        20.750           1.406
  22642970.309    -4999510.101 5  -3649221.09321        10.250           0.656
  19593281.324    -7858931.709 7  -6123839.27224        27.250           3.813
  19497538.277   -25148382.254 7 -19339138.67223        24.000           2.719
 91  7 24  2 44 59.9960000  0  4G 3G21G17G23
  20462369.426    -1680790.089 7  -1309709.33022        21.500           1.500
  22631577.832    -5059375.271 5  -3695869.17421        10.000           0.531
  19593631.293    -7857092.365 7  -6122406.02324        27.000           3.813
  19492514.809   -25174772.491 7 -19359702.47523        23.500           2.750
 91  7 24  2 45 14.9960000  0  4G 3G21G17G23
  20467294.902    -1654910.542 7  -1289543.48121        21.500           1.469
  22620195.856    -5119190.853 5  -3742478.62221        10.250           0.531
  19593994.246    -7855186.294 7  -6120920.78124        27.000           3.813
  19487514.309   -25201050.538 7 -19380178.85923        23.500           2.656
 91  7 24  2 45 29.9960000  0  4G 3G21G17G23
  20472242.082    -1628912.613 7  -1269285.38921        21.750           1.406
  22608825.293    -5178957.299 5  -3789049.77821        10.250           0.531
  19594368.973    -7853213.992 7  -6119383.93124        26.500           3.688
  19482535.223   -25227216.967 7 -19400568.27323        23.000           2.656
 91  7 24  2 45 44.9960000  0  4G 3G21G17G23
  20477210.020    -1602795.370 7  -1248934.32321        21.500           1.375
  22597456.106    -5238673.676 5  -3835581.92221         9.750           0.500
  19594757.285    -7851174.630 7  -6117794.82624        27.000           3.719
  19477576.621   -25253270.985 7 -19420870.09023        23.250           2.656
 91  7 24  2 45 59.9960000  0  4G 3G21G17G23
  20482204.059    -1576560.665 7  -1228491.72321        21.750           1.406
  22586105.426    -5298341.611 5  -3882076.32321        10.500           0.500
  19595157.215    -7849069.893 7  -6116154.77924        26.500           3.719
  19472641.223   -25279214.485 7 -19441085.79623        23.750           2.750
 91  7 24  2 46 14.9960000  0  4G 3G21G17G23
  20487218.801    -1550205.776 7  -1207955.48621        20.750           1.344
  22574760.332    -5357958.107 5  -3928530.64521        11.000           0.469
  19595573.191    -7846897.064 7  -6114461.67624        27.250           3.656
  19467725.363   -25305044.686 7 -19461213.21223        24.000           2.625
 91  7 24  2 46 29.9960000  0  4G 3G21G17G23
  20492255.340    -1523732.531 7  -1187327.01121        21.250           1.375
  22563424.715    -5417524.741 5  -3974946.10421        11.000           0.531
  19595997.098    -7844657.788 7  -6112716.79324        26.500           3.625
  19462831.543   -25330763.212 7 -19481253.60423        24.250           2.594
 91  7 24  2 46 44.9960000  0  4G 3G21G17G23
  20497317.637    -1497139.358 7  -1166605.08321        21.250           1.313
  22552100.496    -5477039.452 6  -4021321.11721        12.000           0.500
  19596435.770    -7842350.291 7  -6110918.74624        25.750           3.656
  19457959.309   -25356368.299 7 -19501205.61123        23.750           2.750
 91  7 24  2 46 59.9960000  0  4G 3G21G17G23
  20502400.606    -1470425.990 7  -1145789.50421        21.250           1.281
  22540784.777    -5536501.920 6  -4067655.41321        12.000           0.531
  19596890.027    -7839974.520 7  -6109067.50924        26.250           3.656
  19453107.848   -25381859.888 7 -19521069.17623        23.500           2.781
 91  7 24  2 47 14.9960000  0  4G 3G21G17G23
  20507505.754    -1443590.897 7  -1124879.07721        21.000           1.219
  22529478.152    -5595910.030 6  -4113947.35921        12.250           0.438
  19597353.785    -7837528.276 7  -6107161.35524        26.000           3.656
  19448279.379   -25407236.049 7 -19540842.79723        24.000           2.719
 91  7 24  2 47 29.9960000  0  4G 3G21G17G23
  20512636.465    -1416637.278 7  -1103876.29021        21.250           1.219
  22518182.809    -5655266.982 5  -4160199.43821        11.750           0.406
  19597831.457    -7835014.894 7  -6105202.88224        26.000           3.719
  19443472.168   -25432499.643 7 -19560528.70123        24.000           2.750
 91  7 24  2 47 44.9960000  0  4G 3G21G17G23
  20517787.660    -1389567.272 7  -1082782.81921        21.250           1.188
  22506893.488    -5714574.507 6  -4206413.00221        12.000           0.406
  19598323.043    -7832436.476 7  -6103193.73624        25.750           3.563
  19438684.285   -25457652.712 7 -19580128.47823        23.500           2.625
 91  7 24  2 47 59.9960000  0  4G 3G21G17G23
  20522958.246    -1362376.764 7  -1061595.43721        20.250           1.156
  22495617.199    -5773828.151 5  -4252584.58521        11.500           0.563
  19598826.340    -7829788.609 7  -6101130.47124        25.500           3.625
  19433922.301   -25482691.320 7 -19599639.07323        24.500           2.688
 91  7 24  2 48 14.9960000  0  4G 3G21G17G23
  20528158.051    -1335069.974 7  -1040317.44321        21.000           1.188
  22484354.145    -5833031.912 6  -4298717.30121        12.250           0.438
  19599343.676    -7827075.585 7  -6099016.43224        25.750           3.625
  19429176.598   -25507619.701 7 -19619063.77023        23.750           2.656
 91  7 24  2 48 29.9960000  0  4G 3G21G17G23
  20533376.637    -1307646.305 7  -1018948.38121        21.250           1.125
  22473098.629    -5892184.942 6  -4344810.47421        12.500           0.500
  19599872.754    -7824296.677 7  -6096851.05624        26.250           3.625
  19424454.379   -25532436.981 7 -19638401.89723        23.500           2.656
 91  7 24  2 48 44.9960000  0  4G 3G21G17G23
  20538616.559    -1280102.040 7   -997485.35221        20.500           1.219
  22461853.520    -5951283.084 6  -4390860.90021        12.500           0.375
  19600416.512    -7821447.827 7  -6094631.18024        26.500           3.688
  19419752.285   -25557139.216 7 -19657650.38523        23.500           2.781
 91  7 24  2 48 59.9960000  0  4G 3G21G17G23
  20543882.481    -1252442.466 7   -975932.46721        21.000           1.313
  22450616.387    -6010331.446 6  -4436872.52021        12.750           0.406
  19600969.496    -7818534.122 7  -6092360.76824        25.500           3.719
  19415073.473   -25581731.714 7 -19676813.36323        24.000           2.750
 91  7 24  2 49 14.9960000  0  4G 3G21G17G23
  20549167.020    -1224664.050 7   -954286.97921        21.000           1.313
  22439390.246    -6069326.175 6  -4482842.36721        12.500           0.344
  19601536.246    -7815552.017 7  -6090037.05924        25.750           3.625
  19410414.926   -25606210.658 7 -19695887.84923        23.750           2.656
 91  7 24  2 49 29.9960000  0  4G 3G21G17G23
  20554475.637    -1196768.338 7   -932550.09821        20.750           1.281
  22428174.551    -6128268.607 6  -4528771.44721        12.500           0.469
  19602117.254    -7812502.998 7  -6087661.20424        25.500           3.813
  19405779.348   -25630577.556 7 -19714875.03523        24.000           2.719
 91  7 24  2 49 44.9960000  0  4G 3G21G17G23
  20559805.488    -1168760.437 7   -910725.79021        21.000           1.219
  22416966.535    -6187163.399 6  -4574663.41121        12.750           0.469
  19602708.902    -7809391.800 7  -6085236.89924        25.750           3.781
  19401161.090   -25654837.376 7 -19733778.78023        23.750           2.719
 91  7 24  2 49 59.9960000  0  4G 3G21G17G23
  20565158.762    -1140635.334 7   -888810.16521        20.750           1.219
  22405768.676    -6246005.572 6  -4620514.38221        12.750           0.438
  19603313.731    -7806213.848 7  -6082760.57524        25.250           3.844
  19396566.934   -25678985.386 7 -19752595.39723        24.000           2.719
 91  7 24  2 50 14.9960000  0  4G 3G21G17G23
  20570531.129    -1112392.467 7   -866802.77121        21.000           1.063
  22394583.606    -6304793.834 6  -4666323.34321        12.750           0.625
  19603932.395    -7802967.985 7  -6080231.33824        25.250           3.875
  19391994.645   -25703020.403 7 -19771323.96923        24.250           2.844
 91  7 24  2 50 29.9960000  0  4G 3G21G17G23
  20575929.473    -1084035.381 7   -844706.36521        21.250           1.156
  22383405.801    -6363531.669 6  -4712093.00321        12.750           0.531
  19604561.731    -7799657.723 7  -6077651.91324        25.250           3.875
  19387440.246   -25726946.068 7 -19789967.33523        23.750           2.938
 91  7 24  2 50 44.9960000  0  4G 3G21G17G23
  20581346.387    -1055558.824 7   -822516.87721        21.000           1.063
  22372238.941    -6422213.399 6  -4757818.93821        12.500           0.500
  19605204.770    -7796277.503 7  -6075017.98224        25.250           4.063
  19382908.410   -25750756.878 7 -19808521.19623        23.500           2.938
 91  7 24  2 50 59.9960000  0  4G 3G21G17G23
  20586786.590    -1026969.029 7   -800239.13721        21.000           1.125
  22361082.207    -6480844.966 6  -4803505.79021        12.250           0.563
  19605860.652    -7792833.450 7  -6072334.30724        25.000           4.125
  19378396.191   -25774458.973 7 -19826990.34723        23.250           2.938
 91  7 24  2 51 14.9960000  0  4G 3G21G17G23
  20592252.856     -998263.927 7   -777871.55921        22.250           1.063
  22349934.707    -6539424.091 5  -4849151.76921        11.500           0.594
  19606528.168    -7789323.484 7  -6069599.27324        24.250           4.156
  19373909.090   -25798050.419 7 -19845373.28123        24.000           2.906
 91  7 24  2 51 29.9960000  0  4G 3G21G17G23
  20597735.637     -969441.247 7   -755412.35621        21.750           1.063
  22338793.816    -6597948.020 5  -4894754.75421        11.000           0.594
  19607208.535    -7785744.898 7  -6066810.77524        24.000           4.219
  19369442.066   -25821528.542 7 -19863667.91023        24.250           2.875
 91  7 24  2 51 44.9960000  0  4G 3G21G17G23
  20603242.496     -940502.142 7   -732862.43421        20.750           1.063
  22327671.277    -6656417.760 5  -4940315.50421        11.250           0.531
  19607902.621    -7782098.926 7  -6063969.76524        24.750           4.094
  19364995.637   -25844894.500 7 -19881875.14623        24.250           2.750
 91  7 24  2 51 59.9960000  0  4G 3G21G17G23
  20608771.934     -911448.412 7   -710223.18621        21.000           1.031
  22316552.223    -6714834.937 5  -4985835.32721        10.750           0.531
  19608607.074    -7778387.270 7  -6061077.56724        24.000           4.094
  19360570.402   -25868150.128 7 -19899996.39223        25.000           2.750
 91  7 24  2 52 14.9960000  0  4G 3G21G17G23
  20614322.527     -882276.252 7   -687491.66321        20.750           0.938
  22305447.637    -6773195.331 5  -5031310.87621        10.750           0.563
  19609328.809    -7774605.763 7  -6058130.94624        24.500           4.188
  19356166.184   -25891291.217 7 -19918028.39323        24.500           2.844
 91  7 24  2 52 29.9960000  0  4G 3G21G17G23
  20619894.043     -852987.187 7   -664669.04621        20.500           1.063
  22294349.699    -6831500.081 5  -5076743.07021        10.500           0.500
  19610062.090    -7770756.030 7  -6055131.16124        24.500           4.031
  19351783.348   -25914319.163 7 -19935972.24223        24.500           2.875
 91  7 24  2 52 44.9960000  0  4G 3G21G17G23
  20625491.910     -823578.551 7   -641753.24721        20.500           1.031
  22283264.035    -6889746.378 5  -5122129.71821        10.750           0.594
  19610808.574    -7766835.346 7  -6052076.08724        24.750           4.094
  19347424.512   -25937231.430 7 -19953825.94623        25.000           2.875
 91  7 24  2 52 59.9960000  0  4G 3G21G17G23
  20631108.566     -794057.498 7   -618749.85621        20.250           0.969
  22272194.418    -6947940.929 5  -5167476.05421        10.750           0.563
  19611565.465    -7762850.576 7  -6048971.08224        24.250           4.063
  19343084.074   -25960034.950 7 -19971594.91223        24.750           2.938
 91  7 24  2 53 14.9960000  0  4G 3G21G17G23
  20636748.520     -764422.167 7   -595657.42321        20.000           1.063
  22261130.379    -7006081.732 5  -5212780.49821        10.500           0.531
  19612336.543    -7758799.897 7  -6045814.70924        24.000           4.094
  19338766.879   -25982727.860 7 -19989277.69123        25.500           2.969
 91  7 24  2 53 29.9960000  0  4G 3G21G17G23
  20642410.238     -734670.138 6   -572474.05921        19.750           1.000
  22250077.504    -7064166.039 5  -5258040.92821        10.500           0.594
  19613119.723    -7754680.484 7  -6042604.78124        24.000           4.063
  19334468.934   -26005307.456 7 -20006872.16623        25.250           2.875
 91  7 24  2 53 44.9960000  0  4G 3G21G17G23
  20648093.934     -704804.715 7   -549202.33321        20.250           1.125
  22239032.434    -7122196.683 5  -5303259.53821        10.500           0.500
  19613916.152    -7750495.438 7  -6039343.71224        23.500           4.094
  19330194.512   -26027776.999 7 -20024380.89123        25.500           2.938
 91  7 24  2 53 59.9960000  0  4G 3G21G17G23
  20653797.035     -674825.445 7   -525841.89721        20.000           1.063
  22228001.621    -7180172.985 5  -5348435.80221        10.750           0.531
  19614723.941    -7746244.047 7  -6036030.95224        24.000           4.125
  19325937.434   -26050135.888 7 -20041803.38923        25.000           2.938
 91  7 24  2 54 14.9960000  0  4G 3G21G17G23
  20659526.824     -644731.963 7   -502392.46121        20.250           1.063
  22216977.770    -7238094.286 5  -5393569.20721        10.500           0.625
  19615547.270    -7741925.839 7  -6032666.11124        24.500           4.125
  19321704.473   -26072383.677 7 -20059139.32123        25.000           2.938
 91  7 24  2 54 29.9960000  0  4G 3G21G17G23
  20665272.309     -614526.093 7   -478855.45121        20.000           1.094
  22205965.637    -7295962.130 5  -5438660.97721        10.500           0.719
  19616382.082    -7737542.541 7  -6029250.55724        24.500           4.031
  19317493.004   -26094522.115 7 -20076390.04023        25.500           2.875
 91  7 24  2 54 44.9960000  0  4G 3G21G17G23
  20671043.395     -584204.066 7   -455227.92621        20.000           1.063
  22194967.316    -7353772.400 5  -5483707.86821        10.750           0.656
  19617229.543    -7733090.280 7  -6025781.26724        24.500           4.188
  19313299.918   -26116547.235 7 -20093552.45623        25.500           2.969
 91  7 24  2 54 59.9960000  0  4G 3G21G17G23
  20676836.074     -553768.558 7   -431511.98121        20.250           1.000
  22183970.559    -7411527.451 5  -5528711.74021        10.250           0.656
  19618089.215    -7728571.578 7  -6022260.19724        24.000           4.250
  19309131.191   -26138461.654 7 -20110628.62423        25.500           2.906
 91  7 24  2 55 14.9960000  0  4G 3G21G17G23
  20682648.645     -523220.292 6   -407708.17421        19.750           0.969
  22172994.738    -7469227.648 5  -5573672.85721        11.500           0.688
  19618959.121    -7723987.132 7  -6018687.90524        23.250           4.281
  19304982.777   -26160265.973 7 -20127618.98923        26.000           2.844
 91  7 24  2 55 29.9960000  0  4G 3G21G17G23
  20688484.098     -492557.168 6   -383814.86021        19.250           1.031
  22162025.348    -7526870.763 5  -5618589.49821        11.750           0.625
  19619845.981    -7719334.671 7  -6015062.62024        24.000           4.250
  19300854.543   -26181957.979 7 -20144521.84323        25.500           2.750
 91  7 24  2 55 44.9960000  0  4G 3G21G17G23
  20694339.645     -461782.182 6   -359834.39621        19.250           1.031
  22151068.840    -7584459.314 5  -5663463.63321        11.750           0.750
  19620744.574    -7714616.590 7  -6011386.20424        24.750           4.219
  19296746.285   -26203540.370 7 -20161339.28123        25.000           2.938
 91  7 24  2 55 59.9960000  0  4G 3G21G17G23
  20700216.527     -430894.628 6   -335766.21321        18.500           0.938
  22140121.035    -7641992.407 6  -5708294.54121        12.000           0.656
  19621654.012    -7709832.431 7  -6007658.28524        24.750           4.281
  19292660.957   -26225012.591 7 -20178070.87423        25.500           2.906
 91  7 24  2 56 14.9960000  0  4G 3G21G17G23
  20706116.199     -399890.041 6   -311606.82421        17.250           0.969
  22129183.965    -7699465.280 6  -5753078.53021        12.750           0.656
  19622578.527    -7704977.455 7  -6003875.19324        25.500           4.344
  19288596.598   -26246369.827 7 -20194712.86923        25.250           2.781
 91  7 24  2 56 29.9960000  0  4G 3G21G17G23
  20712039.871     -368770.977 6   -287358.23121        18.500           0.938
  22118259.332    -7756879.986 6  -5797817.19221        13.000           0.719
  19623515.871    -7700053.927 7  -6000038.68324        25.000           4.344
  19284553.324   -26267614.437 7 -20211267.10223        25.000           2.813
 91  7 24  2 56 44.9960000  0  4G 3G21G17G23
  20717981.481     -337537.148 6   -263020.22221        18.250           0.906
  22107341.066    -7814236.106 6  -5842510.20521        13.000           0.781
  19624465.168    -7695061.540 7  -5996148.51724        25.500           4.344
  19280532.707   -26288746.397 7 -20227733.55623        25.000           2.906
 91  7 24  2 56 59.9960000  0  4G 3G21G17G23
  20723947.199     -306189.407 6   -238593.45121        18.500           0.969
  22096439.465    -7871534.097 6  -5887157.92321        13.500           0.781
  19625428.285    -7690001.063 7  -5992205.28924        25.500           4.281
  19276531.606   -26309766.147 7 -20244112.57323        24.500           2.844
 91  7 24  2 57 14.9960000  0  4G 3G21G17G23
  20729933.020     -274728.462 6   -214078.45721        18.000           0.969
  22085545.434    -7928774.350 6  -5931760.64621        13.500           0.813
  19626405.137    -7684872.745 7  -5988209.20024        25.500           4.188
  19272553.637   -26330674.263 7 -20260404.60423        24.750           2.844
 91  7 24  2 57 29.9960000  0  4G 3G21G17G23
  20735941.020     -243157.761 6   -189477.94021        18.250           0.938
  22074665.777    -7985960.056 6  -5976320.87521        13.750           0.875
  19627392.387    -7679679.917 7  -5984162.84524        25.500           4.219
  19268596.340   -26351474.141 7 -20276612.29023        25.000           2.906
 91  7 24  2 57 44.9960000  0  4G 3G21G17G23
  20741970.856     -211479.452 6   -164793.58421        17.750           0.938
  22063790.848    -8043093.124 6  -6020840.07321        14.000           0.906
  19628391.840    -7674424.735 7  -5980067.90324        25.500           4.281
  19264658.199   -26372167.832 7 -20292737.23323        24.750           2.844
 91  7 24  2 57 59.9960000  0  4G 3G21G17G23
  20748017.566     -179692.823 6   -140024.82221        17.250           0.938
  22052927.746    -8100172.532 6  -6065317.47021        14.000           0.813
  19629404.199    -7669106.340 7  -5975923.70624        25.750           4.375
  19260739.988   -26392754.695 7 -20308778.94023        25.000           2.844
 91  7 24  2 58 14.9960000  0  4G 3G21G17G23
  20754089.098     -147796.249 6   -115170.38221        16.750           1.000
  22042081.293    -8157195.952 6  -6109751.23821        14.750           0.781
  19630429.762    -7663722.533 7  -5971728.53624        26.000           4.406
  19256843.520   -26413232.556 7 -20324735.70623        25.000           2.969
 91  7 24  2 58 29.9960000  0  4G 3G21G17G23
  20760181.316     -115785.720 6    -90227.15721        17.250           0.844
  22031236.309    -8214159.392 6  -6154138.26521        14.750           0.781
  19631465.715    -7658269.552 7  -5967479.46124        25.500           4.281
  19252968.395   -26433597.625 7 -20340604.58123        25.000           3.063
 91  7 24  2 58 44.9960000  0  4G 3G21G17G23
  20766290.809      -83666.838 6    -65199.49521        16.500           0.969
  22020409.270    -8271067.998 6  -6198482.56521        14.750           0.813
  19632515.340    -7652752.564 7  -5963180.51925        25.750           4.500
  19249113.121   -26453855.158 7 -20356389.67423        25.000           2.906
 91  7 24  2 58 59.9960000  0  4G 3G21G17G23
  20772428.145      -51432.087 6    -40081.54321        16.250           0.781
  22009592.754    -8327914.021 6  -6242778.10721        14.750           0.906
  19633580.231    -7647163.955 7  -5958825.76525        26.000           4.656
  19245281.832   -26473997.618 7 -20372085.08823        25.250           2.750
 91  7 24  2 59 14.9960000  0  4G 3G21G17G23
  20778579.809      -19088.831 6    -14879.04921        16.250           0.875
  21998785.793    -8384704.379 6  -6287030.27721        14.750           0.844
  19634654.902    -7641510.924 7  -5954420.81425        26.250           4.719
  19241467.824   -26494032.302 7 -20387696.52223        24.750           2.656
 91  7 24  2 59 29.9960000  0  4G 3G21G17G23
  20784758.098       13365.942 6     10410.35221        16.250           0.906
  21987989.332    -8441435.803 6  -6331236.51521        14.000           0.719
  19635744.848    -7635790.442 7  -5949963.29925        27.000           4.531
  19237676.348   -26513955.988 7 -20403221.46623        25.250           2.781
 91  7 24  2 59 44.9960000  0  4G 3G21G17G23
  20790954.801       45929.312 6     35784.36121        16.250           0.844
  21977202.246    -8498110.994 6  -6375398.93721        14.000           0.781
  19636845.856    -7630005.128 7  -5945455.26725        26.750           4.625
  19233904.535   -26533771.675 7 -20418662.24823        24.500           2.969
 91  7 24  2 59 59.9960000  0  4G 3G21G17G23
  20797171.871       78605.161 6     61246.03321        16.250           0.875
  21966429.027    -8554725.710 6  -6419514.23021        14.000           0.813
  19637959.387    -7624150.862 7  -5940893.50725        26.750           4.594
  19230155.035   -26553475.200 7 -20434015.64023        24.500           2.875
 91  7 24  3  0 14.9960000  0  4G 3G21G17G23
  20803409.106      111389.023 6     86791.85721        16.250           0.906
  21955669.934    -8611283.990 6  -6463585.55421        15.000           0.938
  19639085.035    -7618231.760 7  -5936281.22825        26.750           4.594
  19226427.762   -26573070.907 7 -20449285.01423        24.750           2.969
 91  7 24  3  0 29.9960000  0  4G 3G21G17G23
  20809670.168      144281.345 6    112422.19321        16.750           0.906
  21944917.379    -8667785.041 6  -6507612.27421        14.500           0.813
  19640224.059    -7612247.233 7  -5931617.96625        27.250           4.625
  19222716.926   -26592558.197 7 -20464469.90023        24.250           3.063
 91  7 24  3  0 44.9960000  0  4G 3G21G17G23
  20815949.199      177281.869 6    138136.85621        16.500           0.844
  21934175.949    -8724228.945 6  -6551594.47321        14.250           0.844
  19641374.910    -7606197.493 7  -5926903.89424        27.000           4.406
  19219031.184   -26611937.201 7 -20479570.42023        25.000           2.938
 91  7 24  3  0 59.9960000  0  4G 3G21G17G23
  20822251.106      210395.855 6    163939.92021        16.500           0.844
  21923445.520    -8780610.067 6  -6595527.75321        14.000           0.781
  19642540.840    -7600077.129 7  -5922134.78124        27.250           4.438
  19215365.824   -26631202.461 7 -20494582.30323        25.250           2.844
 91  7 24  3  1 14.9960000  0  4G 3G21G17G23
  20828573.184      243614.896 6    189824.84321        17.250           0.844
  21912727.934    -8836936.278 6  -6639418.25221        13.750           0.750
  19643716.832    -7593894.173 7  -5917316.90124        27.750           4.375
  19211718.152   -26650362.141 7 -20509511.91423        25.000           2.875
 91  7 24  3  1 29.9960000  0  4G 3G21G17G23
  20834916.402      276944.647 6    215796.04921        17.000           0.875
  21902023.426    -8893202.126 6  -6683261.70021        13.750           0.656
  19644906.488    -7587643.147 7  -5912445.97924        27.500           4.406
  19208095.395   -26669410.940 7 -20524355.12823        25.500           2.906
 91  7 24  3  1 44.9960000  0  4G 3G21G17G23
  20841277.754      310386.229 6    241854.38521        16.250           0.969
  21891326.941    -8949405.943 6  -6727056.81421        13.250           0.656
  19646109.199    -7581322.536 7  -5907520.83024        27.750           4.469
  19204490.988   -26688347.394 7 -20539110.80123        25.250           2.875
 91  7 24  3  1 59.9960000  0  4G 3G21G17G23
  20847662.340      343934.655 6    267995.98421        16.000           0.875
  21880642.356    -9005552.300 6  -6770807.16121        13.250           0.594
  19647323.566    -7574937.031 8  -5902545.12224        28.000           4.438
  19200908.145   -26707176.325 7 -20553782.69223        25.250           2.844
 91  7 24  3  2 14.9960000  0  4G 3G21G17G23
  20854067.738      377590.437 6    294221.21821        17.000           0.875
  21869965.684    -9061640.345 6  -6814512.07921        12.000           0.625
  19648551.535    -7568485.985 7  -5897518.33924        27.750           4.313
  19197345.270   -26725897.116 7 -20568370.31923        25.500           2.813
 91  7 24  3  2 29.9960000  0  4G 3G21G17G23
  20860493.731      411352.842 6    320529.56821        16.750           0.906
  21859306.684    -9117670.417 6  -6858171.81521        12.250           0.719
  19649790.863    -7561969.796 7  -5892440.79724        27.500           4.313
  19193803.402   -26744510.228 7 -20582874.03623        25.500           2.844
 91  7 24  3  2 44.9960000  0  4G 3G21G17G23
  20866937.254      445223.051 6    346921.88921        16.500           0.781
  21848655.504    -9173641.023 6  -6901785.20021        12.250           0.688
  19651043.871    -7555387.232 7  -5887311.53324        27.750           4.219
  19190282.262   -26763014.397 7 -20597292.86523        25.750           2.813
 91  7 24  3  2 59.9950000  0  4G 3G21G17G23
  20873401.038      479198.599 6    373396.31521        16.500           0.875
  21838015.632    -9229548.420 5  -6945349.33221        11.500           0.750
  19652310.608    -7548738.822 8  -5882130.95724        28.500           4.188
  19186780.983   -26781408.554 7 -20611625.96523        25.250           2.781
 91  7 24  3  3 14.9950000  0  4G 3G21G17G23
  20879890.796      513284.400 6    399956.64721        17.250           0.750
  21827387.952    -9285399.469 5  -6988869.57121        11.750           0.594
  19653588.015    -7542023.095 8  -5876897.93024        28.750           4.219
  19183300.655   -26799694.770 7 -20625874.95923        25.000           2.813
 91  7 24  3  3 29.9950000  0  4G 3G21G17G23
  20886396.968      547477.264 6    426600.39221        17.250           0.875
  21816773.171    -9341190.628 5  -7032343.12621        11.250           0.656
  19654878.569    -7535241.084 8  -5871613.25524        28.500           4.188
  19179843.132   -26817872.331 7 -20640039.29123        25.500           2.750
 91  7 24  3  3 44.9950000  0  4G 3G21G17G23
  20892924.054      581774.049 6    453325.13221        17.250           0.875
  21806164.241    -9396924.955 5  -7075772.40521        11.500           0.625
  19656181.124    -7528395.791 8  -5866279.26624        28.500           4.031
  19176403.749   -26835944.582 7 -20654121.55823        25.250           2.781
 91  7 24  3  3 59.9950000  0  4G 3G21G17G23
  20899468.491      616177.078 6    480132.62721        17.000           0.938
  21795572.491    -9452599.738 6  -7119155.28921        12.000           0.688
  19657497.405    -7521484.506 8  -5860893.85724        28.500           4.031
  19172985.702   -26853908.677 7 -20668119.55323        25.750           2.719
 91  7 24  3  4 14.9950000  0  4G 3G21G17G23
  20906035.882      650690.545 6    507026.20621        16.500           0.844
  21784986.593    -9508210.572 5  -7162488.35721        11.500           0.781
  19658825.046    -7514503.144 8  -5855453.83924        28.000           4.125
  19169587.765   -26871760.576 7 -20682030.11623        25.500           2.781
 91  7 24  3  4 29.9950000  0  4G 3G21G17G23
  20912625.890      685313.019 6    534004.71821        17.000           0.813
  21774418.788    -9563758.420 5  -7205772.32321        11.750           0.781
  19660165.952    -7507452.762 8  -5849960.04324        28.000           4.156
  19166211.015   -26889501.607 7 -20695854.29123        25.250           2.656
 91  7 24  3  4 44.9950000  0  4G 3G21G17G23
  20919232.304      720037.533 6    561062.72921        17.000           0.844
  21763858.507    -9619249.864 6  -7249012.34221        12.000           0.813
  19661518.976    -7500340.253 8  -5844417.84024        28.000           4.125
  19162855.163   -26907138.435 7 -20709597.26823        25.250           2.844
 91  7 24  3  4 59.9950000  0  4G 3G21G17G23
  20925860.077      754866.687 6    588202.29121        17.500           0.781
  21753308.023    -9674682.289 5  -7292206.37021        11.750           0.656
  19662885.405    -7493162.944 8  -5838825.13924        28.000           4.063
  19159519.015   -26924668.510 7 -20723257.07023        25.250           2.813
 91  7 24  3  5 14.9950000  0  4G 3G21G17G23
  20932508.390      789800.390 6    615423.31721        17.250           0.781
  21742773.358    -9730055.450 6  -7335354.23421        12.250           0.719
  19664262.898    -7485920.606 7  -5833181.76924        27.750           4.031
  19156203.523   -26942091.847 7 -20736833.69323        25.500           2.844
 91  7 24  3  5 29.9950000  0  4G 3G21G17G23
  20939176.421      824839.717 6    642726.66121        17.000           0.781
  21732249.452    -9785367.653 6  -7378454.58421        13.000           0.719
  19665654.335    -7478611.695 8  -5827486.52624        28.000           4.000
  19152909.843   -26959406.908 7 -20750325.94523        25.750           2.719
 91  7 24  3  5 44.9950000  0  4G 3G21G17G23
  20945867.116      859989.051 6    670115.71421        17.000           0.750
  21721732.851    -9840614.182 6  -7421503.74821        12.750           0.750
  19667058.155    -7471231.790 7  -5821735.95724        27.750           4.063
  19149635.280   -26976609.271 7 -20763730.37923        25.500           2.844
 91  7 24  3  5 59.9950000  0  4G 3G21G17G23
  20952571.796      895243.853 6    697586.94521        15.750           0.844
  21711230.648    -9895799.409 6  -7464505.16021        12.750           0.719
  19668474.663    -7463785.151 8  -5815933.38624        28.000           4.125
  19146383.194   -26993703.405 7 -20777050.47823        26.000           2.750
 91  7 24  3  6 14.9950000  0  4G 3G21G17G23
  20959301.671      930601.190 6    725138.07221        15.750           0.750
  21700738.999    -9950925.861 6  -7507460.76621        13.250           0.844
  19669905.218    -7456274.723 7  -5810081.11024        27.750           3.969
  19143150.538   -27010692.190 7 -20790288.49023        26.000           2.875
 91  7 24  3  6 29.9950000  0  4G 3G21G17G23
  20966047.905      966061.543 6    752769.48321        15.500           0.875
  21690263.085   -10005992.674 6  -7550369.90721        14.000           0.844
  19671345.710    -7448699.486 7  -5804178.33924        27.500           3.969
  19139936.773   -27027574.891 7 -20803443.84123        26.000           2.813
 91  7 24  3  6 44.9950000  0  4G 3G21G17G23
  20972818.952     1001627.261 6    780482.99721        16.250           0.719
  21679792.952   -10060997.207 6  -7593230.51021        13.750           0.938
  19672799.929    -7441056.781 7  -5798222.98624        27.500           3.875
  19136745.663   -27044349.189 7 -20816514.71423        26.250           2.844
 91  7 24  3  6 59.9950000  0  4G 3G21G17G23
  20979606.108     1037296.522 6    808277.19421        15.500           0.750
  21669338.710   -10115940.930 6  -7636043.72521        13.750           0.969
  19674267.241    -7433348.539 8  -5792216.56724        28.000           3.969
  19133574.851   -27061016.794 7 -20829502.45223        26.000           2.844
 91  7 24  3  7 14.9950000  0  4G 3G21G17G23
  20986411.257     1073071.333 6    836153.63021        15.000           0.750
  21658900.835   -10170821.499 6  -7678807.73121        14.750           0.906
  19675748.054    -7425572.575 7  -5786157.38024        27.500           3.813
  19130423.616   -27077575.264 7 -20842405.15323        26.250           2.938
 91  7 24  3  7 29.9950000  0  4G 3G21G17G23
  20993239.757     1108953.482 6    864113.71321        15.000           0.719
  21648466.702   -10225636.831 6  -7721520.92621        14.500           1.000
  19677240.773    -7417726.811 7  -5780043.80924        27.250           3.875
  19127292.593   -27094023.020 7 -20855221.58023        26.500           2.906
 91  7 24  3  7 44.9950000  0  4G 3G21G17G23
  21000088.476     1144938.270 6    892153.78221        15.250           0.625
  21638047.733   -10280391.230 6  -7764186.61221        14.750           0.875
  19678745.273    -7409815.810 7  -5773879.40224        27.000           3.719
  19124184.601   -27110364.472 7 -20867955.17123        26.750           2.875
 91  7 24  3  7 59.9950000  0  4G 3G21G17G23
  21006956.733     1181028.479 6    920275.99921        14.750           0.656
  21627638.023   -10335081.682 6  -7806802.48121        15.000           0.906
  19680263.491    -7401836.575 7  -5767661.82424        27.250           3.844
  19121094.546   -27126596.722 7 -20880603.66623        26.250           2.719
 91  7 24  3  8 14.9950000  0  4G 3G21G17G23
  21013846.015     1217225.735 6    948481.62621        15.500           0.688
  21617241.780   -10389706.062 6  -7849366.87121        15.000           0.813
  19681795.960    -7393786.986 7  -5761389.42324        27.000           3.781
  19118025.124   -27142718.000 7 -20893165.70023        25.750           2.781
 91  7 24  3  8 29.9950000  0  4G 3G21G17G23
  21020751.890     1253526.272 6    976767.73321        15.000           0.750
  21606861.741   -10444267.888 6  -7891882.51221        15.250           0.844
  19683339.694    -7385670.761 7  -5755065.09624        27.000           3.781
  19114978.030   -27158731.965 7 -20905644.11223        25.750           2.750
 91  7 24  3  8 44.9950000  0  4G 3G21G17G23
  21027680.796     1289933.562 6   1005137.01921        15.250           0.625
  21596492.163   -10498763.433 6  -7934346.50621        15.250           0.906
  19684897.702    -7377484.393 7  -5748686.11624        27.000           3.750
  19111953.194   -27174635.102 7 -20918036.16523        26.000           2.750
 91  7 24  3  8 59.9950000  0  4G 3G21G17G23
  21034629.921     1326443.635 6   1033586.40221        15.250           0.688
  21586132.132   -10553196.043 6  -7976761.45921        15.250           0.938
  19686469.233    -7369231.276 7  -5742255.12224        27.500           3.719
  19108946.452   -27190431.087 7 -20930344.71323        25.750           2.719
 91  7 24  3  9 14.9950000  0  4G 3G21G17G23
  21041594.585     1363058.828 6   1062117.70121        14.500           0.594
  21575787.093   -10607563.244 6  -8019125.44121        15.000           0.875
  19688051.460    -7360909.261 7  -5735770.43724        26.750           3.625
  19105962.687   -27206117.507 7 -20942567.89923        26.500           2.719
 91  7 24  3  9 29.9950000  0  4G 3G21G17G23
  21048584.054     1399780.069 6   1090731.62321        14.500           0.719
  21565453.983   -10661863.688 6  -8061437.40421        15.250           0.938
  19689648.741    -7352516.909 7  -5729230.94823        26.500           3.469
  19102999.085   -27221693.190 7 -20954704.78823        27.000           2.750
 91  7 24  3  9 44.9950000  0  4G 3G21G17G23
  21055592.312     1436602.145 6   1119424.10621        15.250           0.594
  21555135.515   -10716102.554 6  -8103701.38321        16.000           0.875
  19691257.608    -7344059.160 7  -5722640.49624        26.000           3.563
  19100054.390   -27237163.337 7 -20966759.45123        26.500           2.594
 91  7 24  3  9 59.9950000  0  4G 3G21G17G23
  21062619.468     1473526.706 6   1148196.44921        15.500           0.750
  21544824.343   -10770277.559 6  -8145915.60521        16.250           0.875
  19692880.085    -7335534.332 7  -5715997.77823        25.500           3.469
  19097131.983   -27252526.134 7 -20978730.45723        26.500           2.563
 91  7 24  3 10 14.9950000  0  4G 3G21G17G23
  21069662.804     1510554.845 6   1177049.52721        15.000           0.750
  21534526.921   -10824387.175 6  -8188078.86521        16.250           0.938
  19694515.882    -7326940.917 7  -5709301.61023        25.500           3.438
  19094227.671   -27267780.341 7 -20990616.84523        26.000           2.625
 91  7 24  3 10 29.9950000  0  4G 3G21G17G23
  21076731.351     1547684.607 6   1205981.76721        15.250           0.750
  21524243.054   -10878433.299 6  -8230192.65721        16.500           0.906
  19696164.007    -7318280.959 7  -5702553.59123        26.000           3.375
  19091345.671   -27282927.974 7 -21002420.19323        26.250           2.594
 91  7 24  3 10 44.9950000  0  4G 3G21G17G23
  21083814.273     1584915.657 6   1234992.92821        16.000           0.594
  21513971.390   -10932415.809 6  -8272256.87421        15.750           1.031
  19697824.483    -7309554.511 7  -5695753.77023        26.000           3.438
  19088483.585   -27297969.148 7 -21014140.58423        26.000           2.688
 91  7 24  3 10 59.9950000  0  4G 3G21G17G23
  21090918.749     1622251.455 6   1264085.72621        15.750           0.688
  21503709.179   -10986330.778 6  -8314268.46121        15.250           1.094
  19699498.929    -7300757.699 7  -5688899.11824        26.250           3.500
  19085642.358   -27312900.022 7 -21025775.02423        26.000           2.594
 91  7 24  3 11 14.9950000  0  4G 3G21G17G23
  21098044.929     1659690.398 6   1293258.88621        15.750           0.688
  21493461.749   -11040179.662 6  -8356228.57321        15.000           1.031
  19701187.069    -7291892.069 7  -5681990.83623        26.750           3.406
  19082821.437   -27327722.371 7 -21037324.90123        25.750           2.688
 91  7 24  3 11 29.9950000  0  4G 3G21G17G23
  21105189.218     1697231.260 6   1322511.46821        16.000           0.656
  21483227.038   -11093963.144 6  -8398137.71421        15.000           1.000
  19702885.085    -7282958.379 7  -5675029.51823        26.500           3.344
  19080023.343   -27342437.155 7 -21048790.96323        26.250           2.719
 91  7 24  3 11 44.9950000  0  4G 3G21G17G23
  21112352.257     1734876.342 6   1351845.24921        15.250           0.594
  21473007.741   -11147678.669 6  -8439993.90321        15.500           1.000
  19704600.562    -7273954.226 7  -5668013.29723        26.750           3.406
  19077242.757   -27357042.031 7 -21060171.38023        26.250           2.719
 91  7 24  3 11 59.9950000  0  4G 3G21G17G23
  21119535.108     1772620.455 6   1381256.19721        15.250           0.625
  21462797.093   -11201331.096 6  -8481800.92821        15.500           1.063
  19706324.616    -7264884.592 7  -5660946.05423        26.000           3.406
  19074483.616   -27371541.837 7 -21071469.91723        26.000           2.656
 91  7 24  3 12 14.9950000  0  4G 3G21G17G23
  21126734.398     1810462.501 6   1410743.47721        14.750           0.563
  21452598.030   -11254921.218 6  -8523559.39921        14.750           1.063
  19708063.124    -7255750.126 7  -5653828.29123        26.750           3.406
  19071743.796   -27385937.769 7 -21082687.52623        26.000           2.594
 91  7 24  3 12 29.9950000  0  4G 3G21G17G23
  21133956.507     1848407.102 6   1440310.64621        14.750           0.531
  21442411.554   -11308443.935 6  -8565265.36321        14.750           1.031
  19709815.640    -7246546.216 7  -5646656.41523        27.000           3.313
  19069025.054   -27400225.026 7 -21093820.44123        25.750           2.719
 91  7 24  3 12 44.9950000  0  4G 3G21G17G23
  21141194.718     1886448.126 6   1469952.94021        14.500           0.563
  21432241.835   -11361905.083 6  -8606923.33721        15.000           1.094
  19711579.429    -7237278.640 7  -5639434.92923        27.250           3.344
  19066325.273   -27414409.415 7 -21104873.20423        25.750           2.781
 91  7 24  3 12 59.9950000  0  4G 3G21G17G23
  21148450.710     1924587.796 6   1499672.10921        14.250           0.594
  21422079.023   -11415302.040 6  -8648531.29121        15.000           1.125
  19713352.929    -7227944.899 7  -5632161.88423        26.000           3.406
  19063646.913   -27428488.596 7 -21115843.98523        25.500           2.625
 91  7 24  3 13 14.9950000  0  4G 3G21G17G23
  21155727.874     1962825.846 6   1529467.92821        14.000           0.469
  21411930.718   -11468635.018 6  -8690089.40421        14.500           1.031
  19715143.108    -7218545.423 7  -5624837.61823        27.000           3.313
  19060988.054   -27442463.101 7 -21126733.20723        25.500           2.625
 91  7 24  3 13 29.9950000  0  4G 3G21G17G23
  21163024.413     2001167.129 6   1559344.20321        14.500           0.594
  21401794.358   -11521898.615 6  -8731593.45221        14.000           1.031
  19716945.366    -7209074.816 7  -5617457.93123        26.750           3.438
  19058349.116   -27456327.548 7 -21137536.66323        25.750           2.500
 91  7 24  3 13 44.9950000  0  4G 3G21G17G23
  21170342.327     2039609.431 6   1589299.19321        14.750           0.531
  21391671.202   -11575094.552 6  -8773044.78121        14.000           1.031
  19718759.796    -7199535.083 7  -5610024.36823        26.500           3.375
  19055730.702   -27470084.076 7 -21148256.02823        25.500           2.594
 91  7 24  3 13 59.9950000  0  4G 3G21G17G23
  21177673.968     2078150.284 6   1619330.98221        14.500           0.625
  21381560.413   -11628225.176 6  -8814445.22221        14.000           0.906
  19720588.327    -7189928.460 7  -5602538.69123        27.000           3.344
  19053131.960   -27483735.143 7 -21158893.21522        24.750           2.469
 91  7 24  3 14 14.9950000  0  4G 3G21G17G23
  21185027.733     2116791.784 6   1649441.18121        14.250           0.656
  21371463.765   -11681287.898 6  -8855792.75021        14.250           0.969
  19722431.296    -7180252.412 7  -5594998.91523        26.750           3.250
  19050556.960   -27497278.241 7 -21169446.26822        26.000           2.406
 91  7 24  3 14 29.9950000  0  4G 3G21G17G23
  21192397.437     2155528.962 6   1679625.95521        14.000           0.625
  21361378.233   -11734287.542 6  -8897091.12121        14.000           0.938
  19724284.585    -7170511.974 7  -5587408.96323        27.000           3.156
  19047999.671   -27510718.518 7 -21179919.20322        26.000           2.344
 91  7 24  3 14 44.9950000  0  4G 3G21G17G23
  21199790.171     2194366.756 6   1709889.10021        14.000           0.563
  21351305.648   -11787218.590 6  -8938336.04921        14.250           0.969
  19726149.593    -7160701.954 7  -5579764.80023        26.250           3.375
  19045461.530   -27524050.735 7 -21190307.93022        25.750           2.375
 91  7 24  3 14 59.9950000  0  4G 3G21G17G23
  21207200.444     2233304.171 6   1740229.89321        13.750           0.594
  21341246.874   -11840081.716 6  -8979528.04321        14.000           0.969
  19728030.976    -7150823.054 7  -5572066.95623        26.500           3.438
  19042944.976   -27537275.673 7 -21200613.07122        26.000           2.375
 91  7 24  3 15 14.9950000  0  4G 3G21G17G23
  21214627.788     2272335.427 6   1770643.79521        13.750           0.594
  21331196.358   -11892882.383 6  -9020671.37021        13.250           1.000
  19729923.101    -7140880.657 7  -5564319.63424        26.250           3.594
  19040447.319   -27550399.225 7 -21210839.20823        26.250           2.500
 91  7 24  3 15 29.9950000  0  4G 3G21G17G23
  21222074.726     2311464.369 6   1801133.82121        14.000           0.438
  21321164.015   -11945616.287 6  -9061762.68821        13.500           1.031
  19731828.187    -7130870.735 7  -5556519.70323        26.000           3.469
  19037969.358   -27563417.211 7 -21220983.09022        26.000           2.344
 91  7 24  3 15 44.9950000  0  4G 3G21G17G23
  21229534.773     2350688.611 6   1831698.11721        13.000           0.469
  21311139.140   -11998285.564 6  -9102803.64521        13.250           1.000
  19733744.085    -7120795.580 7  -5548668.93424        26.000           3.531
  19035513.265   -27576332.107 7 -21231046.63622        26.500           2.344
 91  7 24  3 15 59.9950000  0  4G 3G21G17G23
  21237017.968     2390010.465 6   1862338.45721        13.250           0.469
  21301131.046   -12050887.591 6  -9143792.20721        13.500           1.000
  19735673.358    -7110652.624 7  -5540765.33623        25.500           3.375
  19033074.124   -27589141.181 7 -21241027.72322        26.000           2.313
 91  7 24  3 16 14.9950000  0  4G 3G21G17G23
  21244523.476     2429432.609 6   1893056.96321        14.250           0.469
  21291130.335   -12103419.335 6  -9184725.98621        13.500           0.969
  19737617.608    -7100438.722 7  -5532806.45623        25.500           3.375
  19030656.835   -27601841.654 7 -21250924.18822        26.000           2.344
 91  7 24  3 16 29.9950000  0  4G 3G21G17G23
  21252041.132     2468951.064 6   1923850.52021        13.750           0.500
  21281153.015   -12155884.407 6  -9225607.81621        14.000           1.031
  19739573.421    -7090157.749 7  -5524795.31423        25.750           3.406
  19028262.921   -27614437.396 7 -21260739.04222        26.750           2.313
 91  7 24  3 16 44.9950000  0  4G 3G21G17G23
  21259576.648     2508565.210 6   1954718.62721        13.000           0.500
  21271179.335   -12208282.977 6  -9266437.81421        14.250           1.125
  19741544.233    -7079809.853 7  -5516732.01923        26.000           3.219
  19025883.913   -27626928.942 7 -21270472.69822        26.000           2.344
 91  7 24  3 16 59.9950000  0  4G 3G21G17G23
  21267137.765     2548271.055 6   1985658.20221        14.000           0.500
  21261220.038   -12260618.924 6  -9307219.02621        14.500           1.063
  19743526.140    -7069399.099 7  -5508619.74223        26.000           3.250
  19023526.132   -27639320.290 7 -21280128.29022        25.750           2.250
 91  7 24  3 17 14.9950000  0  4G 3G21G17G23
  21274710.515     2588071.857 6   2016671.75621        13.750           0.469
  21251271.335   -12312888.556 6  -9347948.56621        14.000           1.000
  19745518.405    -7058921.805 7  -5500455.62523        25.250           3.156
  19021187.616   -27651607.821 7 -21289702.98022        26.500           2.469
 91  7 24  3 17 29.9950000  0  4G 3G21G17G23
  21282302.413     2627965.367 6   2047757.56721        13.750           0.563
  21241337.288   -12365093.723 6  -9388627.87421        14.250           1.063
  19747523.233    -7048380.163 7  -5492241.37423        24.750           3.313
  19018868.788   -27663793.695 7 -21299198.45722        27.000           2.438
 91  7 24  3 17 44.9950000  0  4G 3G21G17G23
  21289912.483     2667954.193 6   2078917.63521        13.250           0.469
  21231416.429   -12417231.335 6  -9429254.54821        15.000           1.094
  19749543.202    -7037771.265 7  -5483974.70623        25.250           3.281
  19016569.538   -27675875.191 7 -21308612.60422        26.750           2.344
 91  7 24  3 17 59.9950000  0  4G 3G21G17G23
  21297538.632     2708036.775 6   2110150.75921        12.750           0.438
  21221506.905   -12469302.661 6  -9469829.56121        15.500           1.094
  19751574.804    -7027096.359 7  -5475656.60223        25.750           3.250
  19014290.858   -27687853.603 7 -21317946.42122        26.500           2.375
 91  7 24  3 18 14.9950000  0  4G 3G21G17G23
  21305181.444     2748213.854 6   2141457.56121        12.500           0.500
  21211613.929   -12521306.676 6  -9510352.13821        16.000           1.156
  19753617.835    -7016354.439 7  -5467286.27523        25.250           3.125
  19012031.187   -27699728.330 7 -21327199.44822        26.500           2.375
 91  7 24  3 18 29.9950000  0  4G 3G21G17G23
  21312849.765     2788481.917 6   2172835.20421        14.000           0.469
  21201730.796   -12573246.537 6  -9550824.71521        16.500           1.250
  19755675.210    -7005548.987 7  -5458866.44623        24.750           3.281
  19009790.351   -27711502.717 7 -21336374.28822        26.500           2.219
 91  7 24  3 18 44.9950000  0  4G 3G21G17G23
  21320528.702     2828845.596 6   2204287.37521        13.250           0.469
  21191856.038   -12625117.219 6  -9591243.38221        16.000           1.125
  19757743.655    -6994674.829 7  -5450393.08123        24.500           3.344
  19007570.241   -27723171.926 7 -21345467.16822        27.500           2.281
 91  7 24  3 18 59.9950000  0  4G 3G21G17G23
  21328222.694     2869302.571 6   2235812.24221        12.750           0.406
  21181999.124   -12676920.728 6  -9631609.70921        16.250           1.156
  19759826.507    -6983734.327 7  -5441868.02623        24.500           3.313
  19005369.476   -27734738.003 7 -21354479.68822        27.500           2.375
 91  7 24  3 19 14.9950000  0  4G 3G21G17G23
  21335944.483     2909852.747 6   2267409.72821        13.750           0.438
  21172154.007   -12728656.752 6  -9671923.45121        16.750           1.156
  19761920.077    -6972727.031 7  -5433290.91223        24.500           3.281
  19003187.632   -27746200.871 7 -21363411.78522        27.250           2.313
 91  7 24  3 19 29.9950000  0  4G 3G21G17G23
  21343677.046     2950496.724 6   2299080.31021        12.750           0.406
  21162321.757   -12780324.480 6  -9712183.97521        16.750           1.094
  19764028.163    -6961652.387 7  -5424661.32723        24.500           3.313
  19001025.390   -27757559.937 7 -21372262.99922        27.750           2.281
 91  7 24  3 19 44.9950000  0  4G 3G21G17G23
  21351427.937     2991231.345 6   2330821.53221        12.250           0.500
  21152503.710   -12831926.558 6  -9752393.34021        17.250           1.094
  19766149.140    -6950513.002 7  -5415981.28623        25.000           3.281
  18998884.554   -27768818.144 8 -21381035.61922        28.000           2.313
 91  7 24  3 19 59.9950000  0  4G 3G21G17G23
  21359197.929     3032055.375 6   2362632.42321        12.500           0.531
  21142694.858   -12883463.775 6  -9792552.16821        17.000           1.188
  19768279.843    -6939309.928 7  -5407251.62923        24.750           3.406
  18996760.226   -27779976.591 8 -21389730.50822        28.000           2.281
 91  7 24  3 20 14.9950000  0  4G 3G21G17G23
  21366985.132     3072976.991 6   2394519.33421        12.000           0.563
  21132904.062   -12934927.721 6  -9832653.90121        17.000           1.188
  19770426.179    -6928034.754 7  -5398465.78223        25.000           3.344
  18994657.757   -27791027.041 8 -21398341.24122        28.250           2.188
 91  7 24  3 20 29.9950000  0  4G 3G21G17G23
  21374789.390     3113984.178 6   2426472.94721        12.000           0.438
  21123120.640   -12986330.165 6  -9872707.71021        16.750           1.000
  19772584.569    -6916699.231 7  -5389632.90423        25.250           3.313
  18992573.257   -27801981.383 8 -21406877.08422        28.500           2.250
 91  7 24  3 20 44.9950000  0  4G 3G21G17G23
  21382605.116     3155080.241 5   2458495.80121        11.250           0.406
  21113354.210   -13037667.324 6  -9912710.65721        17.750           1.000
  19774752.499    -6905299.787 7  -5380750.22623        24.750           3.344
  18990507.632   -27812835.998 8 -21415335.21922        28.500           2.188
 91  7 24  3 20 59.9950000  0  4G 3G21G17G23
  21390445.960     3196265.506 6   2490588.18221        12.000           0.500
  21103597.038   -13088938.352 6  -9952662.05621        17.500           1.125
  19776933.491    -6893835.596 7  -5371817.09623        24.750           3.438
  18988460.921   -27823590.437 8 -21423715.30022        28.750           2.188
 91  7 24  3 21 14.9950000  0  4G 3G21G17G23
  21398300.452     3237541.456 5   2522751.21121        11.750           0.438
  21093850.085   -13140141.508 6  -9992560.57921        17.500           1.063
  19779125.194    -6882305.345 7  -5362832.48723        24.250           3.313
  18986433.210   -27834243.258 8 -21432016.19422        29.250           2.250
 91  7 24  3 21 29.9950000  0  4G 3G21G17G23
  21406171.866     3278908.157 5   2554984.95721        11.250           0.344
  21084121.788   -13191276.387 6 -10032405.89621        17.500           1.125
  19781334.210    -6870708.714 7  -5353796.15723        24.750           3.344
  18984425.390   -27844794.109 8 -21440237.63022        29.250           2.281
 91  7 24  3 21 44.9950000  0  4G 3G21G17G23
  21414059.233     3320365.784 5   2587289.54521        11.250           0.313
  21074402.296   -13242342.363 6 -10072197.52721        17.250           1.094
  19783553.374    -6859045.234 7  -5344707.73723        24.500           3.375
  18982436.976   -27855242.598 8 -21448379.30422        29.500           2.250
 91  7 24  3 21 59.9950000  0  4G 3G21G17G23
  21421967.015     3361912.524 5   2619663.58721        11.500           0.469
  21064698.507   -13293340.791 6 -10111936.51321        17.500           1.188
  19785786.327    -6847316.152 7  -5335568.19523        24.750           3.438
  18980468.687   -27865590.487 8 -21456442.58322        29.500           2.281
 91  7 24  3 22 14.9950000  0  4G 3G21G17G23
  21429891.921     3403553.455 5   2652111.01221        11.750           0.438
  21055008.632   -13344266.651 6 -10151618.95321        17.500           1.250
  19788031.124    -6835516.543 7  -5326373.69523        23.750           3.281
  18978519.726   -27875832.693 8 -21464423.51722        29.500           2.375
 91  7 24  3 22 29.9950000  0  4G 3G21G17G23
  21437833.765     3445282.748 5   2684627.28621        11.750           0.469
  21045329.476   -13395125.222 6 -10191248.95421        17.250           1.281
  19790289.398    -6823651.429 7  -5317128.16123        24.000           3.406
  18976588.827   -27885974.634 8 -21472326.32522        29.250           2.313
 91  7 24  3 22 44.9950000  0  4G 3G21G17G23
  21445787.796     3487101.347 5   2717213.14621        11.250           0.375
  21035663.937   -13445915.182 6 -10230825.49521        17.000           1.219
  19792559.640    -6811719.898 7  -5307830.86924        23.750           3.500
  18974677.718   -27896015.411 8 -21480150.30822        30.000           2.250
 91  7 24  3 22 59.9950000  0  4G 3G21G17G23
  21453763.288     3529008.224 5   2749867.81021        11.000           0.438
  21026014.101   -13496637.176 6 -10270349.06821        17.250           1.219
  19794841.116    -6799722.811 7  -5298482.49223        23.250           3.469
  18972787.413   -27905955.967 8 -21487896.18522        30.250           2.281
 91  7 24  3 23 14.9950000  0  4G 3G21G17G23
  21461755.468     3571004.056 5   2782591.78721        11.750           0.469
  21016373.351   -13547290.282 6 -10309818.97321        17.250           1.281
  19797137.468    -6787659.231 7  -5289082.30823        23.250           3.469
  18970914.069   -27915795.300 8 -21495563.18822        29.750           2.250
 91  7 24  3 23 29.9950000  0  4G 3G21G17G23
  21469767.640     3613087.488 5   2815384.03121        11.750           0.406
  21006746.171   -13597875.479 6 -10349235.96121        17.000           1.250
  19799445.327    -6775530.121 7  -5279631.05523        22.750           3.406
  18969060.921   -27925534.776 8 -21503152.38722        30.250           2.375
 91  7 24  3 23 44.9950000  0  4G 3G21G17G23
  21477788.476     3655258.735 5   2848244.67321        11.750           0.438
  20997135.937   -13648392.177 6 -10388599.56621        18.000           1.156
  19801768.398    -6763334.941 7  -5270128.33223        23.000           3.250
  18967227.858   -27935173.978 8 -21510663.44522        30.250           2.250
 91  7 24  3 23 59.9950000  0  4G 3G21G17G23
  21485831.171     3697518.875 5   2881174.59821        11.750           0.344
  20987537.101   -13698838.805 6 -10427908.57921        18.000           1.219
  19804099.601    -6751072.396 7  -5260573.10723        22.250           3.219
  18965412.624   -27944711.668 8 -21518095.40622        30.000           2.375
 91  7 24  3 24 14.9950000  0  4G 3G21G17G23
  21493885.765     3739864.696 5   2914171.27921        11.500           0.406
  20977947.187   -13749218.219 6 -10467165.22021        17.000           1.281
  19806445.249    -6738745.462 7  -5250967.70423        22.750           3.125
  18963615.648   -27954150.990 8 -21525450.71922        30.000           2.344
 91  7 24  3 24 29.9950000  0  4G 3G21G17G23
  21501961.921     3782299.179 5   2947237.05921        11.250           0.344
  20968372.468   -13799527.116 6 -10506366.91521        16.250           1.281
  19808805.124    -6726350.961 7  -5241309.65523        23.250           3.063
  18961838.444   -27963488.625 8 -21532726.79622        30.250           2.375
 91  7 24  3 24 44.9950000  0  4G 3G21G17G23
  21510054.655     3824819.424 5   2980369.66321        11.750           0.344
  20958813.124   -13849768.265 6 -10545515.82121        16.000           1.250
  19811174.968    -6713891.698 7  -5231601.14623        22.750           3.063
  18960081.030   -27972727.411 8 -21539925.84522        30.500           2.406
 91  7 24  3 24 59.9950000  0  4G 3G21G17G23
  21518163.648     3867428.136 6   3013571.21021        12.250           0.406
  20949267.429   -13899938.468 6 -10584609.44021        16.000           1.250
  19813558.812    -6701364.507 7  -5221839.70123        22.000           3.219
  18958341.952   -27981864.702 8 -21547045.80522        30.500           2.313
 91  7 24  3 25 14.9950000  0  4G 3G21G17G23
  21526291.437     3910120.530 6   3046837.96221        12.500           0.281
  20939732.468   -13950041.930 6 -10623651.05421        15.750           1.250
  19815955.687    -6688773.816 7  -5212028.78223        22.250           3.000
  18956623.358   -27990904.847 8 -21554090.07122        31.000           2.375
 91  7 24  3 25 29.9950000  0  4G 3G21G17G23
  21534431.882     3952896.074 6   3080169.51621        12.500           0.375
  20930211.585   -14000079.004 6 -10662640.93621        15.750           1.281
  19818363.390    -6676120.022 7  -5202168.68223        22.750           3.125
  18954920.187   -27999848.525 8 -21561059.16422        30.250           2.313
 91  7 24  3 25 44.9950000  0  4G 3G21G17G23
  21542583.429     3995755.935 5   3113566.74621        11.750           0.375
  20920701.296   -14050048.160 6 -10701577.89321        15.250           1.250
  19820782.296    -6663401.746 7  -5192258.33723        22.750           3.063
  18953237.585   -28008694.074 8 -21567951.79722        30.500           2.406
 91  7 24  3 25 59.9950000  0  4G 3G21G17G23
  21550755.030     4038703.096 5   3147032.00821        11.000           0.469
  20911204.023   -14099946.132 6 -10740459.38521        15.500           1.250
  19823214.858    -6650615.764 7  -5182295.23823        22.750           3.000
  18951572.499   -28017438.632 8 -21574765.73522        30.500           2.406
 91  7 24  3 26 14.9950000  0  4G 3G21G17G23
  21558944.218     4081735.065 5   3180563.35521        11.000           0.438
  20901723.726   -14149774.820 6 -10779286.89421        15.750           1.250
  19825661.773    -6637764.062 7  -5172280.92723        23.500           2.969
  18949928.148   -28026084.343 8 -21581502.65123        30.500           2.563
 91  7 24  3 26 29.9950000  0  4G 3G21G17G23
  21567153.671     4124854.153 5   3214162.59021        11.500           0.375
  20892256.976   -14199531.571 6 -10818058.35821        15.500           1.063
  19828120.640    -6624843.853 7  -5162213.23423        23.750           2.938
  18948301.601   -28034628.617 8 -21588160.52622        30.000           2.469
 91  7 24  3 26 44.9950000  0  4G 3G21G17G23
  21575371.866     4168056.170 5   3247826.45521        11.750           0.469
  20882800.046   -14249220.343 6 -10856776.85221        15.750           1.250
  19830591.444    -6611859.406 7  -5152095.48423        23.750           2.969
  18946695.523   -28043075.736 8 -21594742.69223        30.000           2.531
 91  7 24  3 26 59.9950000  0  4G 3G21G17G23
  21583608.585     4211341.371 5   3281555.13921        11.500           0.375
  20873358.351   -14298840.479 6 -10895441.84921        16.000           1.125
  19833074.546    -6598810.305 7  -5141927.35323        23.750           2.938
  18945104.538   -28051425.459 8 -21601248.96523        29.500           2.531
 91  7 24  3 27 14.9950000  0  4G 3G21G17G23
  21591865.585     4254713.293 5   3315351.39621        11.000           0.375
  20863928.437   -14348388.067 6 -10934050.32121        15.750           1.188
  19835571.765    -6585692.597 7  -5131705.76223        24.250           2.938
  18943533.804   -28059674.103 8 -21607676.47523        29.000           2.656
 91  7 24  3 27 29.9950000  0  4G 3G21G17G23
  21600126.749     4298165.204 5   3349209.98221        10.250           0.344
  20854511.679   -14397869.546 6 -10972607.28021        15.500           1.219
  19838079.671    -6572512.680 7  -5121435.69823        24.250           2.813
  18941983.726   -28067828.121 8 -21614030.26023        29.750           2.500
 91  7 24  3 27 44.9950000  0  4G 3G21G17G23
  21608413.905     4341700.487 5   3383133.52321        11.000           0.406
  20845111.194   -14447280.983 6 -11011109.67421        15.500           1.313
  19840600.421    -6559266.845 7  -5111114.26823        24.500           2.844
  18940450.023   -28075883.809 8 -21620307.41123        29.250           2.594
 91  7 24  3 27 59.9950000  0  4G 3G21G17G23
  21616716.999     4385318.395 5   3417121.45921        11.250           0.313
  20835719.116   -14496623.123 6 -11049558.05521        15.500           1.281
  19843131.819    -6545955.576 7  -5100741.85423        23.500           2.813
  18938937.062   -28083842.018 8 -21626508.61223        29.750           2.531
 91  7 24  3 28 14.9950000  0  4G 3G21G17G23
  21625032.819     4429017.807 5   3451172.89921        11.250           0.406
  20826346.937   -14545896.557 6 -11087952.88721        16.250           1.375
  19845678.093    -6532579.812 7  -5090319.17823        23.750           2.844
  18937441.335   -28091703.797 8 -21632634.67323        29.500           2.594
 91  7 24  3 28 29.9950000  0  4G 3G21G17G23
  21633363.077     4472798.174 5   3485287.43321        11.250           0.375
  20816979.546   -14595101.149 6 -11126294.08321        16.000           1.375
  19848236.280    -6519139.634 7  -5079846.31523        23.500           2.844
  18935962.546   -28099469.148 8 -21638685.59023        29.250           2.594
 91  7 24  3 28 44.9950000  0  4G 3G21G17G23
  21641709.429     4516661.354 5   3519466.48821        10.750           0.500
  20807628.733   -14644234.918 6 -11164580.09521        16.000           1.406
  19850806.476    -6505633.364 7  -5069321.94823        23.750           2.938
  18934503.038   -28107136.326 8 -21644660.01723        29.000           2.656
 91  7 24  3 28 59.9950000  0  4G 3G21G17G23
  21650072.702     4560607.029 5   3553709.81921        10.750           0.375
  20798294.999   -14693297.805 6 -11202810.87321        16.500           1.406
  19853387.835    -6492060.725 7  -5058745.86423        23.000           2.875
  18933063.968   -28114705.564 8 -21650558.11923        29.250           2.656
 91  7 24  3 29 14.9950000  0  4G 3G21G17G23
  21658450.968     4604640.031 5   3588021.19321        10.750           0.344
  20788974.858   -14742284.670 6 -11240982.40821        16.750           1.438
  19855984.577    -6478416.577 7  -5048114.06523        23.500           2.938
  18931642.046   -28122171.544 8 -21656375.76523        28.500           2.688
 91  7 24  3 29 29.9950000  0  4G 3G21G17G23
  21666845.273     4648751.798 5   3622393.94421        10.750           0.344
  20779666.210   -14791203.747 6 -11279101.12921        17.000           1.344
  19858594.554    -6464709.352 7  -5037433.11123        24.000           3.125
  18930239.718   -28129542.911 8 -21662119.68923        28.250           2.688
 91  7 24  3 29 44.9950000  0  4G 3G21G17G23
  21675255.241     4692944.710 5   3656829.90521        11.250           0.281
  20770367.733   -14840052.158 6 -11317164.78421        16.750           1.438
  19861213.179    -6450936.180 7  -5026700.76723        22.500           3.000
  18928855.476   -28136817.078 8 -21667787.87023        28.500           2.781
 91  7 24  3 29 59.9950000  0  4G 3G21G17G23
  21683678.319     4737215.096 5   3691326.28221        11.000           0.375
  20761089.007   -14888833.320 6 -11355176.04021        17.500           1.469
  19863846.202    -6437100.706 7  -5015919.88723        23.000           3.125
  18927490.437   -28143997.707 8 -21673383.15823        28.500           2.719
 91  7 24  3 30 14.9950000  0  4G 3G21G17G23
  21692120.413     4781563.763 5   3725883.61621        11.000           0.406
  20751816.882   -14937546.093 6 -11393134.00321        17.500           1.375
  19866491.882    -6423202.086 7  -5005089.79623        23.250           3.125
  18926139.749   -28151083.682 7 -21678904.69523        27.250           2.750
 91  7 24  3 30 29.9950000  0  4G 3G21G17G23
  21700575.077     4825994.062 5   3760504.55221        10.750           0.375
  20742560.343   -14986186.666 6 -11431035.70521        17.500           1.469
  19869149.937    -6409236.356 7  -4994207.40223        24.000           2.969
  18924810.827   -28158071.743 7 -21684349.93623        26.750           2.719
 91  7 24  3 30 44.9950000  0  4G 3G21G17G23
  21709047.671     4870504.983 5   3795188.32421        10.750           0.438
  20733317.780   -15034755.501 6 -11468881.51021        17.250           1.438
  19871819.765    -6395203.980 7  -4983273.09223        24.000           3.094
  18923498.944   -28164962.564 7 -21689719.40623        27.000           2.781
 91  7 24  3 30 59.9950000  0  4G 3G21G17G23
  21717528.312     4915095.660 5   3829934.25321        10.000           0.344
  20724087.827   -15083253.275 6 -11506671.94421        17.250           1.438
  19874502.554    -6381105.793 7  -4972287.49023        24.000           3.000
  18922206.757   -28171756.854 7 -21695013.65423        27.000           2.844
 91  7 24  3 31 14.9950000  0  4G 3G21G17G23
  21726030.007     4959764.304 5   3864740.94421         9.750           0.375
  20714871.296   -15131681.539 6 -11544408.21822        17.750           1.625
  19877196.460    -6366943.429 7  -4961251.88723        23.500           3.094
  18920931.921   -28178456.453 7 -21700234.11723        27.250           2.844
 91  7 24  3 31 29.9950000  0  4G 3G21G17G23
  21734545.968     5004512.059 5   3899609.26321        10.000           0.313
  20705671.069   -15180038.578 6 -11582088.98522        18.500           1.500
  19879906.273    -6352715.481 7  -4950165.17223        24.250           3.000
  18919675.194   -28185060.031 7 -21705379.75623        26.500           2.906
 91  7 24  3 31 44.9950000  0  4G 3G21G17G23
  21743075.257     5049340.849 5   3934540.71221        10.500           0.250
  20696482.569   -15228322.076 6 -11619712.45022        18.500           1.500
  19882625.335    -6338419.440 7  -4939025.40323        23.750           3.031
  18918437.663   -28191565.385 7 -21710448.86723        26.750           2.906
 91  7 24  3 31 59.9950000  0  4G 3G21G17G23
  21751621.108     5094248.556 5   3969533.69821        11.000           0.375
  20687310.046   -15276533.859 6 -11657280.02221        18.250           1.469
  19885358.874    -6324057.256 7  -4927834.08923        23.750           3.125
  18917217.273   -28197974.462 7 -21715442.95023        27.000           2.781
 91  7 24  3 32 14.9950000  0  4G 3G21G17G23
  21760182.874     5139231.806 5   4004585.50521        11.250           0.375
  20678146.218   -15324677.121 6 -11694794.21122        17.500           1.500
  19888103.171    -6309632.142 7  -4916593.74323        24.000           3.156
  18916016.687   -28204290.585 7 -21720364.60223        26.750           2.875
 91  7 24  3 32 29.9950000  0  4G 3G21G17G23
  21768755.788     5184291.262 5   4039696.71021        11.000           0.375
  20668996.468   -15372750.468 6 -11732253.92122        18.000           1.531
  19890860.538    -6295143.197 7  -4905303.65923        24.250           3.125
  18914830.546   -28210512.727 7 -21725213.02023        26.000           2.875
 91  7 24  3 32 44.9950000  0  4G 3G21G17G23
  21777343.288     5229426.024 5   4074866.60521        10.500           0.313
  20659865.023   -15420754.646 6 -11769659.73822        18.750           1.531
  19893630.632    -6280590.894 7  -4893964.20323        24.250           3.000
  18913664.773   -28216641.777 7 -21729988.90323        26.000           2.906
 91  7 24  3 32 59.9950000  0  4G 3G21G17G23
  21785944.812     5274635.078 5   4110094.36621        10.750           0.250
  20650742.437   -15468690.221 6 -11807012.10021        19.000           1.375
  19896409.398    -6265975.725 7  -4882575.76123        24.000           3.000
  18912515.983   -28222678.428 7 -21734692.78323        26.250           2.875
 91  7 24  3 33 14.9950000  0  4G 3G21G17G23
  21794562.804     5319919.489 5   4145380.86421        10.000           0.375
  20641634.062   -15516555.963 6 -11844310.04022        19.000           1.594
  19899205.202    -6251296.818 7  -4871137.66123        24.500           2.875
  18911384.460   -28228621.718 7 -21739323.91923        26.000           2.906
 91  7 24  3 33 29.9950000  0  4G 3G21G17G23
  21803193.554     5365281.237 5   4180727.62621        10.000           0.344
  20632537.632   -15564349.336 6 -11881551.58222        18.000           1.625
  19902008.335    -6236551.525 7  -4859647.82223        24.000           2.781
  18910273.726   -28234469.380 7 -21743880.54323        27.000           2.875
 91  7 24  3 33 44.9950000  0  4G 3G21G17G23
  21811840.757     5410711.399 5   4216127.70021        10.250           0.313
  20623454.890   -15612078.924 6 -11918743.42122        18.500           1.625
  19904828.179    -6221748.634 7  -4848113.09723        24.250           2.938
  18909176.476   -28240230.219 7 -21748369.50323        26.750           2.938
 91  7 24  3 33 59.9950000  0  4G 3G21G17G23
  21820502.890     5456217.709 5   4251587.09521        10.750           0.250
  20614384.663   -15659736.699 6 -11955879.30422        18.500           1.656
  19907656.929    -6206880.261 7  -4836527.35923        24.500           2.938
  18908097.523   -28245896.449 7 -21752784.75123        26.250           2.844
 91  7 24  3 34 14.9950000  0  4G 3G21G17G23
  21829175.382     5501798.822 5   4287104.80021        10.250           0.344
  20605329.991   -15707323.535 6 -11992959.91622        18.750           1.688
  19910497.741    -6191947.265 7  -4824891.26123        24.500           3.000
  18907038.405   -28251469.098 7 -21757127.07423        26.000           2.875
 91  7 24  3 34 29.9950000  0  4G 3G21G17G23
  21837861.687     5547454.885 5   4322680.89321        10.500           0.250
  20596288.913   -15754838.986 6 -12029984.90222        19.250           1.781
  19913349.702    -6176949.438 7  -4813204.64223        23.250           3.031
  18905994.976   -28256947.842 7 -21761396.22023        26.250           2.844
 91  7 24  3 34 44.9950000  0  4G 3G21G17G23
  21846567.015     5593186.126 5   4358315.58121        10.750           0.250
  20587259.757   -15802282.580 6 -12066953.89122        18.750           1.719
  19916217.929    -6161886.072 7  -4801466.95323        23.000           3.000
  18904969.530   -28262332.492 7 -21765592.04723        26.500           2.875
 91  7 24  3 34 59.9950000  0  4G 3G21G17G23
  21855283.132     5638992.633 5   4394008.91121        11.250           0.281
  20578244.976   -15849653.540 6 -12103866.28222        18.750           1.813
  19919096.523    -6146756.629 7  -4789677.78223        23.250           3.031
  18903963.101   -28267622.532 7 -21769714.14723        26.000           2.875
 91  7 24  3 35 14.9950000  0  4G 3G21G17G23
  21864013.608     5684875.247 5   4429761.52621        10.750           0.281
  20569244.835   -15896950.894 6 -12140721.31822        18.500           1.781
  19921987.476    -6131560.348 7  -4777836.52123        23.000           3.000
  18902975.452   -28272817.228 7 -21773761.96223        26.500           2.938
 91  7 24  3 35 29.9950000  0  4G 3G21G17G23
  21872759.241     5730831.594 5   4465571.61221        10.500           0.313
  20560259.952   -15944176.671 6 -12177520.57922        19.000           1.719
  19924891.952    -6116299.268 7  -4765944.77623        22.500           2.938
  18902004.069   -28277918.614 7 -21777737.06023        26.500           2.938
 91  7 24  3 35 44.9950000  0  4G 3G21G17G23
  21881518.898     5776859.035 5   4501437.10821        10.750           0.406
  20551283.749   -15991333.201 6 -12214265.88122        18.500           1.656
  19927810.460    -6100975.572 7  -4754004.23823        23.000           2.938
  18901050.366   -28282929.367 7 -21781641.53923        26.250           2.875
 91  7 24  3 35 59.9950000  0  4G 3G21G17G23
  21890287.671     5822957.445 5   4537357.87321        10.500           0.250
  20542325.476   -16038420.071 6 -12250956.91022        18.750           1.625
  19930736.679    -6085589.202 7  -4742014.86523        22.500           2.969
  18900115.030   -28287849.568 7 -21785475.46523        27.250           2.813
 91  7 24  3 36 14.9950000  0  4G 3G21G17G23
  21899077.140     5869126.580 5   4573333.74821        11.000           0.313
  20533376.866   -16085437.168 6 -12287593.56222        18.500           1.656
  19933675.976    -6070140.139 7  -4729976.63723        22.000           3.031
  18899195.124   -28292679.192 7 -21789238.80223        27.000           2.938
 91  7 24  3 36 29.9950000  0  4G 3G21G17G23
  21907875.483     5915365.890 5   4609364.32521        10.750           0.438
  20524443.702   -16132384.565 6 -12324175.91122        18.500           1.531
  19936626.569    -6054628.494 7  -4717889.65023        22.250           3.000
  18898293.655   -28297418.645 7 -21792931.88123        27.000           2.781
 91  7 24  3 36 44.9950000  0  4G 3G21G17G23
  21916685.124     5961677.130 5   4645450.95721        10.750           0.250
  20515523.374   -16179260.252 6 -12360702.38122        18.250           1.625
  19939593.546    -6039052.341 7  -4705752.39023        23.000           3.000
  18897410.023   -28302065.792 7 -21796553.03123        26.750           2.844
 91  7 24  3 36 59.9950000  0  4G 3G21G17G23
  21925512.265     6008057.824 5   4681591.71021        10.750           0.281
  20506616.827   -16226066.397 6 -12397174.66222        18.250           1.563
  19942569.468    -6023413.665 7  -4693566.41223        23.250           3.188
  18896542.577   -28306623.098 7 -21800104.17423        26.500           2.844
 91  7 24  3 37 14.9950000  0  4G 3G21G17G23
  21934356.921     6054507.920 5   4717786.53421        11.250           0.313
  20497725.054   -16272802.606 6 -12433592.43922        18.750           1.500
  19945556.733    -6007712.409 7  -4681331.67923        23.250           3.094
  18895692.140   -28311090.516 7 -21803585.27723        26.500           2.750
 91  7 24  3 37 29.9950000  0  4G 3G21G17G23
  21943210.460     6101026.707 5   4754034.89321        11.000           0.313
  20488843.515   -16319469.221 6 -12469955.99622        19.250           1.531
  19948557.312    -5991949.036 7  -4669048.54123        23.500           3.031
  18894858.218   -28315468.624 7 -21806996.79023        26.250           2.844
 91  7 24  3 37 44.9950000  0  4G 3G21G17G23
  21952068.226     6147613.589 5   4790336.32821         9.750           0.313
  20479977.226   -16366066.308 6 -12506265.37322        19.000           1.594
  19951568.569    -5976123.886 7  -4656717.26423        23.750           3.063
  18894041.601   -28319757.682 7 -21810338.91823        27.000           2.719
 91  7 24  3 37 59.9940000  0  4G 3G21G17G23
  21960948.018     6194268.023 5   4826690.36421         8.500           0.375
  20471122.463   -16412587.889 6 -12542515.91722        18.250           1.500
  19954591.846    -5960234.965 7  -4644336.29423        24.000           3.156
  18893243.213   -28323954.726 7 -21813609.33823        27.250           2.656
 91  7 24  3 38 14.9940000  0  4G 3G21G17G23
  21969835.705     6240991.606 5   4863098.29221         8.500           0.406
  20462283.150   -16459044.758 6 -12578716.03422        18.750           1.594
  19957627.838    -5944284.542 7  -4631907.40523        23.500           3.000
  18892461.752   -28328065.090 7 -21816812.22123        27.750           2.656
 91  7 24  3 38 29.9940000  0  4G 3G21G17G23
  21978745.447     6287785.172 5   4899560.76721         8.500           0.313
  20453454.783   -16505429.351 6 -12614859.83522        19.000           1.531
  19960674.377    -5928269.442 7  -4619428.11223        23.000           2.906
  18891696.986   -28332084.119 7 -21819943.92623        27.750           2.719
 91  7 24  3 38 44.9940000  0  4G 3G21G17G23
  21987662.752     6334648.055 5   4936077.23021         9.250           0.281
  20444643.815   -16551741.878 6 -12650947.48022        19.000           1.563
  19963733.494    -5912190.161 7  -4606898.81523        23.250           2.938
  18890948.838   -28336012.102 7 -21823004.69223        26.500           2.594
 91  7 24  3 38 59.9940000  0  4G 3G21G17G23
  21996596.447     6381583.060 5   4972649.93721         9.500           0.344
  20435845.994   -16597979.258 6 -12686976.55722        19.000           1.625
  19966809.057    -5896043.546 7  -4594317.04023        23.750           2.781
  18890219.768   -28339846.299 7 -21825992.38023        26.000           2.563
 91  7 24  3 39 14.9940000  0  4G 3G21G17G23
  22005538.119     6428582.938 5   5009273.16921         9.500           0.219
  20427057.908   -16644148.355 6 -12722952.43222        18.750           1.656
  19969892.307    -5879836.517 7  -4581688.19523        23.500           2.719
  18889507.494   -28343593.924 7 -21828912.60423        27.000           2.500
 91  7 24  3 39 29.9940000  0  4G 3G21G17G23
  22014493.619     6475648.500 5   5045947.55721         9.500           0.250
  20418285.885   -16690247.801 6 -12758874.03622        19.000           1.563
  19972988.799    -5863567.996 7  -4569011.43423        23.750           2.781
  18888810.135   -28347254.084 7 -21831764.67323        26.750           2.563
 91  7 24  3 39 44.9940000  0  4G 3G21G17G23
  22023466.088     6522784.002 5   5082676.48921         9.250           0.313
  20409527.791   -16736273.112 6 -12794737.87421        19.000           1.469
  19976096.135    -5847233.491 7  -4556283.25323        23.000           2.656
  18888131.572   -28350822.258 7 -21834545.07223        27.000           2.656
 91  7 24  3 39 59.9940000  0  4G 3G21G17G23
  22032445.291     6569985.956 5   5119457.16221         8.750           0.219
  20400781.236   -16782227.250 6 -12830546.25022        18.750           1.500
  19979215.299    -5830836.200 7  -4543506.15923        22.500           2.625
  18887469.330   -28354301.552 7 -21837256.21123        27.500           2.531
 91  7 24  3 40 14.9940000  0  4G 3G21G17G23
  22041437.979     6617252.648 5   5156288.30021         8.500           0.281
  20392052.127   -16828111.684 6 -12866300.30821        19.500           1.469
  19982345.588    -5814377.365 7  -4530681.10223        22.750           2.563
  18886824.455   -28357693.607 7 -21839899.37523        27.750           2.594
 91  7 24  3 40 29.9940000  0  4G 3G21G17G23
  22050446.752     6664590.922 5   5193175.21421         8.500           0.313
  20383335.182   -16873919.272 6 -12901994.48821        19.750           1.344
  19985492.400    -5797849.805 7  -4517802.49623        23.000           2.594
  18886197.307   -28360991.564 7 -21842469.20823        27.250           2.563
 91  7 24  3 40 44.9940000  0  4G 3G21G17G23
  22059468.268     6711991.419 5   5230110.61121         8.750           0.281
  20374631.025   -16919658.998 6 -12937635.78821        19.500           1.344
  19988647.744    -5781262.853 7  -4504877.60823        22.750           2.500
  18885584.838   -28364204.593 7 -21844972.86423        27.000           2.500
 91  7 24  3 40 59.9940000  0  4G 3G21G17G23
  22068504.057     6759456.459 5   5267096.27921         9.250           0.250
  20365938.736   -16965328.088 6 -12973222.05321        19.250           1.406
  19991816.908    -5764613.696 7  -4491904.24623        23.250           2.656
  18884990.471   -28367330.358 7 -21847408.52422        26.750           2.469
 91  7 24  3 41 14.9940000  0  4G 3G21G17G23
  22077544.729     6806986.338 5   5304132.50821         8.500           0.344
  20357263.721   -17010926.040 6 -13008752.88421        19.500           1.344
  19994996.619    -5747901.997 7  -4478882.14923        23.000           2.531
  18884412.830   -28370368.309 7 -21849775.76223        27.250           2.563
 91  7 24  3 41 29.9940000  0  4G 3G21G17G23
  22086600.557     6854579.922 5   5341218.35121         8.500           0.438
  20348600.400   -17056453.500 6 -13044228.77921        19.750           1.313
  19998190.533    -5731128.310 7  -4465811.76222        23.500           2.469
  18883850.166   -28373319.432 7 -21852075.32923        26.750           2.500
 91  7 24  3 41 44.9940000  0  4G 3G21G17G23
  22095672.354     6902238.458 5   5378354.83021         8.500           0.344
  20339949.049   -17101908.780 6 -13079648.43921        19.000           1.281
  20001391.283    -5714291.333 7  -4452692.05823        23.250           2.625
  18883306.690   -28376182.174 7 -21854306.03623        27.250           2.688
 91  7 24  3 41 59.9940000  0  4G 3G21G17G23
  22104752.002     6949959.671 5   5415540.12721         8.000           0.250
  20331312.127   -17147293.785 6 -13115013.33221        19.000           1.344
  20004610.799    -5697392.876 7  -4439524.44023        24.250           2.688
  18882778.252   -28378958.590 7 -21856469.47023        27.000           2.656
 91  7 24  3 42 14.9940000  0  5G 3G21G17G11G23
  22113845.815     6997746.036 5   5452776.20121         8.500           0.313
  20322691.549   -17192605.782 6 -13150321.33921        19.750           1.438
  20007837.799    -5680430.204 7  -4426306.78223        23.750           2.625
  23084077.455          -0.64814                         6.750
  18882264.080   -28381646.299 7 -21858563.78923        26.250           2.531
 91  7 24  3 42 29.9940000  0  5G 3G21G17G11G23
  22122953.916     7045593.844 5   5490060.15721         9.500           0.250
  20314079.986   -17237848.098 6 -13185575.03822        19.250           1.500
  20011077.502    -5663406.688 7  -4413041.71423        23.250           2.719
  23071410.885      -66550.742 4                         6.500
  18881769.924   -28384248.863 7 -21860591.76123        26.500           2.594
 91  7 24  3 42 44.9940000  0  5G 3G21G17G11G23
  22132065.400     7093501.648 5   5527390.84421         8.750           0.281
  20305484.315   -17283021.714 6 -13220775.21921        19.000           1.469
  20014326.916    -5646323.556 7  -4399730.19723        23.250           2.656
  23058747.354     -133090.313 4                         6.750
  18881292.190   -28386767.487 7 -21862554.31423        26.750           2.563
 91  7 24  3 42 59.9940000  0  5G 3G21G17G11G23
  22141197.088     7141475.083 5   5564772.68721         9.250           0.156
  20296902.033   -17328120.812 6 -13255917.32721        18.750           1.469
  20017590.025    -5629174.882 7  -4386367.61423        23.250           2.656
  23046088.307     -199613.131 4                         7.000
  18880829.838   -28389196.254 7 -21864446.85623        26.000           2.500
 91  7 24  3 43 14.9940000  0  5G 3G21G17G11G23
  22150342.072     7189510.372 5   5602202.70321         9.250           0.281
  20288335.221   -17373148.631 6 -13291003.89521        19.500           1.375
  20020866.799    -5611963.963 7  -4372956.51723        22.750           2.594
  23033435.065     -266122.422 4                         7.000
  18880383.736   -28391538.860 7 -21866272.26323        26.250           2.594
 91  7 24  3 43 29.9940000  0  5G 3G21G17G11G23
  22159489.697     7237607.212 5   5639680.71621         8.750           0.219
  20279779.775   -17418105.196 6 -13326034.94522        19.250           1.531
  20024150.932    -5594690.855 7  -4359496.96723        22.250           2.500
  23020781.744     -332617.994 4        -0.35831         6.750           0.250
  18879954.877   -28393795.597 7 -21868030.75123        26.750           2.500
 91  7 24  3 43 44.9940000  0  5G 3G21G17G11G23
  22168656.166     7285768.259 5   5677208.72821         8.750           0.219
  20271237.721   -17462987.441 6 -13361008.07822        19.000           1.500
  20027450.721    -5577352.810 7  -4345986.81423        22.500           2.594
  23008128.447     -399096.395 4    -51801.64321         6.250           0.219
  18879542.635   -28395963.529 7 -21869720.04323        26.750           2.563
 91  7 24  3 43 59.9940000  0  5G 3G21G17G11G23
  22177831.111     7333990.030 5   5714784.07721         8.000           0.250
  20262712.229   -17507798.498 6 -13395925.74121        19.500           1.469
  20030763.619    -5559952.821 7  -4332428.39823        23.000           2.531
  22995483.525     -465560.446 4   -103591.76821         6.500           0.219
  18879145.861   -28398045.829 7 -21871342.60923        26.250           2.656
 91  7 24  3 44 14.9940000  0  5G 3G21G17G11G23
  22187018.236     7382271.567 5   5752405.97421         8.000           0.250
  20254198.213   -17552539.038 6 -13430788.44921        19.250           1.344
  20034084.705    -5542491.697 7  -4318822.33623        22.750           2.594
  22982834.721     -532010.542 4   -155370.99621         6.750           0.156
  18878766.182   -28400043.508 7 -21872899.23723        26.500           2.625
 91  7 24  3 44 29.9940000  0  5G 3G21G17G11G23
  22196219.315     7430615.676 5   5790076.64021         8.250           0.313
  20245697.580   -17597205.511 6 -13465593.45421        19.000           1.469
  20037420.815    -5524966.079 7  -4305166.01923        22.500           2.531
  22970191.666     -598442.990 4   -207136.53621         7.000           0.156
  18878401.565   -28401953.217 7 -21874387.31523        26.000           2.688
 91  7 24  3 44 44.9940000  0  5G 3G21G17G11G23
  22205433.150     7479018.841 5   5827793.33721         8.000           0.219
  20237211.549   -17641801.366 6 -13500343.44122        18.750           1.594
  20040768.549    -5507379.450 7  -4291462.16123        23.500           2.563
  22957558.416     -664860.947 4   -258890.72321         7.000           0.281
  18878055.096   -28403778.760 7 -21875809.81223        26.250           2.719
 91  7 24  3 44 59.9940000  0  5G 3G21G17G11G23
  22214655.174     7527482.109 5   5865556.85921         8.250           0.156
  20228736.143   -17686325.147 6 -13535037.26022        18.500           1.563
  20044126.494    -5489730.460 7  -4277709.71122        23.250           2.438
  22944921.807     -731262.668 5   -310632.26321         8.250           0.281
  18877723.908   -28405518.918 7 -21877165.77223        26.250           2.625
 91  7 24  3 45 14.9940000  0  5G 3G21G17G11G23
  22223884.861     7576006.490 5   5903367.98521         8.000           0.250
  20220279.057   -17730775.465 6 -13569673.83822        18.750           1.563
  20047496.127    -5472017.617 7  -4263907.50522        22.750           2.375
  22932290.744     -797646.332 5   -362359.72821         9.000           0.188
  18877407.650   -28407172.452 7 -21878454.23623        26.000           2.656
 91  7 24  3 45 29.9940000  0  5G 3G21G17G11G23
  22233132.838     7624590.434 5   5941225.54021         8.250           0.219
  20211836.158   -17775153.449 6 -13604254.03822        19.000           1.531
  20050879.080    -5454242.131 7  -4250056.49122        22.500           2.313
  22919661.869     -864012.931 5   -414073.96521         9.250           0.219
  18877110.041   -28408740.687 7 -21879676.22923        25.750           2.625
 91  7 24  3 45 44.9940000  0  5G 3G21G17G11G23
  22242390.104     7673234.755 5   5979130.13121         8.750           0.250
  20203402.893   -17819458.200 6 -13638777.18122        18.250           1.563
  20054273.565    -5436403.299 7  -4236156.11222        23.000           2.313
  22907034.361     -930361.299 5   -465773.96321         9.000           0.125
  18876826.440   -28410222.856 7 -21880831.16123        25.750           2.750
 91  7 24  3 45 59.9940000  0  5G 3G21G17G11G23
  22251656.760     7721939.678 5   6017081.94321         8.750           0.219
  20194986.096   -17863688.915 6 -13673242.63622        17.750           1.531
  20057678.190    -5418500.211 7  -4222205.66222        22.500           2.344
  22894414.065     -996690.305 5   -517458.85321         8.750           0.250
  18876562.572   -28411618.324 7 -21881918.53423        26.000           2.500
 91  7 24  3 46 14.9940000  0  5G 3G21G17G11G23
  22260933.807     7770703.608 5   6055079.71121         8.250           0.219
  20186582.025   -17907846.804 6 -13707651.34922        17.750           1.656
  20061100.088    -5400534.341 7  -4208206.29222        22.250           2.375
  22881795.080    -1063000.887 5   -569129.40021         8.250           0.250
  18876313.729   -28412928.569 7 -21882939.49423        26.750           2.594
 91  7 24  3 46 29.9940000  0  5G 3G21G17G11G23
  22270226.650     7819523.301 5   6093120.98821         7.500           0.281
  20178195.963   -17951934.748 6 -13742005.56122        18.750           1.781
  20064529.377    -5382508.562 7  -4194160.23422        22.250           2.281
  22869179.369    -1129295.779 5   -620787.70421         8.000           0.250
  18876080.315   -28414156.703 7 -21883896.47223        26.500           2.594
 91  7 24  3 46 44.9940000  0  5G 3G21G17G11G23
  22279527.525     7868397.679 4   6131204.80921         7.250           0.125
  20169819.150   -17995953.394 6 -13776305.76222        18.750           1.625
  20067970.783    -5364423.599 7  -4180068.05722        23.000           2.281
  22856564.440    -1195575.254 5   -672433.98121         8.000           0.188
  18875861.744   -28415303.565 7 -21884790.12823        27.000           2.656
 91  7 24  3 46 59.9940000  0  5G 3G21G17G11G23
  22288837.690     7917332.660 4   6169335.92421         7.000           0.156
  20161454.385   -18039896.638 6 -13810547.21722        18.250           1.531
  20071424.080    -5346273.420 7  -4165925.06622        22.750           2.406
  22843956.900    -1261832.753 5   -724063.20021         7.750           0.219
  18875658.736   -28416363.213 7 -21885615.82123        27.000           2.688
 91  7 24  3 47 14.9940000  0  5G 3G21G17G11G23
  22298164.775     7966325.544 5   6207512.09521         7.500           0.156
  20153106.244   -18083766.798 6 -13844731.72522        17.250           1.688
  20074891.815    -5328060.310 7  -4151733.04122        23.000           2.313
  22831351.830    -1328070.429 5   -775676.93421         8.000           0.344
  18875473.807   -28417338.252 7 -21886375.58923        27.250           2.688
 91  7 24  3 47 29.9940000  0  5G 3G21G17G11G23
  22307499.963     8015373.224 4   6245730.99021         7.250           0.156
  20144771.049   -18127566.360 6 -13878861.22322        17.000           1.625
  20078365.869    -5309786.866 7  -4137494.00322        22.500           2.344
  22818750.604    -1394290.482 5   -827276.90821         8.500           0.281
  18875305.166   -28418231.430 7 -21887071.56923        27.500           2.531
 91  7 24  3 47 44.9940000  0  5G 3G21G17G11G23
  22316839.393     8064479.385 4   6283995.48221         7.250           0.156
  20136452.213   -18171291.407 6 -13912932.65722        17.750           1.656
  20081856.815    -5291449.395 7  -4123205.06322        22.750           2.313
  22806154.768    -1460488.779 5   -878859.94921         9.250           0.313
  18875149.315   -28419038.964 7 -21887700.81523        27.250           2.625
 91  7 24  3 47 59.9940000  0  5G 3G21G17G11G23
  22326194.549     8113642.211 4   6322304.13221         6.500           0.063
  20128145.244   -18214943.431 6 -13946947.19022        18.000           1.750
  20085359.190    -5273049.353 7  -4108867.37022        22.750           2.406
  22793562.627    -1526666.463 5   -930426.94921         9.250           0.250
  18875013.893   -28419762.549 7 -21888264.63923        26.750           2.500
 91  7 24  3 48 14.9940000  0  5G 3G21G17G11G23
  22335558.690     8162860.668 4   6360656.07821         7.000           0.156
  20119850.940   -18258523.161 6 -13980905.39522        18.750           1.781
  20088872.479    -5254587.393 7  -4094481.43923        23.000           2.500
  22780973.619    -1592823.931 5   -981978.17721         9.250           0.281
  18874888.299   -28420403.173 7 -21888763.82223        26.000           2.625
 91  7 24  3 48 29.9940000  0  5G 3G21G17G11G23
  22344936.338     8212139.466 4   6399055.10521         6.750           0.125
  20111573.979   -18302025.348 6 -14014803.16922        19.000           1.750
  20092398.033    -5236058.666 7  -4080043.47723        23.000           2.531
  22768389.330    -1658955.880 5  -1033509.53521         9.000           0.250
  18874783.627   -28420955.793 7 -21889194.43023        26.250           2.594
 91  7 24  3 48 44.9940000  0  5G 3G21G17G11G23
  22354327.885     8261472.485 5   6437496.35321         7.750           0.125
  20103309.127   -18345455.772 6 -14048645.03122        18.250           1.938
  20095935.775    -5217468.885 7  -4065557.93222        23.000           2.469
  22755806.986    -1725067.575 5  -1085025.09421         9.500           0.438
  18874697.065   -28421426.238 7 -21889561.01023        26.750           2.625
 91  7 24  3 48 59.9940000  0  5G 3G21G17G11G23
  22363725.674     8310859.284 5   6475979.48321         7.750           0.219
  20095058.752   -18388814.633 6 -14082431.13722        18.750           1.844
  20099483.658    -5198818.319 7  -4051025.02623        22.750           2.531
  22743228.830    -1791158.946 5  -1136524.81921         8.500           0.313
  18874621.744   -28421815.096 7 -21889864.00623        26.500           2.656
 91  7 24  3 49 14.9940000  0  5G 3G21G17G11G23
  22373132.877     8360297.401 5   6514502.63721         7.750           0.219
  20086822.041   -18432103.959 6 -14116163.04922        19.250           1.938
  20103044.416    -5180108.978 7  -4036446.31823        22.250           2.531
  22730654.846    -1857231.799 5  -1188010.10221         8.250           0.375
  18874560.815   -28422124.437 7 -21890105.04923        26.500           2.719
 91  7 24  3 49 29.9940000  0  5G 3G21G17G11G23
  22382552.143     8409791.849 4   6553069.65321         7.250           0.250
  20078597.791   -18475318.317 6 -14149836.54522        19.000           1.969
  20106618.924    -5161335.281 7  -4021817.46923        23.500           2.500
  22718087.627    -1923280.391 5  -1239476.49821         8.500           0.344
  18874518.619   -28422349.129 7 -21890280.12823        26.250           2.719
 91  7 24  3 49 44.9940000  0  5G 3G21G17G11G23
  22391976.924     8459339.082 4   6591677.83521         7.000           0.219
  20070389.119   -18518460.897 6 -14183454.11522        19.250           1.938
  20110201.713    -5142500.652 7  -4007141.13822        22.750           2.438
  22705521.588    -1989307.757 5  -1290926.35821         9.000           0.313
  18874490.838   -28422492.501 7                        26.250
 91  7 24  3 49 59.9940000  0  5G 3G21G17G11G23
  22401417.510     8508942.761 4   6630329.96921         6.500           0.188
  20062193.338   -18561527.747 6 -14217012.68122        19.000           1.969
  20113797.268    -5123601.444 7  -3992414.48822        22.000           2.375
  22692963.041    -2055309.516 5  -1342356.24221         9.750           0.281
  18874481.065   -28422550.902 7                        26.750
 91  7 24  3 50 14.9940000  0  5G 3G21G17G11G23
  22410866.666     8558600.239 4   6669024.02021         6.750           0.094
  20054012.065   -18604520.904 6 -14250513.81722        19.000           1.906
  20117403.213    -5104639.746 7  -3977639.14422        21.500           2.438
  22680410.775    -2121287.415 5  -1393767.53821         9.750           0.406
  18874487.150   -28422526.571 7                        27.250
 91  7 24  3 50 29.9940000  0  5G 3G21G17G11G23
  22420329.479     8608311.479 4   6707759.98621         7.000           0.313
  20045844.869   -18647440.278 6 -14283957.46222        19.500           2.063
  20121025.955    -5085615.365 7  -3962814.95822        22.000           2.344
  22667856.213    -2187241.041 5  -1445159.92921        10.000           0.313
  18874508.072   -28422419.689 7                        26.750
 91  7 24  3 50 44.9940000  0  5G 3G21G17G11G23
  22429797.541     8658073.694 4   6746535.67021         7.000           0.156
  20037689.533   -18690288.319 6 -14317345.51622        19.500           2.000
  20124658.080    -5066530.756 7  -3947943.83622        23.000           2.250
  22655312.502    -2253172.560 5  -1496535.10921        10.250           0.188
  18874543.955   -28422232.881 7                        26.750
 91  7 24  3 50 59.9940000  0  5G 3G21G17G11G23
  22439276.377     8707889.861 5   6785353.37321         7.500           0.219
  20029548.322   -18733061.362 6 -14350675.14422        19.250           1.969
  20128300.791    -5047382.399 7  -3933023.03622        22.250           2.281
  22642766.377    -2319078.107 5  -1547890.04821         9.500           0.250
  18874591.900   -28421962.621 7                        26.500
 91  7 24  3 51 14.9940000  0  5G 3G21G17G11G23
  22448764.565     8757757.996 5   6824211.57921         7.500           0.281
  20021423.057   -18775761.274 6 -14383947.78222        19.750           1.969
  20131956.752    -5028172.340 7  -3918054.16322        22.250           2.250
  22630228.729    -2384959.170 5  -1599225.88121         9.500           0.313
  18874659.518   -28421610.910 7 -21889704.88623        26.500           2.750
 91  7 24  3 51 29.9940000  0  5G 3G21G17G11G23
  22458263.268     8807676.930 4   6863109.38121         7.000           0.188
  20013310.158   -18818388.990 6 -14417164.15622        19.500           2.063
  20135625.268    -5008901.267 7  -3903037.74622        22.750           2.281
  22617698.525    -2450816.369 5  -1650543.13421         9.500           0.344
  18874740.838   -28421178.866 7 -21889368.23423        26.750           2.813
 91  7 24  3 51 44.9940000  0  5G 3G21G17G11G23
  22467772.455     8857641.921 4   6902043.05721         6.750           0.250
  20005211.471   -18860948.673 6 -14450327.52422        19.750           2.063
  20139303.213    -4989573.753 7  -3887977.34122        22.000           2.219
  22605171.088    -2516653.653 5  -1701844.88021         8.750           0.313
  18874839.682   -28420671.030 7 -21888972.51723        26.750           2.906
 91  7 24  3 51 59.9940000  0  5G 3G21G17G11G23
  22477290.900     8907661.001 4   6941018.88221         6.750           0.188
  19997128.072   -18903431.834 7 -14483431.26422        20.000           2.094
  20142989.947    -4970181.338 7  -3872866.38022        21.750           2.281
  22592644.486    -2582462.207 5  -1753124.20421         8.500           0.313
  18874952.252   -28420079.130 7 -21888511.29723        26.500           2.969
 91  7 24  3 52 14.9940000  0  5G 3G21G17G11G23
  22486822.729     8957729.403 4   6980033.14421         6.750           0.125
  19989058.440   -18945843.229 7 -14516479.08122        20.000           2.156
  20146694.072    -4950728.565 7  -3857708.37222        22.500           2.438
  22580129.572    -2648246.264 5  -1804384.45621        10.000           0.125
  18875077.854   -28419407.959 7 -21887988.30923        25.750           2.906
 91  7 24  3 52 29.9940000  0  4G21G17G11G23
  19981003.268   -18988176.594 7 -14549466.09022        20.500           2.188
  20150409.385    -4931209.189 7  -3842498.47022        22.500           2.250
  22567617.408    -2713999.286 5  -1855620.56721        10.250           0.313
  18875222.963   -28418651.426 7 -21887398.80623        26.250           3.000
 91  7 24  3 52 44.9940000  0  4G21G17G11G23
  19972961.424   -19030440.891 7 -14582399.28422        20.750           2.250
  20154133.682    -4911632.378 7  -3827243.81622        22.750           2.313
  22555109.533    -2779730.058 5  -1906839.28221        10.000           0.344
  18875382.049   -28417818.797 7 -21886749.99723        25.500           3.031
 91  7 24  3 52 59.9940000  0  4G21G17G11G23
  19964930.432   -19072633.618 7 -14615276.70022        20.500           2.313
  20157872.916    -4891995.793 7  -3811942.58322        23.250           2.313
  22542604.307    -2845435.762 5  -1958038.46221         9.750           0.344
  18875555.330   -28416907.848 7 -21886040.17223        25.750           2.969
 91  7 24  3 53 14.9940000  0  4G21G17G11G23
  19956916.268   -19114749.525 7 -14648094.26522        20.750           2.250
  20161620.736    -4872294.340 7  -3796590.80722        23.500           2.344
  22530107.018    -2911110.855 5  -2009213.81621         9.500           0.219
  18875745.619   -28415913.480 7 -21885265.33623        25.250           2.938
 91  7 24  3 53 29.9940000  0  4G21G17G11G23
  19948914.393   -19156795.892 7 -14680857.65422        21.000           2.313
  20165378.252    -4852535.403 7  -3781194.23522        22.750           2.219
  22517613.057    -2976762.491 5  -2060370.87321         9.750           0.313
  18875946.869   -28414843.206 7 -21884431.36023        25.000           2.875
 91  7 24  3 53 44.9940000  0  4G21G17G11G23
  19940929.463   -19198765.498 7 -14713561.21822        21.750           2.219
  20169152.744    -4832711.672 7  -3765747.18022        23.250           2.156
  22505127.471    -3042382.991 5  -2111503.69221         9.250           0.313
  18876167.940   -28413689.926 7 -21883532.70123        25.250           2.781
 91  7 24  3 53 59.9940000  0  4G21G17G11G23
  19932956.518   -19240660.862 7 -14746206.92822        21.500           2.281
  20172935.221    -4812825.565 7  -3750251.51322        22.750           2.156
  22492647.291    -3107974.600 5  -2162613.96521         9.250           0.250
  18876402.932   -28412456.439 7 -21882571.53723        25.000           2.938
 91  7 24  3 54 14.9940000  0  4G21G17G11G23
  19924997.596   -19282485.662 7 -14778797.65622        21.750           2.250
  20176732.330    -4792880.854 7  -3734710.18322        22.750           2.219
  22480168.650    -3173540.562 5  -2213704.28921         9.500           0.219
  18876651.307   -28411146.555 7 -21881550.85123        25.250           2.781
 91  7 24  3 54 29.9940000  0  4G21G17G11G23
  19917055.432   -19324235.208 7 -14811329.75122        22.500           2.219
  20180537.440    -4772872.991 7  -3719119.64522        21.750           2.125
  22467702.604    -3239076.000 5  -2264770.80621         9.500           0.281
  18876915.994   -28409755.846 7 -21880467.18123        24.500           2.906
 91  7 24  3 54 44.9940000  0  4G21G17G11G23
  19909123.471   -19365912.305 7 -14843805.38922        22.250           2.313
  20184358.479    -4752804.994 7  -3703482.25322        22.250           2.219
  22455231.658    -3304583.306 5  -2315815.41321         9.250           0.281
  18877196.627   -28408287.219 7 -21879322.80323        24.750           2.906
 91  7 24  3 54 59.9940000  0  4G21G17G11G23
  19901205.377   -19407513.369 7 -14876221.77822        22.250           2.313
  20188186.650    -4732673.359 7  -3687795.26722        22.250           2.219
  22442775.596    -3370058.606 5  -2366835.06621         9.750           0.250
  18877490.502   -28406737.394 7 -21878115.14623        25.000           3.000
 91  7 24  3 55 14.9940000  0  4G21G17G11G23
  19893301.760   -19449040.430 7 -14908580.49522        21.750           2.344
  20192030.924    -4712480.006 7  -3672060.19022        22.250           1.969
  22430318.986    -3435503.610 5  -2417831.10421        10.000           0.313
  18877801.494   -28405108.624 7 -21876845.97423        24.750           2.969
 91  7 24  3 55 29.9940000  0  4G21G17G11G23
  19885414.830   -19490496.183 7 -14940883.65722        22.000           2.313
  20195886.893    -4692227.588 7  -3656279.09622        23.000           1.938
  22417869.080    -3500920.672 5  -2468805.41121         9.500           0.344
  18878124.588   -28403403.502 7 -21875517.31223        24.500           2.906
 91  7 24  3 55 44.9940000  0  4G21G17G11G23
  19877539.283   -19531878.994 7 -14973129.98322        22.250           2.344
  20199750.604    -4671914.770 7  -3640450.93022        23.000           2.000
  22405426.643    -3566307.950 5  -2519756.47521         9.500           0.344
  18878463.197   -28401620.940 7 -21874128.30523        24.750           3.000
 91  7 24  3 55 59.9940000  0  4G21G17G11G23
  19869679.822   -19573187.303 7 -15005318.25222        22.500           2.344
  20203627.494    -4651540.018 7  -3624574.50422        22.750           1.969
  22392991.315    -3631663.434 5  -2570682.75121        10.500           0.438
  18878819.768   -28399759.436 7 -21872677.77723        24.500           3.000
 91  7 24  3 56 14.9940000  0  4G21G17G11G23
  19861834.408   -19614418.835 7 -15037446.68722        23.000           2.281
  20207516.408    -4631101.260 7  -3608648.19822        22.250           1.906
  22380560.666    -3696984.656 5  -2621582.35621        10.500           0.344
  18879188.791   -28397817.064 7 -21871164.25123        24.500           3.063
 91  7 24  3 56 29.9940000  0  4G21G17G11G23
  19854002.041   -19655574.986 7 -15069516.38522        22.250           2.281
  20211419.166    -4610599.751 7  -3592673.00222        22.500           1.906
  22368135.119    -3762272.721 5  -2672456.11821        10.000           0.438
  18879572.940   -28395795.219 7 -21869588.79123        24.250           3.156
 91  7 24  3 56 44.9940000  0  4G21G17G11G23
  19846180.885   -19696656.311 7 -15101527.78522        21.000           2.250
  20215332.635    -4590036.003 7  -3576649.30922        22.750           1.938
  22355719.252    -3827527.812 5  -2723304.16421        10.500           0.406
  18879972.533   -28393694.799 7 -21867952.10023        25.000           3.188
 91  7 24  3 56 59.9940000  0  4G21G17G11G23
  19838378.986   -19737664.879 7 -15133482.49222        21.250           2.219
  20219256.182    -4569412.174 7  -3560578.80122        22.750           2.125
  22343307.361    -3892751.586 5  -2774127.84721        11.500           0.469
  18880387.119   -28391517.966 7 -21866255.86423        24.750           3.281
 91  7 24  3 57 14.9940000  0  4G21G17G11G23
  19830590.541   -19778600.321 7 -15165380.21122        21.750           2.188
  20223192.580    -4548728.087 7  -3544461.33522        22.750           2.063
  22330901.807    -3957943.305 5  -2824926.53721        11.000           0.406
  18880816.385   -28389264.533 7 -21864499.94523        24.500           3.250
 91  7 24  3 57 29.9940000  0  4G21G17G11G23
  19822815.479   -19819458.324 7 -15197217.59522        22.250           2.250
  20227140.471    -4527979.370 7  -3528293.51122        22.750           2.094
  22318503.994    -4023098.416 5  -2875696.71821        11.000           0.375
  18881260.440   -28386930.517 7 -21862681.23223        24.250           3.438
 91  7 24  3 57 44.9940000  0  4G21G17G11G23
  19815054.908   -19860241.153 7 -15228996.39322        21.750           2.156
  20231101.049    -4507168.306 7  -3512077.09622        23.000           2.188
  22306112.346    -4088218.920 5  -2926439.91921        11.250           0.406
  18881717.822   -28384518.239 7 -21860801.53823        24.750           3.406
 91  7 24  3 57 59.9940000  0  4G21G17G11G23
  19807308.604   -19900946.707 7 -15260714.98022        21.500           2.188
  20235074.010    -4486292.874 7  -3495810.53422        22.750           2.125
  22293725.572    -4153302.237 5  -2977154.13521        11.000           0.406
  18882192.588   -28382025.804 7 -21858859.37824        25.250           3.500
 91  7 24  3 58 14.9940000  0  4G21G17G11G23
  19799574.846   -19941581.443 7 -15292378.38522        21.500           2.094
  20239055.049    -4465359.513 7  -3479498.82822        22.000           2.000
  22281347.822    -4218354.542 5  -3027844.20821        11.000           0.313
  18882681.979   -28379459.799 7 -21856859.89524        25.250           3.594
 91  7 24  3 58 29.9940000  0  4G21G17G11G23
  19791855.822   -19982137.847 7 -15323980.75322        21.250           2.156
  20243052.158    -4444361.099 7  -3463136.42922        22.500           1.969
  22268975.900    -4283368.110 5  -3078504.09621        11.000           0.375
  18883185.080   -28376813.030 7 -21854797.47824        25.250           3.563
 91  7 24  3 58 44.9940000  0  4G21G17G11G23
  19784153.158   -20022620.281 7 -15355525.48222        21.250           2.219
  20247059.885    -4423301.982 7  -3446726.73522        22.500           1.969
  22256610.205    -4348346.909 5  -3129136.89521        11.500           0.375
  18883702.979   -28374090.186 7 -21852675.78124        25.250           3.500
 91  7 24  3 58 59.9940000  0  4G21G17G11G23
  19776465.174   -20063027.178 7 -15387011.35022        20.750           2.125
  20251080.127    -4402180.498 7  -3430268.43322        23.000           2.000
  22244251.643    -4413289.070 5  -3179741.11821        11.250           0.344
  18884236.557   -28371289.651 7 -21850493.54424        25.500           3.563
 91  7 24  3 59 14.9940000  0  4G21G17G11G23
  19768790.596   -20103361.153 7 -15418440.39722        21.250           2.188
  20255110.174    -4380999.336 7  -3413763.64222        22.500           2.125
  22231897.572    -4478196.815 5  -3230318.54321        10.500           0.344
  18884782.791   -28368414.248 7 -21848252.96924        25.750           3.594
 91  7 24  3 59 29.9940000  0  4G21G17G11G23
  19761128.205   -20143615.914 7 -15449807.71422        21.000           2.094
  20259153.674    -4359752.393 7  -3397207.58722        22.500           1.969
  22219555.994    -4543063.625 5  -3280864.05421        11.000           0.344
  18885345.010   -28365457.980 7 -21845949.38524        26.000           3.563
 91  7 24  3 59 44.9940000  0  4G21G17G11G23
  19753482.565   -20183797.333 7 -15481117.88922        21.500           2.188
  20263208.775    -4338445.536 7  -3380604.83722        22.000           2.125
  22207216.807    -4607894.925 5  -3331381.91221        10.500           0.375
  18885923.213   -28362426.770 7 -21843587.40223        26.250           3.438
 91  7 24  3 59 59.9940000  0  4G21G17G11G23
  19745850.221   -20223905.099 7 -15512370.66322        21.500           2.125
  20267273.533    -4317078.509 7  -3363955.21822        21.500           2.063
  22194888.861    -4672690.116 5  -3381871.63421        11.250           0.375
  18886512.510   -28359320.618 7 -21841167.02223        26.000           3.406
 91  7 24  4  0 14.9940000  0  4G21G17G11G23
  19738231.385   -20263936.826 7 -15543564.19622        21.250           2.125
  20271351.565    -4295648.941 7  -3347256.85622        22.250           2.000
  22182565.697    -4737446.462 5  -3432331.07921        11.500           0.344
  18887119.518   -28356137.574 7 -21838686.72923        26.250           3.469
 91  7 24  4  0 29.9940000  0  4G21G17G11G23
  19730629.065   -20303891.826 7 -15574697.93722        21.000           2.156
  20275442.393    -4274156.143 7  -3330509.21822        22.500           2.063
  22170250.580    -4802162.975 5  -3482759.50621        11.250           0.313
  18887741.479   -28352876.870 7 -21836145.92323        26.750           3.406
 91  7 24  4  0 44.9940000  0  4G21G17G11G23
  19723040.900   -20343772.713 7 -15605773.93422        21.250           2.094
  20279542.877    -4252602.852 7  -3313714.45722        22.250           2.094
  22157945.986    -4866841.813 6  -3533158.56121        12.250           0.375
  18888374.502   -28349541.272 7 -21833546.75123        26.250           3.438
 91  7 24  4  0 59.9940000  0  4G21G17G11G23
  19715465.705   -20383577.683 7 -15636790.77622        20.750           2.125
  20283657.400    -4230987.293 7  -3296871.17322        23.000           2.094
  22145643.377    -4931480.786 5  -3583526.56521        11.250           0.375
  18889023.877   -28346129.132 7 -21830887.94523        26.250           3.375
 91  7 24  4  1 14.9940000  0  4G21G17G11G23
  19707905.494   -20423309.123 7 -15667750.31622        21.000           2.063
  20287780.650    -4209311.789 7  -3279981.17322        21.750           2.094
  22133348.643    -4996082.058 5  -3633865.19421        11.000           0.344
  18889686.275   -28342643.076 7 -21828171.54423        26.750           3.313
 91  7 24  4  1 29.9940000  0  4G21G17G11G23
  19700359.486   -20462963.620 7 -15698649.89922        21.000           2.031
  20291917.791    -4187573.163 7  -3263041.99122        22.000           2.094
  22121063.127    -5060642.039 5  -3684171.62721        11.000           0.375
  18890364.846   -28339080.119 7 -21825395.21023        26.250           3.250
 91  7 24  4  1 44.9940000  0  4G21G17G11G23
  19692826.494   -20502547.814 7 -15729494.70222        20.250           2.063
  20296063.330    -4165778.115 7  -3246058.84422        21.250           2.188
  22108785.088    -5125166.751 6  -3734450.59821        12.000           0.438
  18891056.713   -28335446.900 7 -21822564.13323        26.500           3.250
 91  7 24  4  1 59.9940000  0  4G21G17G11G23
  19685308.799   -20542056.767 7 -15760280.87722        20.500           2.125
  20300224.424    -4143922.063 7  -3229028.16622        21.750           2.063
  22096515.354    -5189651.022 6  -3784698.04421        12.250           0.344
  18891762.580   -28331738.702 7 -21819674.63423        26.250           3.313
 91  7 24  4  2 14.9940000  0  4G21G17G11G23
  19677803.596   -20581489.751 7 -15791007.85622        20.000           2.094
  20304395.830    -4122004.044 7  -3211949.20022        21.750           2.000
  22084252.221    -5254093.827 6  -3834913.18421        12.250           0.500
  18892482.752   -28327955.065 7 -21816726.34923        26.750           3.188
